[[{"header":{"parameterUnit":"m.s-1","parameterCategory":1,"la1":31.0,"la2":29.5877,"lo1":-88.7671,"lo2":-86.6584,"dx":0.0162,"dy":0.0185,"nx":115,"ny":88,"refTime":"2023-01-19T06:00:00:Z","depth":0,"parameterNumber":2,"parameterNumberName":"U-component_of_WINDS"},"data":[0.0,0.0,0.0,0.0,0.0,0.0,0.0,0.0,0.0,0.0,0.0,0.0,0.0,0.0,0.0,0.0,0.0,0.0,0.0,0.0,0.0,0.0,0.0,0.0,0.0,0.0,0.0,0.0,0.0,0.0,0.0,0.0,0.0,0.0,0.0,0.0,0.0,0.0,0.0,0.0,0.0,0.0,0.0,0.0,0.0,0.0,0.0,0.0,0.0,0.0,0.0,0.0,0.0,0.0,0.0,0.0,0.0,0.0,0.0,0.0,0.0,0.0,0.0,0.0,0.0,0.0,0.0,0.0,0.0,0.0,0.0,0.0,0.0,0.0,0.0,0.0,0.0,0.0,0.0,0.0,0.0,0.0,0.0,0.0,0.0,0.0,0.0,0.0,0.0,0.0,0.0,0.0,0.0,0.0,0.0,0.0,0.0,0.0,0.0,0.0,0.0,0.0,0.0,0.0,0.0,0.0,0.0,0.0,0.0,0.0,0.0,0.0,0.0,0.0,0.0,0.0,0.0,0.0,0.0,0.0,0.0,0.0,0.0,0.0,0.0,0.0,0.0,0.0,0.0,0.0,0.0,0.0,0.0,0.0,0.0,0.0,0.0,0.0,0.0,0.0,0.0,0.0,0.0,0.0,0.0,0.0,0.0,0.0,0.0,0.0,0.0,0.0,0.0,0.0,0.0,0.0,0.0,0.0,0.0,0.0,0.0,0.0,0.0,0.0,0.0,0.0,0.0,0.0,0.0,0.0,0.0,0.0,0.0,0.0,0.0,0.0,0.0,0.0,0.0,0.0,0.0,0.0,0.0,0.0,0.0,0.0,0.0,0.0,0.0,0.0,0.0,0.0,0.0,0.0,0.0,0.0,0.0,0.0,0.0,0.0,0.0,0.0,0.0,0.0,0.0,0.0,0.0,0.0,0.0,0.0,0.0,0.0,0.0,0.0,0.0,0.0,0.0,0.0,0.0,0.0,0.0,0.0,0.0,0.0,0.0,0.0,0.0,0.0,0.0,0.0,0.0,0.0,0.0,0.0,0.0,0.0,0.0,0.0,0.0,0.0,0.0,0.0,0.0,0.0,0.0,0.0,0.0,0.0,0.0,0.0,0.0,0.0,0.0,0.0,0.0,0.0,0.0,0.0,0.0,0.0,0.0,0.0,0.0,0.0,0.0,0.0,0.0,0.0,0.0,0.0,0.0,0.0,0.0,0.0,0.0,0.0,0.0,0.0,0.0,0.0,0.0,0.0,0.0,0.0,0.0,0.0,0.0,0.0,0.0,0.0,0.0,0.0,0.0,0.0,0.0,0.0,0.0,0.0,0.0,0.0,0.0,0.0,0.0,0.0,0.0,0.0,0.0,0.0,0.0,0.0,0.0,0.0,0.0,0.0,0.0,0.0,0.0,0.0,0.0,0.0,0.0,0.0,0.0,0.0,0.0,0.0,0.0,0.0,0.0,0.0,0.0,0.0,0.0,0.0,0.0,0.0,0.0,0.0,0.0,0.0,0.0,0.0,0.0,0.0,0.0,0.0,0.0,0.0,0.0,0.0,0.0,0.0,0.0,0.0,0.0,0.0,0.0,0.0,0.0,0.0,0.0,0.0,0.0,0.0,0.0,0.0,0.0,0.0,0.0,0.0,0.0,0.0,0.0,0.0,0.0,0.0,0.0,0.0,0.0,0.0,0.0,0.0,0.0,0.0,0.0,0.0,0.0,0.0,0.0,0.0,0.0,0.0,0.0,0.0,0.0,0.0,0.0,0.0,0.0,0.0,0.0,0.0,0.0,0.0,0.0,0.0,0.0,0.0,0.0,0.0,0.0,0.0,0.0,0.0,0.0,0.0,0.0,0.0,0.0,0.0,0.0,0.0,0.0,0.0,0.0,0.0,0.0,0.0,0.0,0.0,0.0,0.0,0.0,0.0,0.0,0.0,0.0,0.0,0.0,0.0,0.0,0.0,0.0,0.0,0.0,0.0,0.0,0.0,0.0,0.0,0.0,0.0,0.0,0.0,0.0,0.0,0.0,0.0,0.0,0.0,0.0,0.0,0.0,0.0,0.0,0.0,0.0,0.0,0.0,0.0,0.0,0.0,0.0,0.0,0.0,0.0,0.0,0.0,0.0,0.0,0.0,0.0,0.0,0.0,0.0,0.0,0.0,0.0,0.0,0.0,0.0,0.0,0.0,0.0,0.0,0.0,0.0,0.0,0.0,0.0,0.0,0.0,0.0,0.0,0.0,0.0,0.0,0.0,0.0,0.0,0.0,0.0,0.0,0.0,0.0,0.0,0.0,0.0,0.0,0.0,0.0,0.0,0.0,0.0,0.0,0.0,0.0,0.0,0.0,0.0,0.0,0.0,0.0,0.0,0.0,0.0,0.0,0.0,0.0,0.0,0.0,0.0,0.0,0.0,0.0,0.0,0.0,0.0,0.0,0.0,0.0,0.0,0.0,0.0,0.0,0.0,0.0,0.0,0.0,0.0,0.0,0.0,0.0,0.0,0.0,0.0,0.0,0.0,0.0,0.0,0.0,0.0,0.0,0.0,0.0,0.0,0.0,0.0,0.0,0.0,0.0,0.0,0.0,0.0,0.0,0.0,0.0,0.0,0.0,0.0,0.0,0.0,0.0,0.0,0.0,0.0,0.0,0.0,0.0,0.0,0.0,0.0,0.0,0.0,0.0,0.0,0.0,0.0,0.0,0.0,0.0,0.0,0.0,0.0,0.0,0.0,0.0,0.0,0.0,0.0,0.0,0.0,0.0,0.0,0.0,0.0,0.0,0.0,0.0,0.0,0.0,0.0,0.0,0.0,0.0,0.0,0.0,0.0,0.0,0.0,0.0,0.0,0.0,0.0,0.0,0.0,0.0,0.0,0.0,0.0,0.0,0.0,0.0,0.0,0.0,0.0,0.0,0.0,0.0,0.0,0.0,0.0,0.0,0.0,0.0,0.0,0.0,0.0,0.0,0.0,0.0,0.0,0.0,0.0,0.0,0.0,0.0,0.0,0.0,0.0,0.0,0.0,0.0,0.0,0.0,0.0,0.0,0.0,0.0,0.0,0.0,0.0,0.0,0.0,0.0,0.0,0.0,0.0,0.0,0.0,0.0,0.0,0.0,0.0,0.0,0.0,0.0,0.0,0.0,0.0,0.0,0.0,0.0,0.0,0.0,0.0,0.0,0.0,0.0,0.0,0.0,0.0,0.0,0.0,0.0,0.0,0.0,0.0,0.0,0.0,0.0,0.0,0.0,0.0,0.0,0.0,0.0,0.0,0.0,0.0,0.0,0.0,0.0,0.0,0.0,0.0,0.0,0.0,0.0,0.0,0.0,0.0,0.0,0.0,0.0,0.0,0.0,0.0,0.0,0.0,0.0,0.0,0.0,0.0,0.0,0.0,0.0,0.0,0.0,0.0,0.0,0.0,0.0,0.0,0.0,0.0,0.0,0.0,0.0,0.0,0.0,0.0,0.0,0.0,0.0,0.0,0.0,0.0,0.0,0.0,0.0,0.0,0.0,0.0,0.0,0.0,0.0,0.0,0.0,0.0,0.0,0.0,0.0,0.0,0.0,0.0,0.0,0.0,0.0,0.0,0.0,0.0,0.0,0.0,0.0,0.0,0.0,0.0,0.0,0.0,0.0,0.0,0.0,0.0,0.0,0.0,0.0,0.0,0.0,0.0,0.0,0.0,0.0,0.0,0.0,0.0,0.0,0.0,0.0,0.0,0.0,0.0,0.0,0.0,0.0,0.0,0.0,0.0,0.0,0.0,0.0,0.0,0.0,0.0,0.0,0.0,0.0,0.0,0.0,0.0,0.0,0.0,0.0,0.0,0.0,0.0,0.0,0.0,0.0,0.0,0.0,0.0,0.0,0.0,0.0,0.0,0.0,0.0,0.0,0.0,0.0,0.0,0.0,0.0,0.0,0.0,0.0,0.0,0.0,0.0,0.0,0.0,0.0,0.0,0.0,0.0,0.0,0.0,0.0,0.0,0.0,0.0,0.0,0.0,0.0,0.0,0.0,0.0,0.0,0.0,0.0,0.0,0.0,0.0,0.0,0.0,0.0,0.0,0.0,0.0,0.0,0.0,0.0,0.0,0.0,0.0,0.0,0.0,0.0,0.0,0.0,0.0,0.0,0.0,0.0,0.0,0.0,0.0,0.0,0.0,0.0,0.0,0.0,0.0,0.0,0.0,0.0,0.0,0.0,0.0,0.0,0.0,0.0,0.0,0.0,0.0,0.0,0.0,0.0,0.0,0.0,0.0,0.0,0.0,0.0,0.0,2.1397,0.0,0.0,0.0,0.0,0.0,0.0,0.0,0.0,0.0,0.0,0.0,0.0,0.0,0.0,0.0,0.0,0.0,0.0,0.0,0.0,0.0,0.0,0.0,0.0,0.0,0.0,0.0,0.0,0.0,0.0,0.0,0.0,0.0,0.0,0.0,0.0,0.0,0.0,0.0,0.0,0.0,0.0,0.0,0.0,0.0,0.0,0.0,0.0,0.0,0.0,0.0,0.0,0.0,0.0,0.0,0.0,0.0,0.0,0.0,0.0,0.0,0.0,0.0,0.0,0.0,0.0,0.0,0.0,0.0,0.0,0.0,0.0,0.0,0.0,0.0,0.0,0.0,0.0,0.0,0.0,0.0,0.0,0.0,0.0,0.0,0.0,0.0,0.0,0.0,0.0,0.0,0.0,0.0,0.0,0.0,0.0,0.0,0.0,0.0,0.0,0.0,0.0,0.0,0.0,0.0,0.0,0.0,0.0,0.0,0.0,2.1397,2.1397,2.1397,2.1397,2.1397,0.0,0.0,0.0,0.0,0.0,0.0,0.0,0.0,0.0,0.0,0.0,0.0,0.0,0.0,0.0,0.0,0.0,0.0,0.0,0.0,0.0,0.0,0.0,0.0,0.0,0.0,0.0,0.0,0.0,0.0,0.0,0.0,0.0,0.0,0.0,0.0,0.0,0.0,0.0,0.0,0.0,0.0,0.0,0.0,0.0,0.0,0.0,0.0,0.0,0.0,0.0,0.0,0.0,0.0,0.0,0.0,0.0,0.0,0.0,0.0,0.0,0.0,0.0,0.0,0.0,0.0,0.0,0.0,0.0,0.0,0.0,0.0,0.0,0.0,0.0,0.0,0.0,0.0,0.0,0.0,0.0,0.0,0.0,0.0,0.0,0.0,0.0,0.0,0.0,0.0,0.0,0.0,0.0,0.0,0.0,0.0,0.0,0.0,0.0,0.0,0.0,0.0,0.0,0.0,0.0,0.0,0.0,0.0,0.0,0.0,0.0,0.0,2.1397,2.1397,2.1397,0.0,0.0,0.0,0.0,0.0,0.0,0.0,0.0,0.0,0.0,0.0,0.0,0.0,0.0,0.0,0.0,0.0,0.0,0.0,0.0,0.0,0.0,0.0,0.0,0.0,0.0,0.0,0.0,0.0,0.0,0.0,0.0,0.0,0.0,0.0,0.0,0.0,0.0,0.0,0.0,0.0,0.0,0.0,0.0,0.0,0.0,0.0,0.0,0.0,0.0,0.0,0.0,0.0,0.0,0.0,0.0,0.0,0.0,0.0,0.0,0.0,0.0,0.0,0.0,0.0,0.0,0.0,0.0,0.0,0.0,0.0,0.0,0.0,0.0,0.0,0.0,0.0,0.0,0.0,0.0,0.0,0.0,0.0,0.0,0.0,0.0,0.0,0.0,0.0,0.0,0.0,0.0,0.0,0.0,0.0,0.0,0.0,0.0,0.0,0.0,0.0,0.0,0.0,0.0,0.0,0.0,0.0,0.0,0.0,0.0,2.1397,2.1397,2.1397,0.0,2.1397,0.0,0.0,0.0,0.0,0.0,0.0,0.0,0.0,0.0,0.0,0.0,0.0,0.0,0.0,0.0,0.0,0.0,0.0,0.0,0.0,0.0,0.0,0.0,0.0,0.0,0.0,0.0,0.0,0.0,0.0,0.0,0.0,0.0,0.0,0.0,0.0,0.0,0.0,0.0,0.0,0.0,0.0,0.0,0.0,0.0,0.0,0.0,0.0,0.0,0.0,0.0,0.0,0.0,0.0,0.0,0.0,0.0,0.0,0.0,0.0,0.0,0.0,0.0,0.0,0.0,0.0,0.0,0.0,0.0,0.0,0.0,0.0,0.0,0.0,0.0,0.0,0.0,0.0,0.0,0.0,0.0,0.0,0.0,0.0,0.0,0.0,0.0,0.0,0.0,0.0,0.0,0.0,0.0,0.0,0.0,0.0,0.0,0.0,0.0,0.0,0.0,0.0,0.0,0.0,0.0,0.0,0.0,0.0,0.0,0.0,2.1777,2.1385,2.1397,2.1397,0.0,0.0,0.0,0.0,0.0,0.0,0.0,0.0,0.0,0.0,0.0,0.0,0.0,0.0,0.0,0.0,0.0,0.0,0.0,0.0,0.0,0.0,0.0,0.0,0.0,0.0,0.0,0.0,0.0,0.0,0.0,0.0,0.0,0.0,0.0,0.0,0.0,0.0,0.0,0.0,0.0,0.0,0.0,0.0,0.0,0.0,0.0,0.0,0.0,0.0,0.0,0.0,0.0,0.0,0.0,0.0,0.0,0.0,0.0,0.0,0.0,0.0,0.0,0.0,0.0,0.0,0.0,0.0,0.0,0.0,0.0,0.0,0.0,0.0,0.0,0.0,0.0,0.0,0.0,0.0,0.0,0.0,0.0,0.0,0.0,0.0,0.0,0.0,0.0,0.0,0.0,0.0,0.0,0.0,0.0,0.0,0.0,0.0,0.0,0.0,0.0,0.0,0.0,0.0,0.0,0.0,0.0,0.0,0.0,0.0,2.2536,2.2265,2.1683,2.1494,2.1397,2.1397,0.0,0.0,0.0,0.0,0.0,0.0,0.0,0.0,0.0,0.0,0.0,0.0,0.0,0.0,0.0,0.0,0.0,0.0,0.0,0.0,0.0,0.0,0.0,0.0,0.0,0.0,0.0,0.0,0.0,0.0,0.0,0.0,0.0,0.0,0.0,0.0,0.0,0.0,0.0,0.0,0.0,0.0,0.0,0.0,0.0,0.0,0.0,0.0,0.0,0.0,0.0,0.0,0.0,0.0,0.0,0.0,0.0,0.0,0.0,0.0,0.0,0.0,0.0,0.0,0.0,0.0,0.0,0.0,0.0,0.0,0.0,0.0,0.0,0.0,0.0,0.0,0.0,0.0,0.0,0.0,0.0,0.0,0.0,0.0,0.0,0.0,0.0,0.0,0.0,0.0,0.0,0.0,0.0,0.0,0.0,0.0,0.0,0.0,0.0,0.0,0.0,0.0,0.0,0.0,0.0,0.0,0.0,0.0,0.0,2.3161,2.2876,2.2278,2.1723,2.1397,0.0,0.0,0.0,0.0,0.0,0.0,0.0,0.0,0.0,0.0,0.0,0.0,0.0,0.0,0.0,0.0,0.0,0.0,0.0,0.0,0.0,0.0,0.0,0.0,0.0,0.0,0.0,0.0,0.0,0.0,0.0,0.0,0.0,0.0,0.0,0.0,0.0,0.0,0.0,0.0,0.0,0.0,0.0,0.0,0.0,0.0,0.0,0.0,0.0,0.0,0.0,0.0,0.0,0.0,0.0,0.0,0.0,0.0,0.0,0.0,0.0,0.0,0.0,0.0,0.0,0.0,0.0,0.0,0.0,0.0,0.0,0.0,0.0,0.0,0.0,0.0,0.0,0.0,0.0,0.0,0.0,0.0,0.0,0.0,0.0,0.0,0.0,0.0,0.0,0.0,0.0,0.0,0.0,0.0,0.0,0.0,0.0,0.0,0.0,0.0,0.0,0.0,0.0,0.0,0.0,0.0,0.0,0.0,0.0,2.3784,2.3418,2.3093,2.2876,2.2659,2.2361,0.0,0.0,0.0,0.0,0.0,0.0,0.0,0.0,0.0,0.0,0.0,0.0,0.0,0.0,0.0,0.0,0.0,0.0,0.0,0.0,0.0,0.0,0.0,0.0,0.0,0.0,0.0,0.0,0.0,0.0,0.0,0.0,0.0,0.0,0.0,0.0,0.0,0.0,0.0,0.0,0.0,0.0,0.0,0.0,0.0,0.0,0.0,0.0,0.0,0.0,0.0,0.0,0.0,0.0,0.0,0.0,0.0,0.0,0.0,0.0,0.0,0.0,0.0,0.0,0.0,0.0,0.0,0.0,0.0,0.0,0.0,0.0,0.0,0.0,0.0,0.0,0.0,0.0,0.0,0.0,0.0,0.0,0.0,0.0,0.0,0.0,0.0,0.0,0.0,0.0,0.0,0.0,0.0,0.0,0.0,0.0,0.0,0.0,0.0,0.0,0.0,0.0,0.0,0.0,0.0,0.0,0.0,0.0,0.0,2.4159,0.0,2.3499,2.3486,2.331,2.3012,0.0,0.0,0.0,0.0,0.0,0.0,0.0,0.0,0.0,0.0,0.0,0.0,0.0,0.0,0.0,0.0,0.0,0.0,0.0,0.0,0.0,0.0,0.0,0.0,0.0,0.0,0.0,0.0,0.0,0.0,0.0,0.0,0.0,0.0,0.0,0.0,0.0,0.0,0.0,0.0,0.0,0.0,0.0,0.0,0.0,0.0,0.0,0.0,0.0,0.0,0.0,0.0,0.0,0.0,0.0,0.0,0.0,0.0,0.0,0.0,0.0,0.0,0.0,0.0,0.0,0.0,0.0,0.0,0.0,0.0,0.0,0.0,0.0,0.0,0.0,0.0,0.0,0.0,0.0,0.0,0.0,0.0,0.0,0.0,0.0,0.0,0.0,0.0,0.0,0.0,0.0,0.0,0.0,0.0,0.0,0.0,0.0,0.0,0.0,0.0,0.0,0.0,0.0,0.0,0.0,0.0,0.0,0.0,2.3395,2.4238,2.4172,2.4068,2.4109,2.3567,2.3242,0.0,0.0,0.0,0.0,0.0,0.0,0.0,0.0,0.0,0.0,0.0,0.0,0.0,0.0,0.0,0.0,0.0,0.0,0.0,0.0,0.0,0.0,0.0,0.0,0.0,0.0,0.0,0.0,0.0,0.0,0.0,0.0,0.0,0.0,0.0,0.0,0.0,0.0,0.0,0.0,0.0,0.0,0.0,0.0,0.0,0.0,0.0,0.0,0.0,0.0,0.0,0.0,0.0,0.0,0.0,0.0,0.0,0.0,0.0,0.0,0.0,0.0,0.0,0.0,0.0,0.0,0.0,0.0,0.0,0.0,0.0,0.0,0.0,0.0,0.0,0.0,0.0,0.0,0.0,0.0,0.0,0.0,0.0,0.0,0.0,0.0,0.0,0.0,0.0,0.0,0.0,0.0,0.0,0.0,0.0,0.0,0.0,0.0,0.0,0.0,0.0,0.0,0.0,0.0,0.0,0.0,0.0,0.0,0.0,2.4736,2.4421,2.4397,2.4692,2.4543,2.4245,0.0,0.0,0.0,0.0,0.0,0.0,0.0,0.0,0.0,0.0,0.0,0.0,0.0,0.0,0.0,0.0,0.0,0.0,0.0,0.0,0.0,0.0,0.0,0.0,0.0,0.0,0.0,0.0,0.0,0.0,0.0,0.0,0.0,0.0,0.0,0.0,0.0,0.0,0.0,0.0,0.0,0.0,0.0,0.0,0.0,0.0,0.0,0.0,0.0,0.0,0.0,0.0,0.0,0.0,0.0,0.0,0.0,0.0,0.0,0.0,0.0,0.0,0.0,0.0,0.0,0.0,0.0,0.0,0.0,0.0,0.0,0.0,0.0,0.0,0.0,0.0,0.0,0.0,0.0,0.0,0.0,0.0,0.0,0.0,0.0,0.0,0.0,0.0,0.0,0.0,0.0,0.0,0.0,0.0,0.0,0.0,0.0,0.0,0.0,0.0,0.0,0.0,0.0,0.0,0.0,0.0,0.0,0.0,0.0,2.5024,2.4775,2.4786,2.5084,2.5219,2.4961,2.4212,0.0,0.0,0.0,0.0,0.0,0.0,0.0,0.0,0.0,0.0,0.0,0.0,0.0,0.0,0.0,0.0,0.0,0.0,0.0,0.0,0.0,0.0,0.0,0.0,0.0,0.0,0.0,0.0,0.0,0.0,0.0,0.0,0.0,0.0,0.0,0.0,0.0,0.0,0.0,0.0,0.0,0.0,0.0,0.0,0.0,0.0,0.0,0.0,0.0,0.0,0.0,0.0,0.0,0.0,0.0,0.0,0.0,0.0,0.0,0.0,0.0,0.0,0.0,0.0,0.0,0.0,0.0,0.0,0.0,0.0,0.0,0.0,0.0,0.0,0.0,0.0,0.0,0.0,0.0,0.0,0.0,0.0,0.0,0.0,0.0,0.0,0.0,0.0,0.0,0.0,0.0,0.0,0.0,0.0,0.0,0.0,0.0,0.0,0.0,0.0,0.0,0.0,0.0,0.0,0.0,0.0,0.0,0.0,2.5205,2.5281,2.5313,2.5301,2.5673,2.5443,0.0,0.0,0.0,0.0,0.0,0.0,0.0,0.0,0.0,0.0,0.0,0.0,0.0,0.0,0.0,0.0,0.0,0.0,0.0,0.0,0.0,0.0,0.0,0.0,0.0,0.0,0.0,0.0,0.0,0.0,0.0,0.0,0.0,0.0,0.0,0.0,0.0,0.0,0.0,0.0,0.0,0.0,0.0,0.0,0.0,0.0,0.0,0.0,0.0,0.0,0.0,0.0,0.0,0.0,0.0,0.0,0.0,0.0,0.0,0.0,0.0,0.0,0.0,0.0,0.0,0.0,0.0,0.0,0.0,0.0,0.0,0.0,0.0,0.0,0.0,0.0,0.0,0.0,0.0,0.0,0.0,0.0,0.0,0.0,0.0,0.0,0.0,0.0,0.0,0.0,0.0,0.0,0.0,0.0,0.0,0.0,0.0,0.0,0.0,0.0,0.0,0.0,0.0,0.0,0.0,0.0,0.0,0.0,0.0,2.5254,2.6059,2.642,2.6366,2.6083,2.5754,0.0,0.0,0.0,0.0,0.0,0.0,0.0,0.0,0.0,0.0,0.0,0.0,0.0,0.0,0.0,0.0,0.0,0.0,0.0,0.0,0.0,0.0,0.0,0.0,0.0,0.0,0.0,0.0,0.0,0.0,0.0,0.0,0.0,0.0,0.0,0.0,0.0,0.0,0.0,0.0,0.0,0.0,0.0,0.0,0.0,0.0,0.0,0.0,0.0,0.0,0.0,0.0,0.0,0.0,0.0,0.0,0.0,0.0,0.0,0.0,0.0,0.0,0.0,0.0,0.0,0.0,0.0,0.0,0.0,0.0,0.0,0.0,0.0,0.0,0.0,0.0,0.0,0.0,0.0,0.0,0.0,0.0,0.0,0.0,0.0,0.0,0.0,0.0,0.0,0.0,0.0,0.0,0.0,0.0,0.0,0.0,0.0,0.0,0.0,0.0,0.0,0.0,0.0,0.0,0.0,0.0,0.0,0.0,2.4699,2.5282,2.6796,2.7543,2.7537,2.651,2.5933,0.0,0.0,0.0,0.0,0.0,0.0,0.0,0.0,0.0,0.0,0.0,0.0,0.0,0.0,0.0,0.0,0.0,0.0,0.0,0.0,0.0,0.0,0.0,0.0,0.0,0.0,0.0,0.0,0.0,0.0,0.0,0.0,0.0,0.0,0.0,0.0,0.0,0.0,0.0,0.0,0.0,0.0,0.0,0.0,0.0,0.0,0.0,0.0,0.0,0.0,0.0,0.0,0.0,0.0,0.0,0.0,0.0,0.0,0.0,0.0,0.0,0.0,0.0,0.0,0.0,0.0,0.0,0.0,0.0,0.0,0.0,0.0,0.0,0.0,0.0,0.0,0.0,0.0,0.0,0.0,0.0,0.0,0.0,0.0,0.0,0.0,0.0,0.0,0.0,0.0,0.0,0.0,0.0,0.0,0.0,0.0,0.0,0.0,0.0,0.0,0.0,0.0,0.0,0.0,0.0,0.0,0.0,0.0,2.5348,2.5498,2.7445,2.8498,2.845,2.6925,2.5946,0.0,0.0,0.0,0.0,0.0,0.0,0.0,0.0,0.0,0.0,0.0,0.0,0.0,0.0,0.0,0.0,0.0,0.0,0.0,0.0,0.0,0.0,0.0,0.0,0.0,0.0,0.0,0.0,0.0,0.0,0.0,0.0,0.0,0.0,0.0,0.0,0.0,0.0,0.0,0.0,0.0,0.0,0.0,0.0,0.0,0.0,0.0,0.0,0.0,0.0,0.0,0.0,0.0,0.0,0.0,0.0,0.0,0.0,0.0,0.0,0.0,0.0,0.0,0.0,0.0,0.0,0.0,0.0,0.0,0.0,0.0,0.0,0.0,0.0,0.0,0.0,0.0,0.0,0.0,0.0,0.0,0.0,0.0,0.0,0.0,0.0,0.0,0.0,0.0,0.0,0.0,0.0,0.0,0.0,0.0,0.0,0.0,0.0,0.0,0.0,0.0,0.0,0.0,0.0,0.0,0.0,0.0,0.0,2.5715,2.6556,2.783,2.8522,2.8498,2.6889,2.6005,0.0,0.0,0.0,0.0,0.0,0.0,0.0,0.0,0.0,0.0,0.0,0.0,0.0,0.0,0.0,0.0,0.0,0.0,0.0,0.0,0.0,0.0,0.0,0.0,0.0,0.0,0.0,0.0,0.0,0.0,0.0,0.0,0.0,0.0,0.0,0.0,0.0,0.0,0.0,0.0,0.0,0.0,0.0,0.0,0.0,0.0,0.0,0.0,2.9379,0.0,0.0,0.0,0.0,0.0,0.0,0.0,0.0,0.0,0.0,0.0,0.0,0.0,0.0,0.0,0.0,0.0,0.0,0.0,0.0,0.0,0.0,0.0,0.0,0.0,0.0,0.0,0.0,0.0,0.0,0.0,0.0,0.0,0.0,0.0,0.0,0.0,0.0,0.0,0.0,0.0,0.0,0.0,0.0,0.0,0.0,0.0,0.0,0.0,0.0,0.0,0.0,0.0,0.0,0.0,0.0,0.0,0.0,0.0,2.5835,2.6873,2.795,2.8522,2.845,2.7136,2.6466,0.0,0.0,0.0,0.0,0.0,0.0,0.0,0.0,0.0,0.0,0.0,0.0,0.0,0.0,0.0,0.0,0.0,0.0,0.0,0.0,0.0,0.0,0.0,0.0,0.0,0.0,0.0,0.0,0.0,0.0,0.0,0.0,0.0,0.0,0.0,0.0,0.0,0.0,0.0,0.0,0.0,0.0,0.0,0.0,0.0,0.0,0.0,0.0,0.0,0.0,0.0,0.0,0.0,0.0,0.0,0.0,0.0,0.0,0.0,0.0,0.0,0.0,0.0,0.0,0.0,0.0,0.0,0.0,0.0,0.0,0.0,0.0,0.0,0.0,0.0,0.0,0.0,0.0,0.0,0.0,0.0,0.0,0.0,0.0,0.0,0.0,0.0,0.0,0.0,0.0,0.0,0.0,0.0,0.0,0.0,0.0,0.0,0.0,0.0,0.0,0.0,0.0,0.0,0.0,0.0,0.0,0.0,2.4987,2.6069,2.7373,2.8286,2.8719,2.8739,2.7709,2.7134,2.7122,0.0,0.0,0.0,0.0,0.0,0.0,0.0,0.0,0.0,0.0,0.0,0.0,0.0,0.0,0.0,0.0,0.0,0.0,0.0,0.0,0.0,0.0,0.0,0.0,0.0,0.0,0.0,0.0,0.0,0.0,0.0,0.0,0.0,0.0,0.0,0.0,0.0,0.0,2.7373,2.7345,0.0,0.0,0.0,0.0,0.0,0.0,0.0,0.0,3.0003,0.0,0.0,0.0,0.0,0.0,0.0,0.0,0.0,0.0,0.0,0.0,0.0,0.0,0.0,0.0,0.0,0.0,0.0,0.0,0.0,0.0,0.0,0.0,0.0,0.0,0.0,0.0,0.0,0.0,0.0,0.0,0.0,0.0,0.0,0.0,0.0,0.0,0.0,0.0,0.0,0.0,0.0,0.0,0.0,0.0,0.0,0.0,0.0,0.0,0.0,0.0,0.0,0.0,0.0,0.0,0.0,2.5702,2.5895,2.7128,2.9508,2.9749,2.9842,2.9797,2.8791,2.7799,2.6895,0.0,0.0,0.0,0.0,0.0,0.0,0.0,0.0,0.0,0.0,0.0,0.0,0.0,0.0,0.0,0.0,0.0,0.0,0.0,0.0,0.0,0.0,0.0,0.0,0.0,0.0,0.0,0.0,0.0,0.0,0.0,0.0,0.0,0.0,0.0,0.0,0.0,0.0,0.0,2.8273,2.8313,0.0,0.0,0.0,0.0,0.0,0.0,0.0,0.0,3.1144,0.0,0.0,0.0,0.0,0.0,0.0,0.0,0.0,0.0,0.0,0.0,0.0,0.0,0.0,0.0,0.0,0.0,0.0,0.0,0.0,0.0,0.0,0.0,0.0,0.0,0.0,0.0,0.0,0.0,0.0,0.0,0.0,0.0,0.0,0.0,0.0,0.0,0.0,0.0,0.0,0.0,0.0,0.0,0.0,0.0,0.0,0.0,0.0,0.0,0.0,0.0,0.0,0.0,0.0,0.0,2.6436,2.7079,2.8234,3.0013,3.0086,3.0086,3.0062,2.9051,2.8014,0.0,0.0,0.0,0.0,0.0,0.0,0.0,0.0,0.0,0.0,0.0,0.0,0.0,0.0,0.0,0.0,0.0,0.0,0.0,0.0,0.0,0.0,0.0,0.0,0.0,0.0,0.0,0.0,0.0,0.0,0.0,0.0,0.0,0.0,0.0,0.0,0.0,0.0,0.0,0.0,2.9581,2.9798,3.1444,0.0,0.0,0.0,0.0,0.0,0.0,3.2333,3.2044,0.0,0.0,0.0,0.0,0.0,0.0,0.0,0.0,0.0,0.0,0.0,0.0,0.0,0.0,0.0,0.0,0.0,0.0,0.0,0.0,0.0,0.0,0.0,0.0,0.0,0.0,0.0,0.0,0.0,0.0,0.0,0.0,0.0,0.0,0.0,0.0,0.0,0.0,0.0,0.0,0.0,0.0,0.0,0.0,0.0,0.0,0.0,0.0,0.0,0.0,0.0,0.0,0.0,0.0,0.0,2.7042,2.8138,2.9244,3.0371,3.0443,3.0398,3.0395,2.9172,2.8065,0.0,0.0,0.0,0.0,0.0,0.0,0.0,0.0,0.0,0.0,0.0,0.0,0.0,0.0,0.0,0.0,0.0,0.0,0.0,0.0,0.0,0.0,0.0,0.0,0.0,0.0,0.0,0.0,0.0,0.0,0.0,0.0,0.0,0.0,0.0,0.0,0.0,0.0,0.0,0.0,0.0,3.1293,3.2671,3.1802,0.0,0.0,0.0,0.0,3.2816,3.3106,0.0,0.0,0.0,0.0,0.0,0.0,0.0,0.0,0.0,0.0,0.0,0.0,0.0,0.0,0.0,0.0,0.0,0.0,0.0,0.0,0.0,0.0,0.0,0.0,0.0,0.0,0.0,0.0,0.0,0.0,0.0,0.0,0.0,0.0,0.0,0.0,0.0,0.0,0.0,0.0,0.0,0.0,0.0,0.0,0.0,0.0,0.0,0.0,0.0,0.0,0.0,0.0,0.0,0.0,0.0,0.0,2.7589,2.8647,2.9962,3.1428,3.1502,3.1502,3.15,2.9556,2.8313,0.0,0.0,0.0,0.0,0.0,0.0,0.0,0.0,0.0,0.0,0.0,0.0,0.0,0.0,0.0,0.0,0.0,0.0,0.0,0.0,0.0,0.0,0.0,0.0,0.0,0.0,0.0,0.0,0.0,0.0,0.0,0.0,0.0,0.0,0.0,0.0,0.0,0.0,0.0,0.0,0.0,3.209,3.3918,3.3077,3.2293,0.0,0.0,0.0,3.4179,3.5108,0.0,0.0,0.0,0.0,0.0,0.0,0.0,0.0,0.0,0.0,0.0,0.0,0.0,0.0,0.0,0.0,0.0,0.0,0.0,0.0,0.0,0.0,0.0,0.0,0.0,0.0,0.0,0.0,0.0,0.0,0.0,0.0,0.0,0.0,0.0,0.0,0.0,0.0,0.0,0.0,0.0,0.0,0.0,0.0,0.0,0.0,0.0,0.0,0.0,0.0,0.0,0.0,0.0,0.0,0.0,2.7445,2.8166,2.9797,3.1019,3.1669,3.1717,3.1717,3.1693,2.9629,2.8442,0.0,0.0,0.0,0.0,0.0,0.0,0.0,0.0,0.0,0.0,0.0,0.0,0.0,0.0,0.0,0.0,0.0,0.0,0.0,0.0,0.0,0.0,0.0,0.0,0.0,0.0,0.0,0.0,0.0,0.0,0.0,0.0,0.0,0.0,0.0,0.0,0.0,0.0,0.0,0.0,0.0,0.0,3.4295,3.3918,0.0,0.0,0.0,3.4167,3.3425,0.0,0.0,0.0,0.0,0.0,0.0,0.0,0.0,0.0,0.0,0.0,0.0,0.0,0.0,0.0,0.0,0.0,0.0,0.0,0.0,0.0,0.0,0.0,0.0,0.0,0.0,0.0,0.0,0.0,0.0,0.0,0.0,0.0,0.0,0.0,0.0,0.0,0.0,0.0,0.0,0.0,0.0,0.0,0.0,0.0,0.0,0.0,0.0,0.0,0.0,0.0,0.0,0.0,0.0,0.0,0.0,0.0,2.8546,3.0612,3.1717,3.1717,3.1717,3.1717,3.1669,2.9869,0.0,0.0,0.0,0.0,0.0,0.0,0.0,0.0,0.0,0.0,0.0,0.0,0.0,0.0,0.0,0.0,0.0,0.0,0.0,0.0,0.0,0.0,0.0,0.0,0.0,0.0,0.0,2.4999,0.0,0.0,0.0,0.0,0.0,0.0,0.0,0.0,0.0,0.0,0.0,0.0,0.0,0.0,3.4264,3.3877,3.4162,3.4489,0.0,0.0,3.4486,3.4022,3.5775,3.6402,0.0,0.0,0.0,0.0,0.0,0.0,0.0,0.0,0.0,0.0,0.0,0.0,0.0,0.0,0.0,0.0,0.0,0.0,0.0,0.0,0.0,0.0,0.0,0.0,0.0,0.0,0.0,0.0,0.0,0.0,0.0,0.0,0.0,0.0,0.0,0.0,0.0,0.0,0.0,0.0,0.0,0.0,0.0,0.0,0.0,0.0,0.0,0.0,0.0,0.0,0.0,0.0,0.0,0.0,0.0,2.857,3.0612,3.1717,3.1717,3.1717,3.1717,3.1693,3.0588,2.9591,0.0,0.0,0.0,0.0,0.0,0.0,0.0,0.0,0.0,0.0,0.0,0.0,0.0,0.0,0.0,0.0,0.0,0.0,0.0,0.0,0.0,0.0,0.0,0.0,0.0,0.0,0.0,0.0,0.0,0.0,0.0,0.0,0.0,0.0,0.0,0.0,0.0,0.0,0.0,0.0,0.0,3.3859,3.2461,3.3496,3.4761,0.0,0.0,3.5915,3.7516,3.8909,3.8986,3.6443,0.0,0.0,0.0,0.0,0.0,0.0,0.0,0.0,0.0,0.0,0.0,0.0,0.0,0.0,0.0,0.0,0.0,0.0,0.0,0.0,0.0,0.0,0.0,0.0,0.0,0.0,0.0,0.0,0.0,0.0,0.0,0.0,0.0,0.0,0.0,0.0,0.0,0.0,0.0,0.0,0.0,0.0,0.0,0.0,0.0,0.0,0.0,0.0,0.0,0.0,0.0,0.0,0.0,2.8522,2.8546,3.0612,3.1717,3.1717,3.1717,3.1717,3.1717,3.066,2.9646,0.0,0.0,0.0,0.0,0.0,0.0,0.0,0.0,0.0,0.0,0.0,0.0,0.0,0.0,0.0,0.0,0.0,0.0,0.0,0.0,0.0,0.0,0.0,0.0,0.0,0.0,0.0,0.0,2.7756,2.8091,2.8439,0.0,0.0,0.0,0.0,0.0,0.0,0.0,0.0,0.0,0.0,3.3779,3.3892,3.455,0.0,0.0,3.5518,3.5417,3.541,3.6935,3.7234,3.4768,3.4557,0.0,0.0,0.0,0.0,0.0,0.0,0.0,0.0,0.0,0.0,0.0,0.0,0.0,0.0,0.0,0.0,0.0,0.0,0.0,0.0,0.0,0.0,0.0,0.0,0.0,0.0,0.0,0.0,0.0,0.0,0.0,0.0,0.0,0.0,0.0,0.0,0.0,0.0,0.0,0.0,0.0,0.0,0.0,0.0,0.0,0.0,0.0,0.0,0.0,0.0,0.0,0.0,2.8979,2.8979,3.1093,3.2176,3.2199,3.2176,3.2199,3.2175,3.1454,3.0543,0.0,0.0,0.0,0.0,0.0,0.0,0.0,0.0,0.0,0.0,0.0,0.0,0.0,0.0,0.0,0.0,0.0,0.0,0.0,0.0,0.0,0.0,0.0,0.0,0.0,0.0,0.0,0.0,2.7952,2.8163,2.8422,0.0,0.0,0.0,0.0,0.0,0.0,0.0,0.0,0.0,0.0,3.3748,3.3744,3.4331,3.4794,3.4773,3.4727,3.4595,3.4395,3.5586,3.5928,3.4187,0.0,0.0,0.0,0.0,0.0,0.0,0.0,0.0,0.0,0.0,0.0,0.0,0.0,0.0,0.0,0.0,0.0,0.0,0.0,0.0,0.0,0.0,0.0,0.0,0.0,0.0,0.0,0.0,0.0,0.0,1.9309,0.0,0.0,0.0,0.0,0.0,0.0,0.0,0.0,0.0,0.0,0.0,0.0,0.0,0.0,0.0,0.0,0.0,0.0,0.0,0.0,0.0,0.0,0.0,3.0107,3.2152,3.3259,3.3236,3.3283,3.3236,3.3212,3.3212,3.2706,3.1599,0.0,0.0,0.0,0.0,0.0,0.0,0.0,0.0,0.0,0.0,0.0,0.0,0.0,0.0,0.0,0.0,0.0,0.0,0.0,0.0,0.0,0.0,0.0,0.0,0.0,0.0,2.6188,2.6912,2.7692,0.0,0.0,0.0,0.0,0.0,0.0,0.0,0.0,0.0,0.0,3.269,3.3622,3.1241,3.2315,3.3476,3.3396,3.3221,3.3713,3.5469,3.5829,3.5829,0.0,0.0,0.0,0.0,0.0,0.0,0.0,0.0,0.0,0.0,0.0,0.0,0.0,0.0,0.0,0.0,0.0,0.0,0.0,0.0,0.0,0.0,0.0,0.0,0.0,0.0,0.0,2.0234,2.0494,0.0,0.0,0.0,0.0,0.0,0.0,0.0,0.0,0.0,0.0,0.0,2.251,2.2767,0.0,0.0,0.0,0.0,0.0,0.0,0.0,0.0,0.0,0.0,0.0,0.0,3.0086,3.0182,3.2224,3.3284,3.3284,3.3284,3.3284,3.3284,3.3284,3.2802,3.1719,0.0,0.0,0.0,0.0,0.0,0.0,0.0,0.0,0.0,0.0,0.0,0.0,0.0,0.0,0.0,0.0,0.0,0.0,0.0,0.0,0.0,0.0,0.0,0.0,0.0,2.8178,0.0,0.0,0.0,0.0,0.0,0.0,0.0,0.0,0.0,0.0,0.0,3.0234,3.0589,3.1357,3.1813,3.1657,3.2254,3.3043,0.0,0.0,0.0,0.0,0.0,0.0,0.0,0.0,0.0,0.0,0.0,0.0,0.0,0.0,3.0607,3.0572,3.1382,3.2066,3.2021,0.0,0.0,0.0,0.0,0.0,0.0,0.0,0.0,0.0,0.0,0.0,0.0,0.0,0.0,0.0,0.0,2.1594,0.0,0.0,0.0,0.0,0.0,0.0,0.0,0.0,2.3413,2.3804,2.3779,2.4036,2.4017,0.0,2.3799,2.3721,0.0,0.0,0.0,0.0,0.0,0.0,0.0,0.0,3.066,3.0756,3.2731,3.3837,3.3813,3.3813,3.3813,3.3813,3.3837,3.3501,3.2779,3.1599,3.0612,0.0,0.0,0.0,0.0,0.0,0.0,0.0,0.0,0.0,0.0,0.0,0.0,0.0,0.0,0.0,0.0,0.0,0.0,0.0,0.0,0.0,0.0,0.0,2.8787,0.0,0.0,0.0,0.0,0.0,0.0,0.0,0.0,0.0,2.8835,2.9684,3.0547,3.1091,3.1344,3.1452,3.1401,0.0,0.0,0.0,0.0,0.0,0.0,0.0,3.1456,3.1442,3.2042,3.2679,3.3043,3.2621,3.2215,3.2215,0.0,0.0,3.1516,3.1947,3.2385,3.2406,3.2151,3.2087,3.2436,3.2386,3.2336,0.0,0.0,0.0,0.0,0.0,0.0,0.0,0.0,2.2417,2.2216,0.0,2.2675,0.0,0.0,0.0,0.0,0.0,0.0,0.0,0.0,2.5829,2.6169,2.5499,2.548,2.548,2.5451,2.5012,2.4771,2.4814,2.573,0.0,0.0,0.0,0.0,0.0,0.0,3.1629,3.1725,3.3647,3.475,3.4775,3.4775,3.4799,3.4775,3.4775,3.4751,3.4727,3.3332,3.2607,3.2667,3.0145,0.0,0.0,0.0,0.0,0.0,0.0,0.0,0.0,0.0,0.0,0.0,0.0,0.0,0.0,0.0,0.0,0.0,0.0,0.0,0.0,2.8595,0.0,0.0,0.0,0.0,0.0,0.0,0.0,0.0,0.0,0.0,2.9484,3.066,3.1669,3.1621,0.0,0.0,0.0,0.0,3.0452,2.8548,2.7911,2.7926,2.8521,2.9406,3.056,3.2127,0.0,0.0,3.3996,3.3115,3.243,3.2406,3.326,3.3469,3.1814,3.1556,3.1456,3.1431,3.1713,3.169,3.1694,3.2351,3.2597,2.1557,0.0,0.0,0.0,0.0,2.2341,2.3175,2.4506,2.4506,2.4455,2.4379,2.4574,0.0,0.0,0.0,0.0,0.0,0.0,2.5095,2.5921,2.6371,2.6784,2.7114,2.7114,2.7114,2.7123,2.7397,2.753,2.7565,2.8259,2.7612,2.5762,0.0,0.0,0.0,0.0,3.0239,3.1623,3.2972,3.4041,3.4775,3.4799,3.4799,3.4799,3.4799,3.4799,3.4799,3.4366,3.3813,3.3137,3.2367,0.0,0.0,0.0,0.0,0.0,0.0,0.0,0.0,0.0,0.0,0.0,0.0,0.0,0.0,0.0,0.0,0.0,0.0,0.0,2.9605,3.0347,3.0299,0.0,0.0,0.0,0.0,0.0,0.0,0.0,0.0,0.0,3.1043,3.0732,3.0564,0.0,0.0,2.9677,2.9051,2.9766,3.0519,3.0855,0.0,0.0,0.0,3.181,3.1598,3.2236,3.3263,3.3998,3.3998,3.4049,3.4073,3.4073,3.4024,3.3822,3.3444,3.3864,3.4237,3.4313,3.439,3.4417,3.4442,3.4565,3.4615,2.4044,2.373,2.268,2.3065,2.4312,2.4338,2.5117,2.6343,2.6343,2.6178,2.5902,2.6215,2.5719,2.4679,2.4698,0.0,0.0,0.0,2.6059,2.7077,2.7077,2.7334,2.7775,2.7793,2.7793,2.7822,2.8418,2.87,2.8681,2.8942,2.8239,2.6612,0.0,0.0,2.7632,2.9454,3.1017,3.2208,3.3691,3.4778,3.5424,3.5424,3.5424,3.5424,3.5232,3.5015,3.4823,3.5015,3.4751,3.3933,3.3268,3.1879,0.0,0.0,0.0,0.0,0.0,0.0,0.0,0.0,0.0,0.0,0.0,2.7995,0.0,0.0,0.0,0.0,2.8825,2.9515,3.0644,3.0622,0.0,0.0,0.0,0.0,0.0,0.0,0.0,2.968,3.1023,3.2104,3.2273,3.1767,3.1382,3.1382,3.0807,3.0254,2.9821,0.0,3.1498,3.1891,3.1893,3.2228,3.3238,3.3076,3.3009,3.3802,3.4456,3.4918,3.4967,3.5235,3.5405,3.5405,3.5186,3.4967,3.4943,3.5503,3.5649,3.4988,3.4892,3.4943,3.4967,3.5308,3.5624,2.6447,2.6774,2.4357,2.4353,2.5915,2.5942,2.666,2.7775,2.7775,2.7389,2.6784,2.7444,2.6912,2.5499,2.5535,0.0,2.671,2.6719,2.7169,2.7885,2.7885,2.7885,2.7885,2.7932,2.7942,2.7942,2.854,2.8823,2.8861,2.8641,2.8457,2.8406,2.9212,2.9146,2.8394,3.1121,3.2733,3.3001,3.4879,3.6055,3.6354,3.648,3.648,3.6378,3.5899,3.5419,3.4915,3.5271,3.5345,3.5014,3.3442,3.2277,3.1562,0.0,0.0,0.0,0.0,0.0,0.0,0.0,0.0,0.0,0.0,0.0,0.0,0.0,0.0,0.0,2.8724,0.0,3.1708,3.0191,0.0,0.0,0.0,3.0625,3.1719,3.1887,3.2104,3.2515,0.0,0.0,0.0,0.0,3.3452,3.3548,3.3428,3.2946,3.1982,3.2706,3.3044,3.2223,3.2056,3.2297,3.3114,3.3717,3.4631,3.5882,3.6411,3.6316,3.6364,3.634,3.6386,3.6412,3.6435,3.6364,3.6386,3.634,3.5884,3.4265,3.4124,3.4246,3.4318,3.504,3.5715,2.714,2.7689,2.7053,2.6996,2.733,2.733,2.7496,2.7793,2.7793,2.7683,2.75,2.7408,2.6967,2.6316,2.6637,2.7041,2.7518,2.782,2.8223,2.8711,2.8729,2.8729,2.8729,2.8975,2.9093,2.9122,2.9706,2.9997,2.9997,3.0199,2.9922,2.9324,2.9506,2.8818,2.7402,2.8056,2.9635,3.2022,3.1997,3.3329,3.6083,3.7115,3.7168,3.6213,3.6044,3.5925,3.5782,3.4913,3.5317,3.7098,3.5189,3.3345,3.1887,3.0279,0.0,0.0,0.0,0.0,0.0,0.0,0.0,0.0,0.0,2.6723,2.604,0.0,2.7213,0.0,2.9961,3.2225,3.336,3.2603,0.0,0.0,3.1878,3.1646,3.2783,3.3597,3.3837,3.3164,3.3789,3.4294,3.4438,3.4438,3.4751,3.5497,3.427,3.3211,3.297,3.3813,3.4366,3.415,3.4703,3.5304,3.5425,3.5665,3.5978,3.6338,3.6435,3.6555,3.694,3.6651,3.6531,3.6867,3.6675,3.6435,3.6435,3.6411,3.629,3.5836,3.5786,3.5688,3.5328,3.5736,3.6218,2.811,2.8439,2.8439,2.8394,2.8344,2.8344,2.8326,2.8326,2.8344,2.8344,2.8326,2.8105,2.7885,2.7701,2.7922,2.8124,2.8344,2.8583,2.8803,2.9005,2.9172,2.9324,2.949,2.9819,2.9998,3.0027,3.0454,3.0594,3.0421,3.0733,3.0673,3.0204,3.0332,2.9766,2.8484,2.8402,2.9255,3.0949,3.2249,3.4243,3.701,3.7616,3.7422,3.6631,3.5814,3.4997,3.4228,3.369,3.3999,3.5127,3.3739,3.2355,3.1152,2.955,2.7556,0.0,0.0,0.0,0.0,0.0,0.0,0.0,0.0,0.0,0.0,0.0,2.7653,0.0,2.9699,0.0,3.2022,3.1397,3.1558,3.3049,3.2592,3.285,3.4486,3.5184,3.54,3.5064,3.5521,3.5953,3.6194,3.6218,3.6435,3.7036,3.6098,3.5208,3.4823,3.5352,3.5881,3.5904,3.6579,3.7204,3.7421,3.7443,3.7565,3.7781,3.7829,3.795,3.8214,3.7829,3.7589,3.7805,3.7469,3.7108,3.7108,3.7134,3.7036,3.6843,3.6964,3.6795,3.6121,3.6386,3.6747,2.8975,2.8975,2.8975,2.8975,2.8975,2.8975,2.8975,2.8975,2.8975,2.8986,2.895,2.8902,2.8883,2.8858,2.8883,2.8931,2.8902,2.8986,2.9042,2.9078,2.9405,2.9778,3.0188,3.0551,3.0762,3.0762,3.1013,3.1,3.0653,3.0937,3.0996,3.0918,3.125,3.0996,3.0154,3.0052,3.0118,3.0328,3.3913,3.6547,3.8149,3.765,3.7122,3.6611,3.5001,3.3382,3.1851,3.2046,3.219,3.1999,3.1221,3.0668,3.0358,2.8208,2.673,0.0,2.5772,0.0,0.0,0.0,0.0,0.0,0.0,0.0,0.0,2.8055,2.8516,2.9629,2.9047,2.9036,3.012,2.9518,3.0261,3.3123,3.349,3.4314,3.633,3.6603,3.6771,3.7252,3.7276,3.7519,3.7829,3.8,3.7976,3.7928,3.7832,3.7397,3.6819,3.694,3.7204,3.7276,3.7711,3.8022,3.8527,3.8716,3.886,3.9417,3.9441,3.9633,3.9609,3.9224,3.8912,3.8908,3.8575,3.8214,3.8217,3.8142,3.7952,3.7541,3.7685,3.7615,3.6819,3.6916,3.7276,2.8975,2.8975,2.8975,2.8975,2.8975,2.8975,2.8975,2.8975,2.8975,2.881,2.8498,2.8498,2.8344,2.8069,2.8352,2.8498,2.8517,2.8847,2.9188,2.9482,2.9832,3.0207,3.0629,3.118,3.1504,3.1504,3.1819,3.1932,3.1854,3.1914,3.1612,3.0947,3.0976,3.0566,2.9755,0.0,0.0,0.0,3.4395,3.6402,3.7112,3.6037,3.4918,3.383,3.2652,0.0,3.1556,3.0675,3.1106,3.2908,3.1184,0.0,0.0,0.0,0.0,0.0,0.0,0.0,0.0,0.0,0.0,0.0,2.7485,2.7252,2.6818,2.6759,2.7623,2.9637,3.0107,3.0965,3.2668,3.3128,3.3895,3.5393,3.5604,3.6177,3.7503,3.7685,3.776,3.7805,3.7829,3.7853,3.7976,3.8,3.8,3.8,3.8,3.7928,3.7711,3.776,3.7856,3.7829,3.7952,3.819,3.8692,3.8812,3.9029,3.9465,3.9609,3.9801,4.0114,3.9801,3.9633,3.9946,3.9657,3.9272,3.9248,3.896,3.8623,3.85,3.8238,3.7805,3.7204,3.7495,3.7829,2.8975,0.0,2.8975,2.8975,0.0,2.8975,2.8975,2.8975,2.8975,2.8895,2.8711,2.8682,2.8572,2.8399,2.8619,2.8682,2.87,2.9109,2.9464,2.9883,3.0336,3.0869,3.1506,3.2019,3.2235,3.2265,3.2419,3.2413,3.2218,3.2198,3.1983,3.1573,3.1749,3.1601,3.1221,3.1367,3.1505,3.1511,3.3657,3.5198,3.6092,3.6096,3.5391,3.3987,0.0,0.0,0.0,0.0,0.0,0.0,0.0,0.0,0.0,0.0,0.0,2.9623,2.9188,2.9051,2.9266,2.9285,2.9461,2.9891,2.9911,2.9364,2.8093,2.8535,2.94,3.0569,3.0942,3.1471,3.2468,3.3155,3.3797,3.4391,3.4974,3.5795,3.6854,3.712,3.7337,3.7894,3.8,3.8,3.8,3.8,3.8,3.8,3.8,3.8,3.8,3.8,3.8,3.8,3.8,3.8286,3.9032,3.92,3.9489,4.0162,4.0379,4.0499,4.0739,4.0355,4.009,4.0306,3.997,3.9609,3.9585,3.9369,3.92,3.92,3.8984,3.865,3.8118,3.7998,3.8,2.9225,2.9195,2.9195,2.9195,2.9195,2.9225,2.9195,2.9207,0.0,0.0,0.0,2.9078,2.9115,2.9133,2.9159,2.9195,2.9225,2.9584,2.9927,3.0349,3.0936,3.1661,3.2392,3.2755,3.291,3.291,3.291,3.2734,3.2402,3.2413,3.2433,3.2452,3.2734,3.291,3.293,3.3242,3.2879,3.1925,3.2827,3.3974,3.5267,3.59,3.5568,3.4282,3.404,3.2973,3.0949,3.0833,3.0833,3.0833,3.0833,3.0934,3.1131,3.1172,3.093,3.0348,3.0282,3.0576,3.1172,3.123,3.1534,3.2159,3.2198,3.1592,3.0146,3.1016,3.1641,3.1641,3.1641,3.1621,3.1651,3.2668,3.3257,3.3286,3.4484,3.5746,3.6556,3.6665,3.7129,3.7812,3.8,3.8,3.8,3.8,3.8,3.8,3.8,3.8,3.8,3.8,3.8,3.8,3.8,3.8361,3.9176,3.9537,3.9994,4.0739,4.1081,4.1196,4.1124,4.0836,4.0571,4.0571,4.0162,3.997,3.9898,3.9826,3.9753,3.9753,3.9657,3.9465,3.9029,3.8599,3.8289,3.002,3.0039,3.002,3.002,3.0039,3.0039,3.0039,2.9965,2.9287,2.8993,2.9023,2.9372,2.9519,2.9537,2.9904,3.002,3.0051,3.0389,3.0767,0.0,3.1813,3.2373,3.2815,3.3151,3.334,3.3308,3.3289,3.3269,3.3242,3.3223,3.3242,3.3242,3.3269,3.3289,3.3308,3.3367,3.3308,3.3125,3.3105,3.3663,3.4913,3.3022,3.1885,3.1616,3.0901,3.0214,2.9821,2.9841,2.9802,2.9821,2.9821,3.0285,3.1358,3.1466,3.1868,3.2754,3.2891,3.2773,3.2539,3.2519,3.2452,3.2218,3.2198,3.2081,3.1866,3.2003,3.2101,3.2101,3.2101,3.2101,3.2222,3.4021,3.5193,3.5446,3.7433,3.8761,3.8282,3.8289,3.823,3.8043,3.8,3.8024,3.8,3.8,3.8,3.8,3.8,3.8,3.8,3.8,3.8,3.8,3.8,3.8289,3.8912,3.9345,3.9826,4.0403,4.0884,4.1076,4.1153,4.1008,4.0884,4.1033,4.0812,4.0787,4.0812,4.0571,4.0234,4.0138,3.9874,3.9561,3.9365,3.9221,3.8984,3.0516,3.0497,3.0296,3.0204,3.0204,3.0204,3.0204,3.0167,2.9819,2.9654,2.9672,2.9837,2.991,2.9929,3.0112,3.0297,3.0464,3.0803,3.1306,3.1871,3.2327,3.2777,3.3146,3.3323,3.3386,3.3386,3.3386,3.3386,3.3386,3.3386,3.3386,3.3386,3.3386,3.3386,3.3386,3.3386,3.3386,3.3367,3.3296,3.3498,3.4063,3.3646,3.3103,3.2385,3.2563,3.2385,3.169,3.166,3.166,3.166,3.166,3.1934,3.25,3.2528,3.2781,3.3347,3.3386,3.334,3.3113,3.3125,3.3066,3.2871,3.2851,3.2851,3.2851,3.2667,3.2531,3.2531,3.25,3.25,3.2561,3.3907,3.4572,3.3942,3.6121,3.7457,3.7364,3.7878,3.8323,3.8392,3.8431,3.831,3.8022,3.8,3.8,3.8,3.8,3.8,3.8,3.8,3.8,3.8,3.8,3.8359,3.9029,3.9149,3.9657,4.0619,4.0523,4.0499,4.0643,4.0599,4.0379,4.0331,4.0355,4.0331,4.0355,4.0162,3.9994,3.9946,3.9801,3.9537,3.9245,3.896,3.8647,3.1226,3.1157,3.0864,3.0736,3.0736,3.0736,3.0736,3.0736,3.0754,3.0799,3.0843,3.0492,3.0332,3.0332,3.0424,3.0648,3.099,3.1332,3.1813,3.2411,3.2774,3.3105,3.3367,3.3386,3.3386,3.3386,3.3386,3.3445,3.3555,3.3574,3.3574,3.3523,3.3445,3.3386,3.3386,3.3386,3.3386,3.3386,3.3386,3.3386,3.3418,3.4434,3.4434,3.3576,3.4383,3.4465,3.3449,3.3386,3.3386,3.3386,3.3386,3.3386,3.3386,3.3386,3.3386,3.3386,3.3386,3.3386,3.3386,3.3386,3.3386,3.3386,3.3386,3.3386,3.3367,3.3094,3.293,3.293,3.293,3.293,3.3046,3.3781,3.387,3.3174,3.5155,3.6603,3.6267,3.7399,3.8297,3.8496,3.8694,3.8743,3.819,3.8094,3.8118,3.8024,3.8,3.8,3.8,3.8,3.8,3.8,3.8,3.8238,3.908,3.9032,3.9345,4.0523,4.0114,3.9922,4.009,3.9946,3.9753,3.9777,3.9922,3.9946,3.9753,3.9777,3.9777,3.9729,3.9633,3.9489,3.9152,3.8671,3.8286,3.2423,3.2423,3.2331,3.2368,3.2313,3.2331,3.2313,3.2313,3.2368,3.2567,3.2664,3.1391,3.0786,3.0791,3.1185,3.151,3.183,3.2149,3.2518,3.2873,3.3202,3.3347,3.3425,3.3406,3.3386,3.3406,3.3425,3.3672,3.4004,3.4036,3.4036,3.3997,3.3613,3.3386,3.3386,3.3386,3.3386,3.3386,3.3386,3.3386,3.3386,3.3513,3.3513,3.3418,3.3513,3.3544,3.3386,3.3386,3.3386,3.3386,3.3386,3.3386,3.3386,3.3386,3.3386,3.3386,3.3386,3.3386,3.3386,3.3386,3.3386,3.3386,3.3386,3.3386,3.3386,3.3347,3.3359,3.334,3.3308,3.3308,3.3391,3.4417,3.4964,3.4974,3.7068,3.825,3.7141,3.8666,3.939,3.7243,3.8623,3.9152,3.8262,3.8334,3.8455,3.8022,3.8072,3.8096,3.8096,3.8169,3.8169,3.8096,3.8048,3.807,3.831,3.8575,3.8912,3.9176,3.9393,3.9513,3.9657,3.9922,4.0162,3.9417,4.0114,4.0234,3.985,3.9922,3.9994,3.9465,3.9417,3.9513,3.9441,3.9008,3.8575,3.2973,3.2955,3.2698,3.2606,3.2606,3.2606,3.2606,3.2606,3.2606,3.2688,3.2751,3.214,3.2083,3.2525,3.2693,3.2945,3.3272,3.3402,3.3662,3.3953,3.4115,3.418,3.418,3.418,3.418,3.418,3.418,3.4258,3.4407,3.4231,3.3977,3.3691,3.3464,3.3386,3.3386,3.3386,3.3386,3.3386,3.3386,3.3386,3.3386,3.3386,3.3386,3.3386,3.3386,3.3386,3.3386,3.3386,3.3386,3.3386,3.3386,3.3386,3.3386,3.3386,3.3386,3.3386,3.3386,3.3386,3.3386,3.3386,3.3386,3.3386,3.3386,3.3386,3.3386,3.3386,3.3386,3.3386,3.3386,3.3386,3.3449,3.3902,3.4528,3.5407,3.7037,3.803,3.8206,3.9697,4.0196,3.8828,3.9109,3.9224,3.8286,3.8193,3.8241,3.8096,3.8238,3.8455,3.8479,3.8743,3.8912,3.8936,3.8936,3.8791,3.8575,3.831,3.8623,3.9008,3.8888,3.8695,3.9152,3.8936,3.8891,3.8743,3.9345,3.9516,3.8695,3.8767,3.8864,3.8743,3.8671,3.8647,3.8647,3.8479,3.8214,3.336,3.3306,3.3046,3.2936,3.2936,3.2936,3.2918,3.297,3.3038,3.312,3.3221,3.3322,3.3726,3.4208,3.3818,3.3785,3.4181,3.4214,3.4379,3.4655,3.4687,3.4687,3.4687,3.4687,3.4687,3.4687,3.4668,3.4766,3.4844,3.4622,3.4277,3.3984,3.3796,3.3738,3.3738,3.3738,3.3769,3.3769,3.3672,3.3594,3.3594,3.3464,3.3386,3.3386,3.3386,3.3386,3.3386,3.3386,3.3386,3.3386,3.3386,3.3386,3.3386,3.3386,3.3386,3.3386,3.3386,3.3386,3.3386,3.3386,3.3386,3.3386,3.3386,3.3386,3.3386,3.3386,3.3386,3.3386,3.3386,3.3386,3.3386,3.3386,3.3859,3.4788,3.6001,3.7188,3.7977,3.9562,4.0244,3.9466,3.9686,3.9705,3.8915,3.8599,3.8527,3.8575,3.8815,3.9029,3.9053,3.9345,3.9561,3.9609,3.9585,3.9413,3.908,3.8815,3.8888,3.9104,3.896,3.8767,3.9029,3.8815,3.8794,3.9537,3.9107,3.8987,3.9224,3.896,3.8599,3.8503,3.8551,3.8623,3.877,3.8506,3.8479,3.3764,3.378,3.3762,3.3707,3.3743,3.3725,3.3743,3.367,3.4105,3.4433,3.4686,3.5066,3.5529,3.569,3.4103,3.3624,3.4187,3.4305,3.4489,3.4785,3.4766,3.4707,3.4687,3.4687,3.4726,3.4824,3.4824,3.498,3.5312,3.5312,3.5332,3.5234,3.4766,3.4609,3.457,3.4551,3.4629,3.4512,3.4219,3.4043,3.4036,3.3652,3.3445,3.3464,3.3386,3.3386,3.3386,3.3386,3.3386,3.3386,3.3386,3.3386,3.3386,3.3386,3.3386,3.3386,3.3386,3.3386,3.3386,3.3386,3.3386,3.3386,3.3386,3.3386,3.3386,3.3386,3.3437,3.3406,3.3445,3.3425,3.3484,3.3445,3.3595,3.4024,3.4922,3.5705,3.6003,3.8634,3.8951,3.8995,3.9974,4.0442,4.0162,3.985,3.9465,3.9417,3.9513,3.9585,3.9585,3.9633,3.9729,3.9753,3.9729,3.9633,3.9557,3.9345,3.9393,3.9513,3.9441,3.9465,3.9898,4.0186,4.0282,4.0523,4.0768,4.072,4.0427,4.0138,3.9826,3.9729,3.9777,3.9777,3.9396,3.9465,3.9369,3.3817,3.3817,3.3817,3.3817,3.3817,3.3817,3.3817,3.3817,3.3955,3.4232,3.4577,3.4749,3.5127,3.5641,3.4992,3.4907,3.5345,3.5345,3.5412,3.5513,3.5547,3.5547,3.5547,3.5513,3.5547,3.5513,3.5513,3.5488,3.5391,3.5391,3.5234,3.498,3.4805,3.4687,3.4687,3.4687,3.4687,3.4687,3.4531,3.4473,3.4473,3.4316,3.4238,3.4219,3.3711,3.3386,3.3386,3.3386,3.3386,3.3386,3.3386,3.3386,3.3386,3.3386,3.3386,3.3386,3.3386,3.3386,3.3386,3.3386,3.3386,3.3386,3.3386,3.3406,3.3386,3.3386,3.3535,3.3769,3.3828,3.3926,3.4062,3.3769,3.4241,3.607,3.6815,3.7754,3.9719,4.0954,4.1176,4.0424,4.0349,4.0038,4.0042,3.9729,3.9609,3.9633,3.9898,4.009,4.0162,4.0379,4.0547,4.0619,4.0619,4.0619,4.0619,3.997,3.9609,3.9609,3.9609,3.9826,4.0162,4.0403,4.0499,4.0912,4.1514,4.1461,4.0836,4.0763,4.0571,4.0475,4.0571,4.0715,4.0138,4.0138,3.9874,3.4202,3.4167,3.4167,3.4167,3.4202,3.4342,3.4377,3.4394,3.4657,3.4826,3.4976,3.5095,3.533,3.5626,3.566,3.5777,3.5982,3.5982,3.6035,3.6035,3.6035,3.6035,3.6035,3.6035,3.6035,3.5982,3.6035,3.5859,3.5625,3.5605,3.543,3.5156,3.5117,3.5117,3.5117,3.5117,3.5117,3.5117,3.5,3.4922,3.4922,3.4785,3.4687,3.4609,3.4108,3.3796,3.3828,3.3711,3.3633,3.3613,3.3496,3.3386,3.3386,3.3386,3.3386,3.3386,3.3386,3.3386,3.3406,3.3555,3.3633,3.3652,3.3769,3.3828,3.3828,3.3796,3.3984,3.4199,3.4277,3.4414,3.4512,3.416,3.4724,3.6614,3.7002,3.795,4.0236,4.0982,4.1334,4.1325,4.0903,4.0427,4.0162,4.0138,4.0162,4.0114,4.0451,4.0643,4.0715,4.0932,4.1196,4.1196,4.1124,4.11,4.1028,4.0547,4.0306,4.0282,4.0186,4.0331,4.0499,4.0691,4.0956,4.1345,4.1514,4.1466,4.1389,4.1317,4.1244,4.1148,4.1509,4.187,4.1268,4.0715,4.0499,3.4918,3.4863,3.4954,3.4826,3.4807,3.5091,3.547,3.5448,3.6091,3.6055,3.5908,3.6363,3.6277,3.6138,3.6103,3.606,3.6118,3.6133,3.604,3.6035,3.6035,3.6035,3.6035,3.6035,3.6035,3.6035,3.6035,3.6016,3.5976,3.5923,3.5937,3.5976,3.5898,3.5859,3.5942,3.5898,3.5923,3.5859,3.5547,3.5391,3.5351,3.5019,3.4824,3.4805,3.4726,3.4707,3.4687,3.4329,3.4095,3.4075,3.3711,3.3425,3.3503,3.3503,3.3476,3.3503,3.3445,3.3425,3.3484,3.3867,3.4114,3.4153,3.4414,3.4551,3.4531,3.4551,3.4609,3.4707,3.4707,3.4746,3.4785,3.4746,3.4851,3.4851,3.5581,3.6213,3.7045,3.802,3.9638,4.1502,4.1851,4.173,4.1369,4.1129,4.1105,4.1129,4.1177,4.1177,4.1129,4.1249,4.1249,4.1196,4.1196,4.1196,4.1196,4.1172,4.1148,4.11,4.098,4.1004,4.1177,4.1369,4.161,4.1947,4.2188,4.2188,4.2399,4.2375,4.2519,4.2519,4.2856,4.2735,4.211,4.1538,4.1321,3.4183,3.4183,3.4167,3.4183,3.4183,3.4323,3.4498,3.478,3.5058,3.5466,3.6058,3.6307,3.6556,3.6844,3.6894,3.6875,3.6875,3.6601,3.6309,3.6055,3.6035,3.6035,3.6035,3.6035,3.6035,3.6035,3.6035,3.6035,3.6035,3.6035,3.6035,3.6035,3.6035,3.6035,3.6035,3.6035,3.6035,3.5962,3.5898,3.582,3.582,3.5684,3.5605,3.5605,3.5572,3.5572,3.5533,3.4902,3.4531,3.4492,3.4375,3.4297,3.4297,3.4297,3.4316,3.4297,3.4297,3.4297,3.4316,3.4414,3.4512,3.4531,3.4648,3.4687,3.4687,3.4726,3.4863,3.5117,3.5176,3.5273,3.5527,3.5572,3.5783,3.6562,3.7436,3.8306,3.9499,4.0995,4.2033,4.2377,4.2549,4.2308,4.1923,4.1755,4.1755,4.1755,4.1755,4.1682,4.1369,4.1538,4.1562,4.1321,4.1273,4.1273,4.1345,4.1341,4.1369,4.1293,4.1244,4.1273,4.149,4.1803,4.2091,4.2452,4.2717,4.2982,4.3192,4.3361,4.3409,4.3409,4.3337,4.3048,4.2645,4.2284,4.1947,3.4697,3.4697,3.4839,3.491,3.4964,3.5194,3.5496,3.5746,3.5901,3.6199,3.6556,3.6605,3.6653,3.6805,3.6816,3.6816,3.6797,3.6543,3.6289,3.6021,3.6035,3.6035,3.6035,3.6035,3.6035,3.6035,3.6035,3.6035,3.6035,3.6035,3.6035,3.6035,3.6035,3.6035,3.6035,3.6035,3.6035,3.6035,3.6016,3.6035,3.6035,3.6035,3.6035,3.6016,3.6016,3.6035,3.5976,3.5469,3.5117,3.4961,3.4805,3.4707,3.4687,3.4687,3.4687,3.4687,3.4687,3.4687,3.4707,3.4844,3.4961,3.498,3.5098,3.5195,3.5195,3.5195,3.5351,3.5566,3.5625,3.5742,3.5923,3.6016,3.6319,3.6863,3.7509,3.8924,4.0471,4.1505,4.2101,4.2164,4.2693,4.2724,4.2452,4.2284,4.2308,4.2284,4.2284,4.2116,4.1755,4.1779,4.161,4.149,4.1514,4.1514,4.1514,4.1538,4.1538,4.1437,4.1341,4.1369,4.1442,4.1803,4.2116,4.276,4.3144,4.3409,4.3673,4.3763,4.3835,4.3811,4.3697,4.3529,4.3168,4.2669,4.2284,3.6109,3.6183,3.6497,3.6459,3.6551,3.7174,3.7334,3.7707,3.8054,3.7753,3.7335,3.7284,3.6965,3.6372,3.6582,3.6582,3.623,3.6367,3.6352,3.6255,3.6196,3.6191,3.6133,3.6133,3.6113,3.6035,3.6035,3.6035,3.6035,3.6035,3.6035,3.6035,3.6035,3.6035,3.6035,3.6035,3.6035,3.6035,3.6035,3.6035,3.6035,3.6035,3.6035,3.6035,3.6035,3.6035,3.5996,3.5918,3.5762,3.543,3.5078,3.4902,3.4805,3.4766,3.4863,3.4883,3.4805,3.4844,3.4902,3.5215,3.543,3.5449,3.5703,3.6016,3.5898,3.584,3.5859,3.5937,3.5957,3.5962,3.6016,3.6035,3.6064,3.603,3.6594,3.7354,3.82,3.9325,4.0332,4.1333,4.2449,4.3149,4.2496,4.2544,4.2634,4.2837,4.2813,4.2549,4.2116,4.1923,4.1755,4.1634,4.1562,4.1538,4.1466,4.1466,4.1466,4.1418,4.1365,4.1466,4.1586,4.1947,4.238,4.3,4.3451,4.3763,4.4003,4.4075,4.4051,4.3883,4.3859,4.3907,4.3481,4.2741,4.2332,3.5302,3.5339,3.5447,3.5447,3.5556,3.6025,3.626,3.6353,3.7034,3.7432,3.7402,3.7692,3.7776,3.7891,3.7812,3.791,3.7676,3.748,3.7386,3.7347,3.709,3.6777,3.6543,3.6504,3.6348,3.606,3.6113,3.6035,3.6035,3.6074,3.6055,3.6035,3.6001,3.6035,3.6035,3.6035,3.6035,3.6035,3.6035,3.6035,3.6035,3.6035,3.6035,3.6035,3.6035,3.6035,3.6035,3.6035,3.5962,3.5879,3.5728,3.5664,3.5591,3.5605,3.5586,3.5605,3.5625,3.5644,3.5664,3.5762,3.584,3.5825,3.5937,3.6016,3.6035,3.6035,3.6035,3.6035,3.6035,3.6035,3.6035,3.6035,3.6035,3.6118,3.6708,3.7809,3.9047,3.9823,4.0047,4.0059,4.0673,4.1311,4.1746,4.1893,4.2192,4.2834,4.2999,4.2922,4.2269,4.2263,4.2174,4.1576,4.1369,4.1369,4.1369,4.1369,4.1345,4.1321,4.1394,4.1557,4.1875,4.2284,4.2789,4.3337,4.3577,4.3835,4.41,4.4268,4.4124,4.3979,4.3835,4.3739,4.2928,4.2188,4.2043,3.5486,3.5522,3.5704,3.5759,3.5813,3.6357,3.6574,3.6739,3.7272,3.7581,3.7667,3.7858,3.7986,3.8047,3.8044,3.8063,3.7988,3.7773,3.7637,3.7637,3.7559,3.7305,3.7012,3.6934,3.6797,3.6601,3.6543,3.6562,3.6543,3.6387,3.6289,3.6269,3.606,3.6035,3.6035,3.6035,3.6035,3.6035,3.6035,3.6035,3.6035,3.6035,3.6035,3.6035,3.6035,3.6035,3.6035,3.6035,3.6035,3.6016,3.6016,3.6035,3.6035,3.6035,3.6035,3.6035,3.6035,3.6016,3.6035,3.6035,3.6035,3.5982,3.6035,3.6035,3.6035,3.6035,3.6035,3.6035,3.6035,3.6035,3.6035,3.6035,3.6035,3.6084,3.6742,3.7595,3.8407,3.8849,3.9105,3.914,3.9639,4.0353,4.0918,4.0959,4.1339,4.1811,4.1842,4.1994,4.2122,4.2383,4.2617,4.2162,4.2292,4.2687,4.2639,4.2567,4.2279,4.211,4.199,4.2062,4.238,4.2789,4.3096,4.3529,4.3721,4.3859,4.4027,4.4196,4.4244,4.4075,4.3859,4.3595,4.2976,4.2332,4.2116,3.6201,3.6238,3.6627,3.6812,3.6849,3.7605,3.773,3.7934,3.8207,3.8195,3.7997,3.7936,3.7933,3.7422,3.7754,3.7519,3.7519,3.7656,3.7578,3.7676,3.7793,3.7793,3.7539,3.7383,3.7285,3.7187,3.7285,3.7226,3.709,3.6855,3.6773,3.668,3.6367,3.6177,3.6269,3.6191,3.6094,3.6113,3.6021,3.6001,3.6035,3.6035,3.6035,3.6035,3.6035,3.6035,3.6035,3.6035,3.6035,3.6035,3.6035,3.6035,3.6035,3.6035,3.6035,3.6035,3.6035,3.6035,3.6035,3.6035,3.6035,3.6035,3.6035,3.6035,3.6035,3.6035,3.6035,3.6035,3.6035,3.6035,3.6035,3.6035,3.6035,3.6016,3.6084,3.6035,3.6259,3.7166,3.7909,3.8096,3.9233,3.9724,4.0214,4.0171,4.0269,4.1455,4.1355,4.1466,4.1902,4.2299,4.2747,4.3103,4.361,4.4436,4.422,4.3931,4.3547,4.3241,4.3048,4.3048,4.3192,4.3481,4.3577,4.3746,4.3721,4.3721,4.3794,4.3931,4.4051,4.3811,4.3385,4.3619,4.3763,4.3048,4.2645,3.6201,3.6238,3.6608,3.6812,3.6886,3.7347,3.7513,3.7586,3.7972,3.8134,3.8057,3.8328,3.8359,3.8298,3.8259,3.8337,3.8259,3.8223,3.8337,3.832,3.8415,3.8435,3.8203,3.7949,3.7617,3.7441,3.7324,3.7324,3.7285,3.7266,3.7168,3.7129,3.7012,3.7012,3.6934,3.6641,3.6558,3.6465,3.6211,3.6021,3.6035,3.6035,3.6035,3.6035,3.6035,3.6035,3.6035,3.6035,3.6035,3.6035,3.6035,3.6035,3.6035,3.6035,3.6035,3.6035,3.6035,3.6035,3.6035,3.6035,3.6035,3.6035,3.6035,3.6035,3.6035,3.6035,3.6035,3.6035,3.6035,3.6035,3.6035,3.6035,3.604,3.6094,3.606,3.6177,3.6455,3.6538,3.7038,3.7751,3.7841,3.8262,4.0219,3.9694,4.0002,4.0883,4.1052,4.1076,4.1496,4.1963,4.2548,4.3051,4.4127,4.469,4.4412,4.4323,4.446,4.4244,4.4124,4.4178,4.4323,4.4178,4.4268,4.3979,4.3601,4.3673,4.3962,4.3457,4.3529,4.3168,4.2952,4.3144,4.3241,4.3054,4.303,3.6201,3.6201,3.6442,3.6627,3.6849,3.7218,3.7532,3.7752,3.8119,3.8265,3.8338,3.8501,3.8611,3.8611,3.8611,3.8611,3.8611,3.8611,3.8611,3.8591,3.8611,3.8611,3.8591,3.8379,3.8086,3.7891,3.791,3.7891,3.7851,3.7695,3.7562,3.7559,3.7422,3.7246,3.7285,3.707,3.689,3.6695,3.6465,3.625,3.6021,3.6035,3.6035,3.6035,3.6035,3.6035,3.6035,3.6035,3.6035,3.6035,3.6035,3.6035,3.6035,3.6035,3.6035,3.6035,3.6035,3.6035,3.6035,3.6035,3.6035,3.6035,3.6035,3.6035,3.6035,3.6035,3.6035,3.6035,3.6035,3.6035,3.6035,3.6269,3.6309,3.6367,3.6504,3.6719,3.6836,3.6582,3.6632,3.7402,3.7371,3.7797,3.8456,3.8902,3.8763,3.9185,3.9185,3.9296,4.0583,4.1158,4.1955,4.2761,4.4075,4.4645,4.4392,4.4555,4.5173,4.5157,4.5205,4.5405,4.5621,4.5333,4.5013,4.4604,4.4244,4.4275,4.4395,4.3746,4.3241,4.3241,4.3144,4.2862,4.2717,4.2886,4.2934,3.6201,3.6201,3.6275,3.6516,3.6923,3.7274,3.7679,3.8119,3.8375,3.8465,3.8611,3.8611,3.8611,3.8611,3.8611,3.8611,3.8611,3.8611,3.8611,3.8611,3.8611,3.8611,3.8591,3.8571,3.8496,3.8611,3.8513,3.8532,3.8398,3.8242,3.8027,3.7969,3.7715,3.7578,3.7461,3.7383,3.7148,3.6738,3.6656,3.6406,3.606,3.6035,3.6035,3.6035,3.6035,3.6035,3.6035,3.6035,3.6035,3.6035,3.6035,3.6035,3.6035,3.6035,3.6035,3.6035,3.6035,3.6035,3.6035,3.6035,3.6035,3.6035,3.6035,3.6035,3.6035,3.6035,3.6035,3.6021,3.606,3.623,3.623,3.6543,3.6773,3.6851,3.709,3.7305,3.7324,3.7051,3.7245,3.7654,3.7687,3.7927,3.8091,3.8372,3.7873,3.7516,3.7551,3.7858,3.9247,4.0395,4.1233,4.2072,4.3263,4.4446,4.4337,4.3487,4.4272,4.5524,4.5732,4.6003,4.6388,4.6415,4.5974,4.5445,4.5157,4.5037,4.4628,4.3979,4.3619,4.3571,4.3385,4.3096,4.2982,4.2916,4.2837,3.6201,3.6238,3.659,3.6923,3.7255,3.7384,3.777,3.8375,3.8192,3.8302,3.8538,3.8574,3.8538,3.8574,3.8574,3.8611,3.8574,3.8574,3.8574,3.8611,3.8611,3.8611,3.8611,3.8611,3.8611,3.8611,3.8611,3.8611,3.8611,3.8496,3.8398,3.8418,3.834,3.8164,3.7891,3.7738,3.7367,3.6836,3.6699,3.6411,3.6133,3.6035,3.6035,3.6035,3.6035,3.6035,3.6035,3.6035,3.6035,3.6035,3.6035,3.6035,3.6035,3.6035,3.6035,3.6035,3.6035,3.6035,3.6035,3.6035,3.6035,3.6035,3.6035,3.6035,3.6035,3.6035,3.6055,3.6172,3.6406,3.668,3.7051,3.7129,3.7168,3.7226,3.7324,3.75,3.7715,3.7806,3.7948,3.8452,3.8259,3.824,3.8671,3.8999,3.8989,3.8775,3.8636,3.837,3.8799,3.983,4.0649,4.1468,4.233,4.344,4.4318,4.3107,4.295,4.4962,4.5602,4.5865,4.6324,4.7092,4.6959,4.6262,4.5614,4.5205,4.4748,4.434,4.4027,4.3931,4.3643,4.3409,4.3168,4.3006,4.2958,3.6201,3.6201,3.6386,3.6701,3.7034,3.7071,3.7439,3.788,3.7789,3.777,3.7916,3.799,3.799,3.8026,3.8228,3.8355,3.8501,3.8375,3.8392,3.8538,3.8611,3.8611,3.8611,3.8611,3.8611,3.8611,3.8611,3.8611,3.8611,3.8611,3.8611,3.8611,3.8611,3.8493,3.8206,3.7792,3.7455,3.7,3.6603,3.6312,3.604,3.6021,3.6001,3.6001,3.6035,3.6035,3.6035,3.6035,3.6035,3.6035,3.6035,3.6035,3.6035,3.6035,3.6035,3.6035,3.6035,3.6035,3.6035,3.6035,3.6035,3.6035,3.6035,3.6035,3.6035,3.6035,3.6113,3.6421,3.6719,3.707,3.7266,3.748,3.7598,3.7656,3.7793,3.8008,3.8184,3.8242,3.8569,3.9081,3.9369,3.9582,4.0156,4.0365,4.0346,4.0141,3.971,3.9261,3.8793,3.9172,3.9998,4.0356,4.112,4.2239,4.312,4.2489,4.2124,4.3973,4.501,4.5272,4.606,4.6703,4.7016,4.6872,4.6214,4.571,4.5614,4.5469,4.4893,4.4364,4.4364,4.4172,4.3505,4.315,4.3174,3.6201,3.6201,3.6201,3.6423,3.6775,3.6812,3.7034,3.7329,3.7402,3.7402,3.7365,3.7402,3.7439,3.7495,3.7752,3.8026,3.8319,3.8009,3.8045,3.8246,3.8392,3.8465,3.8465,3.8574,3.8611,3.8611,3.8611,3.8611,3.8611,3.8611,3.8611,3.8611,3.8611,3.846,3.8195,3.7822,3.7452,3.6939,3.6617,3.6213,3.618,3.6132,3.6142,3.6118,3.6118,3.6133,3.6035,3.6035,3.6035,3.6035,3.6035,3.6035,3.6035,3.6035,3.6035,3.6035,3.6035,3.6035,3.6035,3.6035,3.6035,3.6035,3.6035,3.6035,3.6035,3.6074,3.6191,3.6656,3.6929,3.7168,3.7305,3.7621,3.7851,3.7933,3.8242,3.8591,3.8552,3.8552,3.8532,3.9177,4.0105,4.0279,4.0203,4.0167,3.989,4.0177,3.9818,3.9782,3.9317,3.872,3.91,3.9172,3.9802,4.0977,4.1615,4.17,4.1858,4.3218,4.3753,4.3877,4.5039,4.6191,4.6461,4.6831,4.704,4.6599,4.6599,4.6463,4.5854,4.5445,4.5349,4.4965,4.4268,4.3842,4.3697,3.6201,3.6201,3.6201,3.6423,3.6775,3.6775,3.6997,3.7329,3.7329,3.7365,3.7292,3.7347,3.7347,3.7365,3.7384,3.7495,3.7549,3.7513,3.7568,3.7733,3.7936,3.8082,3.8119,3.8428,3.8465,3.8501,3.8538,3.8611,3.8611,3.8611,3.8611,3.8611,3.8555,3.8309,3.7897,3.7718,3.7328,3.6558,3.6563,3.663,3.655,3.656,3.6526,3.6541,3.6528,3.6391,3.6084,3.6079,3.6074,3.6035,3.6035,3.6035,3.6035,3.6035,3.6035,3.6035,3.6035,3.6035,3.6035,3.6035,3.6035,3.6035,3.6035,3.6035,3.6035,3.6094,3.6269,3.6656,3.6812,3.6973,3.7305,3.7621,3.7816,3.8027,3.8203,3.8437,3.8535,3.8611,3.8611,3.8865,3.9658,3.9442,3.9241,3.9261,3.9317,3.9694,3.9962,3.9926,3.9658,3.8955,3.8611,3.8793,3.8882,3.9946,4.0356,4.0392,4.0942,4.2193,4.2508,4.26,4.3656,4.488,4.6147,4.6522,4.6808,4.7182,4.7136,4.692,4.6655,4.6309,4.5875,4.5494,4.5053,4.4669,4.4092,3.6201,3.6201,3.6201,3.6275,3.6423,3.6479,3.6553,3.6701,3.6738,3.6738,3.6738,3.6738,3.6849,3.6997,3.6849,3.6997,3.7274,3.7163,3.7181,3.7329,3.7568,3.7642,3.7679,3.7862,3.8009,3.8265,3.8302,3.8428,3.8501,3.8574,3.8611,3.8611,3.8574,3.8479,3.7825,3.7534,3.7234,3.684,3.6582,3.6377,3.6387,3.6366,3.6379,3.6365,3.6591,3.6429,3.6189,3.6318,3.623,3.6113,3.6035,3.6035,3.6035,3.6035,3.6035,3.6035,3.6035,3.6035,3.6035,3.6035,3.6035,3.6035,3.6035,3.6035,3.6074,3.623,3.6406,3.6675,3.6894,3.709,3.7207,3.7441,3.7519,3.7695,3.7949,3.8144,3.832,3.8571,3.8647,3.8918,3.91,3.8918,3.9063,3.9854,4.0033,4.0105,4.0105,3.9838,3.9442,3.8809,3.8611,3.8611,3.872,3.8991,3.9172,3.9281,3.9389,4.0392,4.1297,4.1545,4.2193,4.3309,4.4607,4.5583,4.5875,4.6402,4.7174,4.7353,4.7064,4.6696,4.6286,4.5722,4.5161,4.4396,4.3927,3.6201,3.6201,3.6201,3.6201,3.6201,3.6201,3.6201,3.6201,3.6238,3.6201,3.6201,3.6238,3.6405,3.6553,3.6442,3.6553,3.7034,3.6775,3.6849,3.7034,3.7181,3.7255,3.7292,3.7365,3.7605,3.7862,3.7862,3.7953,3.8136,3.8282,3.8319,3.8574,3.8428,3.8299,3.8022,3.7431,3.6857,3.682,3.6412,3.6263,3.6334,3.6315,3.6312,3.6396,3.648,3.6502,3.6112,3.6294,3.6307,3.5977,3.5947,3.5982,3.6035,3.6035,3.6035,3.6035,3.6035,3.6035,3.6035,3.6035,3.6035,3.6035,3.6035,3.6035,3.6021,3.6367,3.6504,3.6465,3.666,3.6836,3.6992,3.7031,3.7148,3.7285,3.7519,3.7715,3.793,3.8164,3.8474,3.872,3.8829,3.8756,3.9245,4.055,4.0942,4.0728,4.0336,3.9766,3.9245,3.8683,3.8611,3.8611,3.8611,3.8683,3.8683,3.8683,3.8611,3.8829,3.9766,4.0571,4.1297,4.1982,4.2997,4.3863,4.4744,4.5617,4.6382,4.6974,4.744,4.713,4.668,4.5809,4.5082,4.4267,4.4113,3.6201,3.6201,3.6201,3.6201,3.6201,3.6201,3.6201,3.6201,3.6201,3.6201,3.6201,3.6201,3.6201,3.6238,3.6238,3.6238,3.6312,3.6256,3.6367,3.6479,3.6627,3.6812,3.6923,3.7107,3.7329,3.7421,3.7439,3.7439,3.7513,3.7696,3.8026,3.8465,3.8155,3.7826,3.753,3.7124,3.6626,3.6552,3.622,3.6349,3.6515,3.6606,3.6623,3.667,3.6702,3.6434,3.5638,3.6045,3.617,3.5785,3.5894,3.6079,3.6118,3.6055,3.6035,3.6035,3.6035,3.6035,3.6035,3.6035,3.6035,3.6035,3.6035,3.6035,3.6001,3.6035,3.6094,3.6152,3.6328,3.6269,3.6348,3.6426,3.668,3.6836,3.707,3.7363,3.7578,3.7793,3.8086,3.8474,3.8571,3.8476,3.8611,3.9766,4.0284,4.0033,3.9694,3.9136,3.9027,3.8611,3.8611,3.8611,3.8611,3.8611,3.8611,3.8611,3.8611,3.8611,3.91,3.9838,4.0499,4.1155,4.1474,4.2613,4.3587,4.4607,4.5583,4.6214,4.6774,4.7274,4.696,4.5771,4.4879,4.4131,4.4536,3.6201,3.6201,3.6201,3.6201,3.6201,3.6201,3.6201,3.6201,3.6201,3.6201,3.6201,3.6201,3.6201,3.6201,3.6201,3.6201,3.6201,3.6201,3.6201,3.6238,3.6349,3.6423,3.6497,3.6627,3.6775,3.6997,3.7034,3.7181,3.7402,3.7292,3.7476,3.7696,3.7679,3.7586,3.7292,3.696,3.659,3.6312,3.6201,3.6312,3.6349,3.6423,3.6423,3.6423,3.6735,3.6491,3.6095,3.6342,3.6341,3.6243,3.6128,3.6219,3.6294,3.6172,3.6055,3.6035,3.6035,3.6035,3.6035,3.6035,3.6035,3.6035,3.6035,3.6035,3.6035,3.6035,3.6035,3.6035,3.6035,3.6035,3.6094,3.6172,3.6289,3.6387,3.6601,3.6953,3.7226,3.7422,3.7715,3.8066,3.8203,3.8242,3.8418,3.872,3.9063,3.9225,3.8846,3.8611,3.8611,3.8611,3.8611,3.8611,3.8611,3.8611,3.8611,3.8611,3.8611,3.8611,3.8611,3.9136,3.9694,3.9405,3.9946,4.1191,4.2228,4.2962,4.3932,4.5244,4.6113,4.6808,4.6348,4.5323,4.4562,4.3925,4.4357,3.6201,3.6201,3.6201,3.6201,3.6201,3.6201,3.6201,3.6201,3.6201,3.6201,3.6201,3.6201,3.6201,3.6201,3.6201,3.6201,3.6201,3.6201,3.6201,3.6201,3.6201,3.6201,3.6201,3.6238,3.6423,3.659,3.6664,3.6775,3.696,3.7034,3.7034,3.7034,3.7034,3.7034,3.7107,3.6812,3.6479,3.6275,3.6201,3.6201,3.6201,3.6201,3.6238,3.6256,3.646,3.6331,3.6161,3.6247,3.6474,3.6417,3.6377,3.6429,3.6463,3.6406,3.6138,3.604,3.6035,3.6035,3.6035,3.6035,3.6035,3.6035,3.6035,3.6035,3.6035,3.6035,3.6035,3.6035,3.6035,3.6035,3.6035,3.6074,3.6094,3.6211,3.6269,3.6562,3.6797,3.7031,3.7344,3.7656,3.7832,3.8066,3.8242,3.8437,3.87,3.8918,3.8793,3.8611,3.8611,3.8611,3.8611,3.8611,3.8611,3.8611,3.8611,3.8611,3.8611,3.8611,3.8611,3.8611,3.8829,3.8611,3.872,3.9802,4.0693,4.1261,4.2298,4.3621,4.5051,4.6449,4.5448,4.4173,4.4001,4.3429,4.3624,3.6201,3.6201,3.6201,3.6201,3.6201,3.6201,3.6201,3.6201,3.6201,3.6201,3.6201,3.6201,3.6201,3.6201,3.6201,3.6201,3.6201,3.6201,3.6201,3.6201,3.6201,3.6201,3.6201,3.6201,3.6238,3.6201,3.6275,3.6349,3.6312,3.6423,3.6386,3.6349,3.646,3.6553,3.6738,3.6442,3.6201,3.6201,3.6201,3.6201,3.6201,3.6201,3.6201,3.6201,3.6238,3.6128,3.6054,3.6145,3.6377,3.6527,3.6603,3.6691,3.684,3.6699,3.6426,3.6133,3.6055,3.6035,3.6035,3.6035,3.6035,3.6035,3.6035,3.6035,3.6035,3.6035,3.6035,3.6035,3.6035,3.6035,3.6035,3.6035,3.6035,3.6055,3.6133,3.6211,3.6465,3.6601,3.6894,3.7207,3.7598,3.793,3.8086,3.8262,3.8513,3.8627,3.8611,3.8611,3.8611,3.8611,3.8611,3.8611,3.8611,3.8611,3.8611,3.8611,3.8611,3.8611,3.8611,3.8611,3.8611,3.8611,3.8756,3.8955,3.9478,4.0284,4.112,4.2052,4.3309,4.4333,4.3794,4.2962,4.2892,4.2857,4.2823,3.6201,3.6201,3.6201,3.6201,3.6201,3.6201,3.6201,3.6201,3.6201,3.6201,3.6201,3.6201,3.6201,3.6201,3.6201,3.6201,3.6201,3.6201,3.6201,3.6201,3.6201,3.6201,3.6201,3.6201,3.6201,3.6201,3.6201,3.6201,3.6238,3.6201,3.6201,3.6201,3.6201,3.6275,3.6367,3.6256,3.6201,3.6201,3.6201,3.6201,3.6201,3.6201,3.6201,3.6201,3.6201,3.6109,3.5981,3.6146,3.6366,3.6763,3.6901,3.6976,3.7183,3.7109,3.6656,3.6367,3.625,3.6035,3.6035,3.6035,3.6035,3.6035,3.6035,3.6035,3.6035,3.6035,3.6035,3.6035,3.6035,3.6035,3.6035,3.6035,3.6035,3.6035,3.6074,3.604,3.6157,3.623,3.6387,3.6719,3.709,3.7539,3.7812,3.8047,3.8281,3.8532,3.8552,3.8611,3.8611,3.8611,3.8611,3.8611,3.8611,3.8611,3.8611,3.8611,3.8611,3.8611,3.8611,3.8611,3.8611,3.8611,3.8647,3.8793,3.9063,3.9405,4.0033,4.0693,4.1368,4.1806,4.163,4.1559,4.1453,4.1474,4.1474,3.6201,3.6201,3.6201,3.6201,3.6201,3.6201,3.6201,3.6201,3.6201,3.6201,3.6201,3.6201,3.6201,3.6201,3.6201,3.6201,3.6201,3.6201,3.6201,3.6201,3.6201,3.6201,3.6201,3.6201,3.6201,3.6201,3.6201,3.6201,3.6201,3.6201,3.6201,3.6201,3.6201,3.6201,3.6201,3.6201,3.6201,3.6201,3.6201,3.6201,3.6201,3.6201,3.6201,3.6201,3.6201,3.6182,3.6201,3.6312,3.6497,3.694,3.7175,3.7219,3.7416,3.7273,3.6855,3.6656,3.6289,3.6074,3.6035,3.6035,3.6035,3.6035,3.6035,3.6035,3.6035,3.6035,3.6035,3.6035,3.6035,3.6035,3.6035,3.6035,3.6035,3.6035,3.6001,3.6001,3.6001,3.6074,3.6113,3.6406,3.668,3.7129,3.7539,3.7812,3.8066,3.8281,3.8476,3.8552,3.8611,3.8611,3.8611,3.8611,3.8611,3.8611,3.8611,3.8611,3.8611,3.8611,3.8611,3.8611,3.8611,3.8611,3.8611,3.8611,3.8829,3.8955,3.8955,3.9425,4.0069,4.0284,4.0069,4.0033,4.0033,4.0284,4.0571,3.6201,3.6201,3.6201,3.6201,3.6201,3.6015,3.6052,3.6163,3.6201,3.6201,3.6201,3.6201,3.6201,3.6201,3.6201,3.6201,3.6201,3.6201,3.6201,3.6201,3.6201,3.6201,3.6201,3.6201,3.6201,3.6201,3.6201,3.6201,3.6201,3.6201,3.6201,3.6201,3.6201,3.6201,3.6201,3.6201,3.6201,3.6201,3.6201,3.6201,3.6201,3.6201,3.6201,3.6201,3.6201,3.6201,3.6201,3.6312,3.6516,3.6867,3.718,3.7356,3.7429,3.7362,3.7059,3.668,3.6269,3.6094,3.6035,3.6035,3.6035,3.6035,3.6035,3.6035,3.6035,3.6035,3.6035,3.6035,3.6035,3.6035,3.6035,3.6035,3.6035,3.6035,3.6035,3.6001,3.6001,3.6035,3.6035,3.6211,3.6426,3.6797,3.7168,3.748,3.7715,3.8066,3.8281,3.8457,3.8552,3.8611,3.8611,3.8611,3.8611,3.8611,3.8611,3.8611,3.8611,3.8611,3.8611,3.8611,3.8611,3.8611,3.8611,3.8611,3.8611,3.8647,3.8756,3.872,3.8829,3.8902,3.9136,3.9172,3.9333,3.9838,4.0105,3.6201,3.6201,3.6201,3.6201,3.6015,3.4971,3.5139,3.6089,3.6201,3.6201,3.6201,3.6201,3.6201,3.6201,3.6201,3.6201,3.6201,3.6201,3.6201,3.6163,3.6015,3.6126,3.6126,3.6052,3.6126,3.6163,3.6163,3.6201,3.6201,3.6201,3.6201,3.6201,3.6201,3.6201,3.6201,3.6201,3.6201,3.6201,3.6201,3.6201,3.6201,3.6201,3.6201,3.6201,3.6201,3.6201,3.6201,3.6479,3.6664,3.6812,3.7458,3.7784,3.7855,3.7753,3.75,3.6719,3.6309,3.6035,3.6035,3.6035,3.6035,3.6035,3.6035,3.6035,3.6035,3.6035,3.6035,3.6035,3.6035,3.6035,3.6035,3.6035,3.6035,3.6035,3.6035,3.6035,3.6035,3.6035,3.6035,3.6074,3.6289,3.6426,3.6816,3.7027,3.7266,3.7715,3.8066,3.8262,3.8493,3.8552,3.8611,3.8611,3.8611,3.8611,3.8611,3.8611,3.8611,3.8611,3.8611,3.8611,3.8611,3.8611,3.8611,3.8611,3.8611,3.8611,3.8611,3.8611,3.8611,3.8611,3.8793,3.8683,3.872,3.9245,3.9514,3.6201,3.6126,3.5475,3.4914,3.4145,3.326,3.3751,3.5064,3.5251,3.5512,3.6163,3.6201,3.6201,3.6201,3.6201,3.6201,3.6201,3.6201,3.6201,3.6089,3.5587,3.5214,3.5214,3.5326,3.5139,3.54,3.5903,3.6201,3.6201,3.6201,3.6201,3.6201,3.6201,3.6201,3.6201,3.6201,3.6201,3.6201,3.6201,3.6201,3.6201,3.6201,3.6201,3.6201,3.6201,3.6201,3.6238,3.659,3.6701,3.6738,3.7329,3.7752,3.7728,3.7667,3.723,3.6523,3.6191,3.6035,3.6035,3.6035,3.6035,3.6035,3.6035,3.6035,3.6035,3.6035,3.6035,3.6035,3.6035,3.6035,3.6035,3.6035,3.6035,3.6035,3.6035,3.6035,3.6035,3.6035,3.6035,3.6035,3.6094,3.6191,3.6348,3.6577,3.6832,3.7226,3.7676,3.8047,3.8281,3.8437,3.8571,3.8611,3.8611,3.8611,3.8611,3.8611,3.8611,3.8611,3.8611,3.8611,3.8611,3.8611,3.8611,3.8611,3.8611,3.8611,3.8611,3.8611,3.8611,3.8611,3.8611,3.8611,3.8611,3.8756,3.8902,3.5978,3.5811,3.4296,3.269,3.1223,3.1146,3.195,3.3335,3.326,3.4484,3.5866,3.6201,3.6201,3.6201,3.6201,3.6201,3.6015,3.5866,3.5587,3.594,3.4747,3.4221,3.4183,3.4015,3.4859,3.4859,3.5214,3.6201,3.6201,3.6201,3.6201,3.6201,3.6201,3.6201,3.6201,3.6201,3.6201,3.6201,3.6201,3.6201,3.6201,3.6201,3.6201,3.6201,3.6201,3.6201,3.633,3.6479,3.6664,3.6627,3.6997,3.7549,3.7517,3.7399,3.6848,3.6391,3.6133,3.6035,3.6035,3.6035,3.6035,3.6035,3.6035,3.6035,3.6035,3.6035,3.6035,3.6035,3.6035,3.6035,3.6035,3.6035,3.6035,3.6035,3.6035,3.6035,3.6035,3.6035,3.6035,3.6035,3.6035,3.6113,3.6152,3.6348,3.6577,3.6855,3.7148,3.7637,3.8047,3.8262,3.8437,3.8571,3.8611,3.8611,3.8611,3.8611,3.8611,3.8611,3.8611,3.8611,3.8611,3.8611,3.8611,3.8611,3.8611,3.8611,3.8611,3.8611,3.8611,3.8611,3.8611,3.8611,3.8611,3.8611,3.8611,3.4371,3.4221,3.256,3.0954,2.958,2.9464,2.9696,3.0045,3.0083,3.2462,3.5624,3.6126,3.6201,3.6201,3.6015,3.5978,3.5866,3.4784,3.4446,3.4333,3.3713,3.326,3.3902,3.4221,3.4934,3.5717,3.6052,3.6015,3.5978,3.6052,3.6163,3.6126,3.6163,3.6201,3.6201,3.6201,3.6201,3.6201,3.6201,3.6201,3.6201,3.6201,3.6201,3.6201,3.6201,3.6238,3.6442,3.6849,3.6701,3.6553,3.7696,3.7999,3.7814,3.7488,3.707,3.6582,3.6172,3.6055,3.6035,3.6035,3.6035,3.6035,3.6035,3.6035,3.6035,3.6035,3.6035,3.6035,3.6035,3.6035,3.6035,3.6035,3.6035,3.6035,3.6035,3.6035,3.6035,3.6035,3.6035,3.6035,3.6035,3.6001,3.6021,3.6152,3.6348,3.6577,3.6753,3.709,3.7656,3.8008,3.8262,3.8398,3.8591,3.8611,3.8611,3.8611,3.8611,3.8611,3.8611,3.8611,3.8611,3.8611,3.8611,3.8611,3.8611,3.8611,3.8611,3.8611,3.8611,3.8611,3.8611,3.8611,3.8611,3.8611,3.8611,3.3373,3.2538,3.0916,2.9308,2.7972,2.7776,2.8207,2.8817,2.8895,3.1239,3.4747,3.5176,3.5475,3.5791,3.5512,3.5139,3.4822,3.3411,3.2842,3.269,3.2614,3.1988,3.2652,3.3411,3.2728,3.3297,3.4709,3.5084,3.5214,3.5903,3.6052,3.5512,3.5587,3.6126,3.6163,3.6201,3.6201,3.6201,3.6201,3.6201,3.6201,3.6201,3.6201,3.6201,3.6201,3.6293,3.6627,3.7034,3.6923,3.6812,3.7513,3.7566,3.7419,3.7316,3.6973,3.6484,3.6152,3.6035,3.6035,3.6035,3.6035,3.6035,3.6035,3.6035,3.6035,3.6035,3.6035,3.6035,3.6035,3.6035,3.6035,3.6035,3.6035,3.6035,3.6035,3.6035,3.6035,3.6035,3.6035,3.6035,3.6035,3.6035,3.6035,3.6055,3.6211,3.6289,3.648,3.6714,3.7207,3.764,3.7949,3.8223,3.8359,3.8571,3.8611,3.8611,3.8611,3.8611,3.8611,3.8611,3.8611,3.8611,3.8611,3.8611,3.8611,3.8611,3.8611,3.8611,3.8611,3.8611,3.8611,3.8611,3.8611,3.8611,3.8611,3.2119,3.0531,2.9153,2.7776,2.6544,2.6426,2.7201,2.8364,2.8544,3.0199,3.2766,3.3032,3.4221,3.4896,3.4258,3.3789,3.2956,3.1683,3.1146,3.0993,3.0993,3.0569,3.0454,3.0685,3.0954,3.1415,3.2484,3.3184,3.3524,3.4296,3.4521,3.4145,3.4914,3.594,3.6126,3.6201,3.6201,3.6201,3.6201,3.6201,3.6201,3.6201,3.6201,3.6201,3.6238,3.6386,3.6738,3.7034,3.7107,3.7181,3.7291,3.7309,3.7209,3.7164,3.6708,3.6348,3.6094,3.6035,3.6035,3.6035,3.6035,3.6035,3.6035,3.6035,3.6035,3.6035,3.6035,3.6035,3.6035,3.6035,3.6035,3.6035,3.6035,3.6035,3.6035,3.6035,3.6035,3.6035,3.6035,3.6035,3.6035,3.6035,3.6035,3.6035,3.6055,3.6133,3.625,3.6519,3.6812,3.7168,3.7519,3.7851,3.8105,3.8281,3.8552,3.8611,3.8611,3.8611,3.8611,3.8611,3.8611,3.8611,3.8611,3.8611,3.8611,3.8611,3.8611,3.8611,3.8611,3.8611,3.8611,3.8611,3.8611,3.8611,3.8611,2.8856,2.7319,2.6965,2.6663,2.6386,2.64,2.6584,2.686,2.6965,2.8051,2.9657,3.016,3.1338,3.4145,3.2522,3.1797,3.1491,3.0107,2.9502,2.9347,2.9619,2.9269,2.9153,2.9657,3.0762,3.1146,3.1261,3.1606,3.2255,3.2484,3.2994,3.3844,3.3919,3.4934,3.6163,3.6201,3.6201,3.6201,3.6201,3.6201,3.6201,3.6201,3.6201,3.6201,3.6201,3.6238,3.6479,3.7034,3.7071,3.7144,3.7382,3.7453,3.7332,3.714,3.6762,3.6269,3.6035,3.6035,3.6035,3.6035,3.6035,3.6035,3.6035,3.6035,3.6035,3.6035,3.6035,3.6035,3.6035,3.6035,3.6035,3.6035,3.6035,3.6035,3.6035,3.6035,3.6035,3.6035,3.6035,3.6035,3.6035,3.6035,3.6035,3.6035,3.6035,3.6074,3.6074,3.6309,3.6577,3.6816,3.7109,3.7422,3.7773,3.8203,3.8496,3.8591,3.8611,3.8611,3.8611,3.8611,3.8611,3.8611,3.8611,3.8611,3.8611,3.8611,3.8611,3.8611,3.8611,3.8611,3.8611,3.8611,3.8611,3.8611,3.8611]},{"header":{"parameterUnit":"m.s-1","parameterCategory":1,"la1":31.0,"la2":29.5877,"lo1":-88.7671,"lo2":-86.6584,"dx":0.0162,"dy":0.0185,"nx":115,"ny":88,"refTime":"2023-01-19T06:00:00:Z","depth":0,"parameterNumber":3,"parameterNumberName":"V-component_of_WINDS"},"data":[0.0,0.0,0.0,0.0,0.0,0.0,0.0,0.0,0.0,0.0,0.0,0.0,0.0,0.0,0.0,0.0,0.0,0.0,0.0,0.0,0.0,0.0,0.0,0.0,0.0,0.0,0.0,0.0,0.0,0.0,0.0,0.0,0.0,0.0,0.0,0.0,0.0,0.0,0.0,0.0,0.0,0.0,0.0,0.0,0.0,0.0,0.0,0.0,0.0,0.0,0.0,0.0,0.0,0.0,0.0,0.0,0.0,0.0,0.0,0.0,0.0,0.0,0.0,0.0,0.0,0.0,0.0,0.0,0.0,0.0,0.0,0.0,0.0,0.0,0.0,0.0,0.0,0.0,0.0,0.0,0.0,0.0,0.0,0.0,0.0,0.0,0.0,0.0,0.0,0.0,0.0,0.0,0.0,0.0,0.0,0.0,0.0,0.0,0.0,0.0,0.0,0.0,0.0,0.0,0.0,0.0,0.0,0.0,0.0,0.0,0.0,0.0,0.0,0.0,0.0,0.0,0.0,0.0,0.0,0.0,0.0,0.0,0.0,0.0,0.0,0.0,0.0,0.0,0.0,0.0,0.0,0.0,0.0,0.0,0.0,0.0,0.0,0.0,0.0,0.0,0.0,0.0,0.0,0.0,0.0,0.0,0.0,0.0,0.0,0.0,0.0,0.0,0.0,0.0,0.0,0.0,0.0,0.0,0.0,0.0,0.0,0.0,0.0,0.0,0.0,0.0,0.0,0.0,0.0,0.0,0.0,0.0,0.0,0.0,0.0,0.0,0.0,0.0,0.0,0.0,0.0,0.0,0.0,0.0,0.0,0.0,0.0,0.0,0.0,0.0,0.0,0.0,0.0,0.0,0.0,0.0,0.0,0.0,0.0,0.0,0.0,0.0,0.0,0.0,0.0,0.0,0.0,0.0,0.0,0.0,0.0,0.0,0.0,0.0,0.0,0.0,0.0,0.0,0.0,0.0,0.0,0.0,0.0,0.0,0.0,0.0,0.0,0.0,0.0,0.0,0.0,0.0,0.0,0.0,0.0,0.0,0.0,0.0,0.0,0.0,0.0,0.0,0.0,0.0,0.0,0.0,0.0,0.0,0.0,0.0,0.0,0.0,0.0,0.0,0.0,0.0,0.0,0.0,0.0,0.0,0.0,0.0,0.0,0.0,0.0,0.0,0.0,0.0,0.0,0.0,0.0,0.0,0.0,0.0,0.0,0.0,0.0,0.0,0.0,0.0,0.0,0.0,0.0,0.0,0.0,0.0,0.0,0.0,0.0,0.0,0.0,0.0,0.0,0.0,0.0,0.0,0.0,0.0,0.0,0.0,0.0,0.0,0.0,0.0,0.0,0.0,0.0,0.0,0.0,0.0,0.0,0.0,0.0,0.0,0.0,0.0,0.0,0.0,0.0,0.0,0.0,0.0,0.0,0.0,0.0,0.0,0.0,0.0,0.0,0.0,0.0,0.0,0.0,0.0,0.0,0.0,0.0,0.0,0.0,0.0,0.0,0.0,0.0,0.0,0.0,0.0,0.0,0.0,0.0,0.0,0.0,0.0,0.0,0.0,0.0,0.0,0.0,0.0,0.0,0.0,0.0,0.0,0.0,0.0,0.0,0.0,0.0,0.0,0.0,0.0,0.0,0.0,0.0,0.0,0.0,0.0,0.0,0.0,0.0,0.0,0.0,0.0,0.0,0.0,0.0,0.0,0.0,0.0,0.0,0.0,0.0,0.0,0.0,0.0,0.0,0.0,0.0,0.0,0.0,0.0,0.0,0.0,0.0,0.0,0.0,0.0,0.0,0.0,0.0,0.0,0.0,0.0,0.0,0.0,0.0,0.0,0.0,0.0,0.0,0.0,0.0,0.0,0.0,0.0,0.0,0.0,0.0,0.0,0.0,0.0,0.0,0.0,0.0,0.0,0.0,0.0,0.0,0.0,0.0,0.0,0.0,0.0,0.0,0.0,0.0,0.0,0.0,0.0,0.0,0.0,0.0,0.0,0.0,0.0,0.0,0.0,0.0,0.0,0.0,0.0,0.0,0.0,0.0,0.0,0.0,0.0,0.0,0.0,0.0,0.0,0.0,0.0,0.0,0.0,0.0,0.0,0.0,0.0,0.0,0.0,0.0,0.0,0.0,0.0,0.0,0.0,0.0,0.0,0.0,0.0,0.0,0.0,0.0,0.0,0.0,0.0,0.0,0.0,0.0,0.0,0.0,0.0,0.0,0.0,0.0,0.0,0.0,0.0,0.0,0.0,0.0,0.0,0.0,0.0,0.0,0.0,0.0,0.0,0.0,0.0,0.0,0.0,0.0,0.0,0.0,0.0,0.0,0.0,0.0,0.0,0.0,0.0,0.0,0.0,0.0,0.0,0.0,0.0,0.0,0.0,0.0,0.0,0.0,0.0,0.0,0.0,0.0,0.0,0.0,0.0,0.0,0.0,0.0,0.0,0.0,0.0,0.0,0.0,0.0,0.0,0.0,0.0,0.0,0.0,0.0,0.0,0.0,0.0,0.0,0.0,0.0,0.0,0.0,0.0,0.0,0.0,0.0,0.0,0.0,0.0,0.0,0.0,0.0,0.0,0.0,0.0,0.0,0.0,0.0,0.0,0.0,0.0,0.0,0.0,0.0,0.0,0.0,0.0,0.0,0.0,0.0,0.0,0.0,0.0,0.0,0.0,0.0,0.0,0.0,0.0,0.0,0.0,0.0,0.0,0.0,0.0,0.0,0.0,0.0,0.0,0.0,0.0,0.0,0.0,0.0,0.0,0.0,0.0,0.0,0.0,0.0,0.0,0.0,0.0,0.0,0.0,0.0,0.0,0.0,0.0,0.0,0.0,0.0,0.0,0.0,0.0,0.0,0.0,0.0,0.0,0.0,0.0,0.0,0.0,0.0,0.0,0.0,0.0,0.0,0.0,0.0,0.0,0.0,0.0,0.0,0.0,0.0,0.0,0.0,0.0,0.0,0.0,0.0,0.0,0.0,0.0,0.0,0.0,0.0,0.0,0.0,0.0,0.0,0.0,0.0,0.0,0.0,0.0,0.0,0.0,0.0,0.0,0.0,0.0,0.0,0.0,0.0,0.0,0.0,0.0,0.0,0.0,0.0,0.0,0.0,0.0,0.0,0.0,0.0,0.0,0.0,0.0,0.0,0.0,0.0,0.0,0.0,0.0,0.0,0.0,0.0,0.0,0.0,0.0,0.0,0.0,0.0,0.0,0.0,0.0,0.0,0.0,0.0,0.0,0.0,0.0,0.0,0.0,0.0,0.0,0.0,0.0,0.0,0.0,0.0,0.0,0.0,0.0,0.0,0.0,0.0,0.0,0.0,0.0,0.0,0.0,0.0,0.0,0.0,0.0,0.0,0.0,0.0,0.0,0.0,0.0,0.0,0.0,0.0,0.0,0.0,0.0,0.0,0.0,0.0,0.0,0.0,0.0,0.0,0.0,0.0,0.0,0.0,0.0,0.0,0.0,0.0,0.0,0.0,0.0,0.0,0.0,0.0,0.0,0.0,0.0,0.0,0.0,0.0,0.0,0.0,0.0,0.0,0.0,0.0,0.0,0.0,0.0,0.0,0.0,0.0,0.0,0.0,0.0,0.0,0.0,0.0,0.0,0.0,0.0,0.0,0.0,0.0,0.0,0.0,0.0,0.0,0.0,0.0,0.0,0.0,0.0,0.0,0.0,0.0,0.0,0.0,0.0,0.0,0.0,0.0,0.0,0.0,0.0,0.0,0.0,0.0,0.0,0.0,0.0,0.0,0.0,0.0,0.0,0.0,0.0,0.0,0.0,0.0,0.0,0.0,0.0,0.0,0.0,0.0,0.0,0.0,0.0,0.0,0.0,0.0,0.0,0.0,0.0,0.0,0.0,0.0,0.0,0.0,0.0,0.0,0.0,0.0,0.0,0.0,0.0,0.0,0.0,0.0,0.0,0.0,0.0,0.0,0.0,0.0,0.0,0.0,0.0,0.0,0.0,0.0,0.0,0.0,0.0,0.0,0.0,0.0,0.0,0.0,0.0,0.0,0.0,0.0,0.0,0.0,0.0,0.0,0.0,0.0,0.0,0.0,0.0,0.0,0.0,0.0,0.0,0.0,0.0,0.0,0.0,0.0,0.0,0.0,0.0,0.0,0.0,0.0,0.0,0.0,0.0,0.0,0.0,0.0,0.0,0.0,0.0,0.0,0.0,0.0,0.0,0.0,0.0,0.0,0.0,0.0,0.0,0.0,0.0,0.0,0.0,0.0,0.0,0.0,0.0,0.0,0.0,2.2182,0.0,0.0,0.0,0.0,0.0,0.0,0.0,0.0,0.0,0.0,0.0,0.0,0.0,0.0,0.0,0.0,0.0,0.0,0.0,0.0,0.0,0.0,0.0,0.0,0.0,0.0,0.0,0.0,0.0,0.0,0.0,0.0,0.0,0.0,0.0,0.0,0.0,0.0,0.0,0.0,0.0,0.0,0.0,0.0,0.0,0.0,0.0,0.0,0.0,0.0,0.0,0.0,0.0,0.0,0.0,0.0,0.0,0.0,0.0,0.0,0.0,0.0,0.0,0.0,0.0,0.0,0.0,0.0,0.0,0.0,0.0,0.0,0.0,0.0,0.0,0.0,0.0,0.0,0.0,0.0,0.0,0.0,0.0,0.0,0.0,0.0,0.0,0.0,0.0,0.0,0.0,0.0,0.0,0.0,0.0,0.0,0.0,0.0,0.0,0.0,0.0,0.0,0.0,0.0,0.0,0.0,0.0,0.0,0.0,0.0,2.2182,2.2182,2.2182,2.2182,2.2182,0.0,0.0,0.0,0.0,0.0,0.0,0.0,0.0,0.0,0.0,0.0,0.0,0.0,0.0,0.0,0.0,0.0,0.0,0.0,0.0,0.0,0.0,0.0,0.0,0.0,0.0,0.0,0.0,0.0,0.0,0.0,0.0,0.0,0.0,0.0,0.0,0.0,0.0,0.0,0.0,0.0,0.0,0.0,0.0,0.0,0.0,0.0,0.0,0.0,0.0,0.0,0.0,0.0,0.0,0.0,0.0,0.0,0.0,0.0,0.0,0.0,0.0,0.0,0.0,0.0,0.0,0.0,0.0,0.0,0.0,0.0,0.0,0.0,0.0,0.0,0.0,0.0,0.0,0.0,0.0,0.0,0.0,0.0,0.0,0.0,0.0,0.0,0.0,0.0,0.0,0.0,0.0,0.0,0.0,0.0,0.0,0.0,0.0,0.0,0.0,0.0,0.0,0.0,0.0,0.0,0.0,0.0,0.0,0.0,0.0,0.0,0.0,2.2182,2.2182,2.2182,0.0,0.0,0.0,0.0,0.0,0.0,0.0,0.0,0.0,0.0,0.0,0.0,0.0,0.0,0.0,0.0,0.0,0.0,0.0,0.0,0.0,0.0,0.0,0.0,0.0,0.0,0.0,0.0,0.0,0.0,0.0,0.0,0.0,0.0,0.0,0.0,0.0,0.0,0.0,0.0,0.0,0.0,0.0,0.0,0.0,0.0,0.0,0.0,0.0,0.0,0.0,0.0,0.0,0.0,0.0,0.0,0.0,0.0,0.0,0.0,0.0,0.0,0.0,0.0,0.0,0.0,0.0,0.0,0.0,0.0,0.0,0.0,0.0,0.0,0.0,0.0,0.0,0.0,0.0,0.0,0.0,0.0,0.0,0.0,0.0,0.0,0.0,0.0,0.0,0.0,0.0,0.0,0.0,0.0,0.0,0.0,0.0,0.0,0.0,0.0,0.0,0.0,0.0,0.0,0.0,0.0,0.0,0.0,0.0,0.0,2.2182,2.2182,2.2182,0.0,2.2182,0.0,0.0,0.0,0.0,0.0,0.0,0.0,0.0,0.0,0.0,0.0,0.0,0.0,0.0,0.0,0.0,0.0,0.0,0.0,0.0,0.0,0.0,0.0,0.0,0.0,0.0,0.0,0.0,0.0,0.0,0.0,0.0,0.0,0.0,0.0,0.0,0.0,0.0,0.0,0.0,0.0,0.0,0.0,0.0,0.0,0.0,0.0,0.0,0.0,0.0,0.0,0.0,0.0,0.0,0.0,0.0,0.0,0.0,0.0,0.0,0.0,0.0,0.0,0.0,0.0,0.0,0.0,0.0,0.0,0.0,0.0,0.0,0.0,0.0,0.0,0.0,0.0,0.0,0.0,0.0,0.0,0.0,0.0,0.0,0.0,0.0,0.0,0.0,0.0,0.0,0.0,0.0,0.0,0.0,0.0,0.0,0.0,0.0,0.0,0.0,0.0,0.0,0.0,0.0,0.0,0.0,0.0,0.0,0.0,0.0,2.2575,2.2194,2.2182,2.2182,0.0,0.0,0.0,0.0,0.0,0.0,0.0,0.0,0.0,0.0,0.0,0.0,0.0,0.0,0.0,0.0,0.0,0.0,0.0,0.0,0.0,0.0,0.0,0.0,0.0,0.0,0.0,0.0,0.0,0.0,0.0,0.0,0.0,0.0,0.0,0.0,0.0,0.0,0.0,0.0,0.0,0.0,0.0,0.0,0.0,0.0,0.0,0.0,0.0,0.0,0.0,0.0,0.0,0.0,0.0,0.0,0.0,0.0,0.0,0.0,0.0,0.0,0.0,0.0,0.0,0.0,0.0,0.0,0.0,0.0,0.0,0.0,0.0,0.0,0.0,0.0,0.0,0.0,0.0,0.0,0.0,0.0,0.0,0.0,0.0,0.0,0.0,0.0,0.0,0.0,0.0,0.0,0.0,0.0,0.0,0.0,0.0,0.0,0.0,0.0,0.0,0.0,0.0,0.0,0.0,0.0,0.0,0.0,0.0,0.0,2.3363,2.3082,2.2503,2.2306,2.2182,2.2182,0.0,0.0,0.0,0.0,0.0,0.0,0.0,0.0,0.0,0.0,0.0,0.0,0.0,0.0,0.0,0.0,0.0,0.0,0.0,0.0,0.0,0.0,0.0,0.0,0.0,0.0,0.0,0.0,0.0,0.0,0.0,0.0,0.0,0.0,0.0,0.0,0.0,0.0,0.0,0.0,0.0,0.0,0.0,0.0,0.0,0.0,0.0,0.0,0.0,0.0,0.0,0.0,0.0,0.0,0.0,0.0,0.0,0.0,0.0,0.0,0.0,0.0,0.0,0.0,0.0,0.0,0.0,0.0,0.0,0.0,0.0,0.0,0.0,0.0,0.0,0.0,0.0,0.0,0.0,0.0,0.0,0.0,0.0,0.0,0.0,0.0,0.0,0.0,0.0,0.0,0.0,0.0,0.0,0.0,0.0,0.0,0.0,0.0,0.0,0.0,0.0,0.0,0.0,0.0,0.0,0.0,0.0,0.0,0.0,2.4063,2.3741,2.3069,2.2519,2.2182,0.0,0.0,0.0,0.0,0.0,0.0,0.0,0.0,0.0,0.0,0.0,0.0,0.0,0.0,0.0,0.0,0.0,0.0,0.0,0.0,0.0,0.0,0.0,0.0,0.0,0.0,0.0,0.0,0.0,0.0,0.0,0.0,0.0,0.0,0.0,0.0,0.0,0.0,0.0,0.0,0.0,0.0,0.0,0.0,0.0,0.0,0.0,0.0,0.0,0.0,0.0,0.0,0.0,0.0,0.0,0.0,0.0,0.0,0.0,0.0,0.0,0.0,0.0,0.0,0.0,0.0,0.0,0.0,0.0,0.0,0.0,0.0,0.0,0.0,0.0,0.0,0.0,0.0,0.0,0.0,0.0,0.0,0.0,0.0,0.0,0.0,0.0,0.0,0.0,0.0,0.0,0.0,0.0,0.0,0.0,0.0,0.0,0.0,0.0,0.0,0.0,0.0,0.0,0.0,0.0,0.0,0.0,0.0,0.0,2.471,2.4303,2.3966,2.3741,2.3516,2.3206,0.0,0.0,0.0,0.0,0.0,0.0,0.0,0.0,0.0,0.0,0.0,0.0,0.0,0.0,0.0,0.0,0.0,0.0,0.0,0.0,0.0,0.0,0.0,0.0,0.0,0.0,0.0,0.0,0.0,0.0,0.0,0.0,0.0,0.0,0.0,0.0,0.0,0.0,0.0,0.0,0.0,0.0,0.0,0.0,0.0,0.0,0.0,0.0,0.0,0.0,0.0,0.0,0.0,0.0,0.0,0.0,0.0,0.0,0.0,0.0,0.0,0.0,0.0,0.0,0.0,0.0,0.0,0.0,0.0,0.0,0.0,0.0,0.0,0.0,0.0,0.0,0.0,0.0,0.0,0.0,0.0,0.0,0.0,0.0,0.0,0.0,0.0,0.0,0.0,0.0,0.0,0.0,0.0,0.0,0.0,0.0,0.0,0.0,0.0,0.0,0.0,0.0,0.0,0.0,0.0,0.0,0.0,0.0,0.0,2.5486,0.0,2.4388,2.44,2.4191,2.3881,0.0,0.0,0.0,0.0,0.0,0.0,0.0,0.0,0.0,0.0,0.0,0.0,0.0,0.0,0.0,0.0,0.0,0.0,0.0,0.0,0.0,0.0,0.0,0.0,0.0,0.0,0.0,0.0,0.0,0.0,0.0,0.0,0.0,0.0,0.0,0.0,0.0,0.0,0.0,0.0,0.0,0.0,0.0,0.0,0.0,0.0,0.0,0.0,0.0,0.0,0.0,0.0,0.0,0.0,0.0,0.0,0.0,0.0,0.0,0.0,0.0,0.0,0.0,0.0,0.0,0.0,0.0,0.0,0.0,0.0,0.0,0.0,0.0,0.0,0.0,0.0,0.0,0.0,0.0,0.0,0.0,0.0,0.0,0.0,0.0,0.0,0.0,0.0,0.0,0.0,0.0,0.0,0.0,0.0,0.0,0.0,0.0,0.0,0.0,0.0,0.0,0.0,0.0,0.0,0.0,0.0,0.0,0.0,2.7331,2.648,2.5528,2.5033,2.4993,2.4485,2.4147,0.0,0.0,0.0,0.0,0.0,0.0,0.0,0.0,0.0,0.0,0.0,0.0,0.0,0.0,0.0,0.0,0.0,0.0,0.0,0.0,0.0,0.0,0.0,0.0,0.0,0.0,0.0,0.0,0.0,0.0,0.0,0.0,0.0,0.0,0.0,0.0,0.0,0.0,0.0,0.0,0.0,0.0,0.0,0.0,0.0,0.0,0.0,0.0,0.0,0.0,0.0,0.0,0.0,0.0,0.0,0.0,0.0,0.0,0.0,0.0,0.0,0.0,0.0,0.0,0.0,0.0,0.0,0.0,0.0,0.0,0.0,0.0,0.0,0.0,0.0,0.0,0.0,0.0,0.0,0.0,0.0,0.0,0.0,0.0,0.0,0.0,0.0,0.0,0.0,0.0,0.0,0.0,0.0,0.0,0.0,0.0,0.0,0.0,0.0,0.0,0.0,0.0,0.0,0.0,0.0,0.0,0.0,0.0,0.0,2.6123,2.6045,2.5906,2.5625,2.5443,2.5134,0.0,0.0,0.0,0.0,0.0,0.0,0.0,0.0,0.0,0.0,0.0,0.0,0.0,0.0,0.0,0.0,0.0,0.0,0.0,0.0,0.0,0.0,0.0,0.0,0.0,0.0,0.0,0.0,0.0,0.0,0.0,0.0,0.0,0.0,0.0,0.0,0.0,0.0,0.0,0.0,0.0,0.0,0.0,0.0,0.0,0.0,0.0,0.0,0.0,0.0,0.0,0.0,0.0,0.0,0.0,0.0,0.0,0.0,0.0,0.0,0.0,0.0,0.0,0.0,0.0,0.0,0.0,0.0,0.0,0.0,0.0,0.0,0.0,0.0,0.0,0.0,0.0,0.0,0.0,0.0,0.0,0.0,0.0,0.0,0.0,0.0,0.0,0.0,0.0,0.0,0.0,0.0,0.0,0.0,0.0,0.0,0.0,0.0,0.0,0.0,0.0,0.0,0.0,0.0,0.0,0.0,0.0,0.0,0.0,2.719,2.7365,2.7407,2.7135,2.6956,2.6448,2.5598,0.0,0.0,0.0,0.0,0.0,0.0,0.0,0.0,0.0,0.0,0.0,0.0,0.0,0.0,0.0,0.0,0.0,0.0,0.0,0.0,0.0,0.0,0.0,0.0,0.0,0.0,0.0,0.0,0.0,0.0,0.0,0.0,0.0,0.0,0.0,0.0,0.0,0.0,0.0,0.0,0.0,0.0,0.0,0.0,0.0,0.0,0.0,0.0,0.0,0.0,0.0,0.0,0.0,0.0,0.0,0.0,0.0,0.0,0.0,0.0,0.0,0.0,0.0,0.0,0.0,0.0,0.0,0.0,0.0,0.0,0.0,0.0,0.0,0.0,0.0,0.0,0.0,0.0,0.0,0.0,0.0,0.0,0.0,0.0,0.0,0.0,0.0,0.0,0.0,0.0,0.0,0.0,0.0,0.0,0.0,0.0,0.0,0.0,0.0,0.0,0.0,0.0,0.0,0.0,0.0,0.0,0.0,0.0,2.9381,2.947,2.9442,2.9298,2.8764,2.7919,0.0,0.0,0.0,0.0,0.0,0.0,0.0,0.0,0.0,0.0,0.0,0.0,0.0,0.0,0.0,0.0,0.0,0.0,0.0,0.0,0.0,0.0,0.0,0.0,0.0,0.0,0.0,0.0,0.0,0.0,0.0,0.0,0.0,0.0,0.0,0.0,0.0,0.0,0.0,0.0,0.0,0.0,0.0,0.0,0.0,0.0,0.0,0.0,0.0,0.0,0.0,0.0,0.0,0.0,0.0,0.0,0.0,0.0,0.0,0.0,0.0,0.0,0.0,0.0,0.0,0.0,0.0,0.0,0.0,0.0,0.0,0.0,0.0,0.0,0.0,0.0,0.0,0.0,0.0,0.0,0.0,0.0,0.0,0.0,0.0,0.0,0.0,0.0,0.0,0.0,0.0,0.0,0.0,0.0,0.0,0.0,0.0,0.0,0.0,0.0,0.0,0.0,0.0,0.0,0.0,0.0,0.0,0.0,0.0,3.1572,3.2578,3.2337,3.0701,2.9288,2.8322,0.0,0.0,0.0,0.0,0.0,0.0,0.0,0.0,0.0,0.0,0.0,0.0,0.0,0.0,0.0,0.0,0.0,0.0,0.0,0.0,0.0,0.0,0.0,0.0,0.0,0.0,0.0,0.0,0.0,0.0,0.0,0.0,0.0,0.0,0.0,0.0,0.0,0.0,0.0,0.0,0.0,0.0,0.0,0.0,0.0,0.0,0.0,0.0,0.0,0.0,0.0,0.0,0.0,0.0,0.0,0.0,0.0,0.0,0.0,0.0,0.0,0.0,0.0,0.0,0.0,0.0,0.0,0.0,0.0,0.0,0.0,0.0,0.0,0.0,0.0,0.0,0.0,0.0,0.0,0.0,0.0,0.0,0.0,0.0,0.0,0.0,0.0,0.0,0.0,0.0,0.0,0.0,0.0,0.0,0.0,0.0,0.0,0.0,0.0,0.0,0.0,0.0,0.0,0.0,0.0,0.0,0.0,0.0,3.1613,3.2396,3.4336,3.4743,3.3442,3.1143,2.9473,0.0,0.0,0.0,0.0,0.0,0.0,0.0,0.0,0.0,0.0,0.0,0.0,0.0,0.0,0.0,0.0,0.0,0.0,0.0,0.0,0.0,0.0,0.0,0.0,0.0,0.0,0.0,0.0,0.0,0.0,0.0,0.0,0.0,0.0,0.0,0.0,0.0,0.0,0.0,0.0,0.0,0.0,0.0,0.0,0.0,0.0,0.0,0.0,0.0,0.0,0.0,0.0,0.0,0.0,0.0,0.0,0.0,0.0,0.0,0.0,0.0,0.0,0.0,0.0,0.0,0.0,0.0,0.0,0.0,0.0,0.0,0.0,0.0,0.0,0.0,0.0,0.0,0.0,0.0,0.0,0.0,0.0,0.0,0.0,0.0,0.0,0.0,0.0,0.0,0.0,0.0,0.0,0.0,0.0,0.0,0.0,0.0,0.0,0.0,0.0,0.0,0.0,0.0,0.0,0.0,0.0,0.0,0.0,3.2444,3.2673,3.5168,3.6476,3.6415,3.3436,3.0955,0.0,0.0,0.0,0.0,0.0,0.0,0.0,0.0,0.0,0.0,0.0,0.0,0.0,0.0,0.0,0.0,0.0,0.0,0.0,0.0,0.0,0.0,0.0,0.0,0.0,0.0,0.0,0.0,0.0,0.0,0.0,0.0,0.0,0.0,0.0,0.0,0.0,0.0,0.0,0.0,0.0,0.0,0.0,0.0,0.0,0.0,0.0,0.0,0.0,0.0,0.0,0.0,0.0,0.0,0.0,0.0,0.0,0.0,0.0,0.0,0.0,0.0,0.0,0.0,0.0,0.0,0.0,0.0,0.0,0.0,0.0,0.0,0.0,0.0,0.0,0.0,0.0,0.0,0.0,0.0,0.0,0.0,0.0,0.0,0.0,0.0,0.0,0.0,0.0,0.0,0.0,0.0,0.0,0.0,0.0,0.0,0.0,0.0,0.0,0.0,0.0,0.0,0.0,0.0,0.0,0.0,0.0,0.0,3.295,3.4028,3.566,3.6507,3.6476,3.3465,3.1617,0.0,0.0,0.0,0.0,0.0,0.0,0.0,0.0,0.0,0.0,0.0,0.0,0.0,0.0,0.0,0.0,0.0,0.0,0.0,0.0,0.0,0.0,0.0,0.0,0.0,0.0,0.0,0.0,0.0,0.0,0.0,0.0,0.0,0.0,0.0,0.0,0.0,0.0,0.0,0.0,0.0,0.0,0.0,0.0,0.0,0.0,0.0,0.0,2.5147,0.0,0.0,0.0,0.0,0.0,0.0,0.0,0.0,0.0,0.0,0.0,0.0,0.0,0.0,0.0,0.0,0.0,0.0,0.0,0.0,0.0,0.0,0.0,0.0,0.0,0.0,0.0,0.0,0.0,0.0,0.0,0.0,0.0,0.0,0.0,0.0,0.0,0.0,0.0,0.0,0.0,0.0,0.0,0.0,0.0,0.0,0.0,0.0,0.0,0.0,0.0,0.0,0.0,0.0,0.0,0.0,0.0,0.0,0.0,3.3104,3.4474,3.5814,3.6507,3.6415,3.4268,3.2501,0.0,0.0,0.0,0.0,0.0,0.0,0.0,0.0,0.0,0.0,0.0,0.0,0.0,0.0,0.0,0.0,0.0,0.0,0.0,0.0,0.0,0.0,0.0,0.0,0.0,0.0,0.0,0.0,0.0,0.0,0.0,0.0,0.0,0.0,0.0,0.0,0.0,0.0,0.0,0.0,0.0,0.0,0.0,0.0,0.0,0.0,0.0,0.0,0.0,0.0,0.0,0.0,0.0,0.0,0.0,0.0,0.0,0.0,0.0,0.0,0.0,0.0,0.0,0.0,0.0,0.0,0.0,0.0,0.0,0.0,0.0,0.0,0.0,0.0,0.0,0.0,0.0,0.0,0.0,0.0,0.0,0.0,0.0,0.0,0.0,0.0,0.0,0.0,0.0,0.0,0.0,0.0,0.0,0.0,0.0,0.0,0.0,0.0,0.0,0.0,0.0,0.0,0.0,0.0,0.0,0.0,0.0,3.1982,3.3367,3.5075,3.6245,3.68,3.6784,3.5506,3.3619,3.1132,0.0,0.0,0.0,0.0,0.0,0.0,0.0,0.0,0.0,0.0,0.0,0.0,0.0,0.0,0.0,0.0,0.0,0.0,0.0,0.0,0.0,0.0,0.0,0.0,0.0,0.0,0.0,0.0,0.0,0.0,0.0,0.0,0.0,0.0,0.0,0.0,0.0,0.0,2.4298,2.4034,0.0,0.0,0.0,0.0,0.0,0.0,0.0,0.0,2.6749,0.0,0.0,0.0,0.0,0.0,0.0,0.0,0.0,0.0,0.0,0.0,0.0,0.0,0.0,0.0,0.0,0.0,0.0,0.0,0.0,0.0,0.0,0.0,0.0,0.0,0.0,0.0,0.0,0.0,0.0,0.0,0.0,0.0,0.0,0.0,0.0,0.0,0.0,0.0,0.0,0.0,0.0,0.0,0.0,0.0,0.0,0.0,0.0,0.0,0.0,0.0,0.0,0.0,0.0,0.0,0.0,3.2861,3.3107,3.4722,3.7769,3.8077,3.8153,3.8138,3.6892,3.4988,3.2554,0.0,0.0,0.0,0.0,0.0,0.0,0.0,0.0,0.0,0.0,0.0,0.0,0.0,0.0,0.0,0.0,0.0,0.0,0.0,0.0,0.0,0.0,0.0,0.0,0.0,0.0,0.0,0.0,0.0,0.0,0.0,0.0,0.0,0.0,0.0,0.0,0.0,0.0,0.0,2.5401,2.5298,0.0,0.0,0.0,0.0,0.0,0.0,0.0,0.0,2.7463,0.0,0.0,0.0,0.0,0.0,0.0,0.0,0.0,0.0,0.0,0.0,0.0,0.0,0.0,0.0,0.0,0.0,0.0,0.0,0.0,0.0,0.0,0.0,0.0,0.0,0.0,0.0,0.0,0.0,0.0,0.0,0.0,0.0,0.0,0.0,0.0,0.0,0.0,0.0,0.0,0.0,0.0,0.0,0.0,0.0,0.0,0.0,0.0,0.0,0.0,0.0,0.0,0.0,0.0,0.0,3.3874,3.466,3.6138,3.8415,3.8508,3.8508,3.8477,3.7184,3.5615,0.0,0.0,0.0,0.0,0.0,0.0,0.0,0.0,0.0,0.0,0.0,0.0,0.0,0.0,0.0,0.0,0.0,0.0,0.0,0.0,0.0,0.0,0.0,0.0,0.0,0.0,0.0,0.0,0.0,0.0,0.0,0.0,0.0,0.0,0.0,0.0,0.0,0.0,0.0,0.0,2.6634,2.6801,2.8126,0.0,0.0,0.0,0.0,0.0,0.0,2.889,2.8569,0.0,0.0,0.0,0.0,0.0,0.0,0.0,0.0,0.0,0.0,0.0,0.0,0.0,0.0,0.0,0.0,0.0,0.0,0.0,0.0,0.0,0.0,0.0,0.0,0.0,0.0,0.0,0.0,0.0,0.0,0.0,0.0,0.0,0.0,0.0,0.0,0.0,0.0,0.0,0.0,0.0,0.0,0.0,0.0,0.0,0.0,0.0,0.0,0.0,0.0,0.0,0.0,0.0,0.0,0.0,3.469,3.6014,3.743,3.883,3.8922,3.8908,3.8861,3.7338,3.5922,0.0,0.0,0.0,0.0,0.0,0.0,0.0,0.0,0.0,0.0,0.0,0.0,0.0,0.0,0.0,0.0,0.0,0.0,0.0,0.0,0.0,0.0,0.0,0.0,0.0,0.0,0.0,0.0,0.0,0.0,0.0,0.0,0.0,0.0,0.0,0.0,0.0,0.0,0.0,0.0,0.0,2.8177,2.9449,2.8604,0.0,0.0,0.0,0.0,2.958,2.9841,0.0,0.0,0.0,0.0,0.0,0.0,0.0,0.0,0.0,0.0,0.0,0.0,0.0,0.0,0.0,0.0,0.0,0.0,0.0,0.0,0.0,0.0,0.0,0.0,0.0,0.0,0.0,0.0,0.0,0.0,0.0,0.0,0.0,0.0,0.0,0.0,0.0,0.0,0.0,0.0,0.0,0.0,0.0,0.0,0.0,0.0,0.0,0.0,0.0,0.0,0.0,0.0,0.0,0.0,0.0,0.0,3.5352,3.6707,3.8307,4.0136,4.0276,4.0276,4.0228,3.7831,3.6076,0.0,0.0,0.0,0.0,0.0,0.0,0.0,0.0,0.0,0.0,0.0,0.0,0.0,0.0,0.0,0.0,0.0,0.0,0.0,0.0,0.0,0.0,0.0,0.0,0.0,0.0,0.0,0.0,0.0,0.0,0.0,0.0,0.0,0.0,0.0,0.0,0.0,0.0,0.0,0.0,0.0,2.8926,3.0574,2.9815,2.9109,0.0,0.0,0.0,3.0809,3.1646,0.0,0.0,0.0,0.0,0.0,0.0,0.0,0.0,0.0,0.0,0.0,0.0,0.0,0.0,0.0,0.0,0.0,0.0,0.0,0.0,0.0,0.0,0.0,0.0,0.0,0.0,0.0,0.0,0.0,0.0,0.0,0.0,0.0,0.0,0.0,0.0,0.0,0.0,0.0,0.0,0.0,0.0,0.0,0.0,0.0,0.0,0.0,0.0,0.0,0.0,0.0,0.0,0.0,0.0,0.0,3.5168,3.6091,3.8138,3.9613,4.0443,4.0505,4.0505,4.0474,3.7923,3.6322,0.0,0.0,0.0,0.0,0.0,0.0,0.0,0.0,0.0,0.0,0.0,0.0,0.0,0.0,0.0,0.0,0.0,0.0,0.0,0.0,0.0,0.0,0.0,0.0,0.0,0.0,0.0,0.0,0.0,0.0,0.0,0.0,0.0,0.0,0.0,0.0,0.0,0.0,0.0,0.0,0.0,0.0,3.0914,3.0574,0.0,0.0,0.0,3.0764,3.0129,0.0,0.0,0.0,0.0,0.0,0.0,0.0,0.0,0.0,0.0,0.0,0.0,0.0,0.0,0.0,0.0,0.0,0.0,0.0,0.0,0.0,0.0,0.0,0.0,0.0,0.0,0.0,0.0,0.0,0.0,0.0,0.0,0.0,0.0,0.0,0.0,0.0,0.0,0.0,0.0,0.0,0.0,0.0,0.0,0.0,0.0,0.0,0.0,0.0,0.0,0.0,0.0,0.0,0.0,0.0,0.0,0.0,3.6538,3.9138,4.0505,4.0505,4.0505,4.0505,4.0443,3.8231,0.0,0.0,0.0,0.0,0.0,0.0,0.0,0.0,0.0,0.0,0.0,0.0,0.0,0.0,0.0,0.0,0.0,0.0,0.0,0.0,0.0,0.0,0.0,0.0,0.0,0.0,0.0,2.7794,0.0,0.0,0.0,0.0,0.0,0.0,0.0,0.0,0.0,0.0,0.0,0.0,0.0,0.0,3.1123,3.1487,3.1235,3.1224,0.0,0.0,3.1052,3.0634,3.2247,3.2777,0.0,0.0,0.0,0.0,0.0,0.0,0.0,0.0,0.0,0.0,0.0,0.0,0.0,0.0,0.0,0.0,0.0,0.0,0.0,0.0,0.0,0.0,0.0,0.0,0.0,0.0,0.0,0.0,0.0,0.0,0.0,0.0,0.0,0.0,0.0,0.0,0.0,0.0,0.0,0.0,0.0,0.0,0.0,0.0,0.0,0.0,0.0,0.0,0.0,0.0,0.0,0.0,0.0,0.0,0.0,3.6569,3.9138,4.0505,4.0505,4.0505,4.0505,4.0474,3.9107,3.7705,0.0,0.0,0.0,0.0,0.0,0.0,0.0,0.0,0.0,0.0,0.0,0.0,0.0,0.0,0.0,0.0,0.0,0.0,0.0,0.0,0.0,0.0,0.0,0.0,0.0,0.0,0.0,0.0,0.0,0.0,0.0,0.0,0.0,0.0,0.0,0.0,0.0,0.0,0.0,0.0,0.0,3.1505,3.2889,3.1891,3.1853,0.0,0.0,3.2267,3.3817,3.5072,3.5103,3.2849,0.0,0.0,0.0,0.0,0.0,0.0,0.0,0.0,0.0,0.0,0.0,0.0,0.0,0.0,0.0,0.0,0.0,0.0,0.0,0.0,0.0,0.0,0.0,0.0,0.0,0.0,0.0,0.0,0.0,0.0,0.0,0.0,0.0,0.0,0.0,0.0,0.0,0.0,0.0,0.0,0.0,0.0,0.0,0.0,0.0,0.0,0.0,0.0,0.0,0.0,0.0,0.0,0.0,3.6507,3.6538,3.9138,4.0505,4.0505,4.0505,4.0505,4.0505,3.9199,3.786,0.0,0.0,0.0,0.0,0.0,0.0,0.0,0.0,0.0,0.0,0.0,0.0,0.0,0.0,0.0,0.0,0.0,0.0,0.0,0.0,0.0,0.0,0.0,0.0,0.0,0.0,0.0,0.0,3.3005,3.2927,3.1898,0.0,0.0,0.0,0.0,0.0,0.0,0.0,0.0,0.0,0.0,3.4224,3.5637,3.5273,0.0,0.0,3.5634,3.5071,3.4912,3.5473,3.5103,3.2707,3.219,0.0,0.0,0.0,0.0,0.0,0.0,0.0,0.0,0.0,0.0,0.0,0.0,0.0,0.0,0.0,0.0,0.0,0.0,0.0,0.0,0.0,0.0,0.0,0.0,0.0,0.0,0.0,0.0,0.0,0.0,0.0,0.0,0.0,0.0,0.0,0.0,0.0,0.0,0.0,0.0,0.0,0.0,0.0,0.0,0.0,0.0,0.0,0.0,0.0,0.0,0.0,0.0,3.7092,3.7092,3.9753,4.1137,4.112,4.1137,4.112,4.1089,4.0214,3.9093,0.0,0.0,0.0,0.0,0.0,0.0,0.0,0.0,0.0,0.0,0.0,0.0,0.0,0.0,0.0,0.0,0.0,0.0,0.0,0.0,0.0,0.0,0.0,0.0,0.0,0.0,0.0,0.0,3.4364,3.4393,3.3722,0.0,0.0,0.0,0.0,0.0,0.0,0.0,0.0,0.0,0.0,3.6468,3.7476,3.7099,3.6826,3.7168,3.6675,3.6099,3.5695,3.5898,3.5499,3.3816,0.0,0.0,0.0,0.0,0.0,0.0,0.0,0.0,0.0,0.0,0.0,0.0,0.0,0.0,0.0,0.0,0.0,0.0,0.0,0.0,0.0,0.0,0.0,0.0,0.0,0.0,0.0,0.0,0.0,0.0,3.6363,0.0,0.0,0.0,0.0,0.0,0.0,0.0,0.0,0.0,0.0,0.0,0.0,0.0,0.0,0.0,0.0,0.0,0.0,0.0,0.0,0.0,0.0,0.0,3.8491,4.1107,4.2522,4.254,4.2553,4.254,4.2509,4.2509,4.1814,4.0399,0.0,0.0,0.0,0.0,0.0,0.0,0.0,0.0,0.0,0.0,0.0,0.0,0.0,0.0,0.0,0.0,0.0,0.0,0.0,0.0,0.0,0.0,0.0,0.0,0.0,0.0,3.2375,3.3196,3.4273,0.0,0.0,0.0,0.0,0.0,0.0,0.0,0.0,0.0,0.0,3.6586,3.7795,3.7982,3.6605,3.6135,3.7212,3.5625,3.4834,3.645,3.6699,3.6699,0.0,0.0,0.0,0.0,0.0,0.0,0.0,0.0,0.0,0.0,0.0,0.0,0.0,0.0,0.0,0.0,0.0,0.0,0.0,0.0,0.0,0.0,0.0,0.0,0.0,0.0,0.0,3.9712,3.9579,0.0,0.0,0.0,0.0,0.0,0.0,0.0,0.0,0.0,0.0,0.0,4.2447,4.293,0.0,0.0,0.0,0.0,0.0,0.0,0.0,0.0,0.0,0.0,0.0,0.0,3.8508,3.8631,4.1199,4.2602,4.2602,4.2602,4.2602,4.2602,4.2602,4.1937,4.0553,0.0,0.0,0.0,0.0,0.0,0.0,0.0,0.0,0.0,0.0,0.0,0.0,0.0,0.0,0.0,0.0,0.0,0.0,0.0,0.0,0.0,0.0,0.0,0.0,0.0,3.5385,0.0,0.0,0.0,0.0,0.0,0.0,0.0,0.0,0.0,0.0,0.0,3.6636,3.7858,3.8039,3.8421,3.9356,3.8868,3.8817,0.0,0.0,0.0,0.0,0.0,0.0,0.0,0.0,0.0,0.0,0.0,0.0,0.0,0.0,3.5915,3.6354,3.6948,3.7545,3.7993,0.0,0.0,0.0,0.0,0.0,0.0,0.0,0.0,0.0,0.0,0.0,0.0,0.0,0.0,0.0,0.0,4.1649,0.0,0.0,0.0,0.0,0.0,0.0,0.0,0.0,4.4091,4.4768,4.4781,4.5264,4.523,0.0,4.4061,4.2411,0.0,0.0,0.0,0.0,0.0,0.0,0.0,0.0,3.9199,3.9322,4.1894,4.331,4.3279,4.3279,4.3279,4.3279,4.331,4.2879,4.1955,4.0399,3.9138,0.0,0.0,0.0,0.0,0.0,0.0,0.0,0.0,0.0,0.0,0.0,0.0,0.0,0.0,0.0,0.0,0.0,0.0,0.0,0.0,0.0,0.0,0.0,3.6598,0.0,0.0,0.0,0.0,0.0,0.0,0.0,0.0,0.0,3.6907,3.7781,3.8792,3.9705,3.9804,3.9719,3.961,0.0,0.0,0.0,0.0,0.0,0.0,0.0,3.6628,3.633,3.6377,3.6856,3.8096,3.8662,3.895,3.895,0.0,0.0,3.7601,3.8157,3.881,3.8792,3.87,3.8752,3.9174,3.9113,3.9053,0.0,0.0,0.0,0.0,0.0,0.0,0.0,0.0,4.3642,4.2734,0.0,4.2758,0.0,0.0,0.0,0.0,0.0,0.0,0.0,0.0,4.8513,4.9217,4.7893,4.7858,4.7858,4.7741,4.6247,4.5445,4.5288,4.3735,0.0,0.0,0.0,0.0,0.0,0.0,4.0574,4.0697,4.326,4.4629,4.456,4.456,4.4591,4.456,4.456,4.4529,4.4498,4.2663,4.1594,4.1298,3.8411,0.0,0.0,0.0,0.0,0.0,0.0,0.0,0.0,0.0,0.0,0.0,0.0,0.0,0.0,0.0,0.0,0.0,0.0,0.0,0.0,3.6599,0.0,0.0,0.0,0.0,0.0,0.0,0.0,0.0,0.0,0.0,3.7738,3.9199,4.0443,4.0382,0.0,0.0,0.0,0.0,3.8369,3.589,3.4699,3.4486,3.526,3.6354,3.7781,3.9629,0.0,0.0,4.1935,4.094,4.0137,4.0107,4.1073,4.1055,3.8167,3.8026,3.8159,3.8129,3.8858,3.9178,3.9226,3.995,4.0254,4.7784,0.0,0.0,0.0,0.0,4.4687,4.536,4.6518,4.6518,4.6236,4.579,4.6217,0.0,0.0,0.0,0.0,0.0,0.0,4.7134,4.8686,4.9597,5.0306,5.0927,5.0927,5.0927,5.0878,5.0198,4.9857,4.9793,4.9132,4.6297,4.1479,0.0,0.0,0.0,0.0,4.2198,4.2834,4.4508,4.5123,4.461,4.4591,4.4591,4.4591,4.4591,4.4591,4.4591,4.4036,4.3279,4.2271,4.1335,0.0,0.0,0.0,0.0,0.0,0.0,0.0,0.0,0.0,0.0,0.0,0.0,0.0,0.0,0.0,0.0,0.0,0.0,0.0,3.7892,3.8799,3.8738,0.0,0.0,0.0,0.0,0.0,0.0,0.0,0.0,0.0,3.9644,3.9291,3.9076,0.0,0.0,3.7984,3.7184,3.8014,3.8714,3.8747,0.0,0.0,0.0,3.9634,3.9503,3.9942,4.1122,4.1984,4.1984,4.2094,4.2124,4.2124,4.2063,4.1674,4.1025,4.1539,4.2092,4.2231,4.2421,4.2549,4.258,4.2731,4.2841,5.0981,4.8924,4.7954,4.7553,4.7587,4.7573,4.8314,4.9479,4.9479,4.9169,4.8651,4.9238,4.8307,4.6293,4.6328,0.0,0.0,0.0,4.901,5.0858,5.0858,5.1341,5.2168,5.2203,5.2203,5.2188,5.1866,5.171,5.1676,5.0767,4.8422,4.462,0.0,0.0,4.2652,4.3412,4.4041,4.4535,4.5531,4.5839,4.5391,4.5391,4.5391,4.5391,4.5145,4.4868,4.4622,4.4868,4.4479,4.3433,4.3405,4.2546,0.0,0.0,0.0,0.0,0.0,0.0,0.0,0.0,0.0,0.0,0.0,3.7109,0.0,0.0,0.0,0.0,3.9267,3.9436,3.9311,3.9772,0.0,0.0,0.0,0.0,0.0,0.0,0.0,3.8031,3.9708,4.1045,4.1261,4.0614,4.0122,4.0122,3.9431,3.8723,3.8169,0.0,4.018,4.0318,4.0366,4.0699,4.1693,4.1722,4.1825,4.2542,4.3269,4.38,4.3812,4.4197,4.4411,4.4361,4.4086,4.3812,4.3831,4.4483,4.4567,4.3594,4.3621,4.3831,4.3861,4.4239,4.4636,5.3116,5.2689,5.0356,4.9793,5.0452,5.0438,5.1078,5.2168,5.2168,5.1444,5.0306,5.1548,5.0548,4.7893,4.7962,0.0,5.0168,5.0252,5.103,5.2375,5.2375,5.2375,5.2375,5.2394,5.2345,5.2345,5.2021,5.1865,5.1799,5.0174,4.9289,4.9138,4.8617,4.7561,4.6052,4.5868,4.5889,4.5841,4.6497,4.6829,4.6846,4.6797,4.6797,4.6877,4.6259,4.5692,4.5094,4.5708,4.57,4.4968,4.4937,4.463,4.3893,0.0,0.0,0.0,0.0,0.0,0.0,0.0,0.0,0.0,0.0,0.0,0.0,0.0,0.0,0.0,4.2585,0.0,4.0859,4.0247,0.0,0.0,0.0,3.9375,4.0553,4.0768,4.1045,4.1617,0.0,0.0,0.0,0.0,4.2817,4.2891,4.2737,4.2122,4.0843,4.1814,4.2294,4.1151,4.0984,4.1291,4.2289,4.3156,4.4326,4.5876,4.6603,4.643,4.6491,4.646,4.6573,4.6553,4.6634,4.6491,4.6573,4.646,4.5775,4.3271,4.3383,4.3882,4.3925,4.4799,4.561,5.4734,5.4415,5.3817,5.2839,5.1741,5.1741,5.1918,5.2203,5.2203,5.1996,5.1651,5.1479,5.0651,4.9493,5.0031,5.0789,5.1686,5.2321,5.308,5.3927,5.3961,5.3961,5.3961,5.3785,5.3722,5.3706,5.3385,5.3222,5.3222,5.2703,5.1826,5.0728,5.0532,4.9169,4.6694,4.6578,4.6518,4.6483,4.7775,4.8665,4.9154,4.8478,4.8438,4.9107,4.8989,4.8883,4.8745,4.9515,4.9228,4.7751,4.7338,4.6748,4.5911,4.2745,0.0,0.0,0.0,0.0,0.0,0.0,0.0,0.0,0.0,3.8701,3.7844,0.0,3.9503,0.0,4.2443,4.37,4.2939,4.3711,0.0,0.0,4.2351,4.2427,4.215,4.3002,4.331,4.2448,4.3248,4.3944,4.4129,4.4129,4.4529,4.5434,4.3864,4.2461,4.2153,4.3279,4.4036,4.3759,4.4418,4.5187,4.5341,4.5649,4.6049,4.6511,4.6634,4.6788,4.7281,4.6911,4.6757,4.7188,4.6942,4.6634,4.6634,4.6603,4.6449,4.5714,4.5753,4.573,4.5268,4.5792,4.6357,5.4946,5.4776,5.4776,5.4183,5.3237,5.3237,5.3203,5.3203,5.3237,5.3237,5.3203,5.2789,5.2375,5.203,5.2444,5.2823,5.3237,5.3685,5.4099,5.4478,5.4434,5.4574,5.4883,5.4706,5.4608,5.4591,5.431,5.4006,5.3701,5.3568,5.3061,5.2249,5.2536,5.1555,4.9273,4.7918,4.7218,4.7204,4.8264,4.9649,5.1233,5.0547,4.9717,4.8943,4.9012,4.8447,4.7219,4.7892,4.7721,4.6457,4.6705,4.6585,4.5753,4.3299,4.2282,0.0,0.0,0.0,0.0,0.0,0.0,0.0,0.0,0.0,0.0,0.0,4.2078,0.0,4.4659,0.0,4.438,4.5205,4.5331,4.4158,4.44,4.4598,4.4389,4.5033,4.5311,4.488,4.5464,4.6069,4.6326,4.6357,4.6634,4.7404,4.6203,4.5064,4.4572,4.5299,4.5926,4.6007,4.6819,4.7619,4.7896,4.7978,4.8081,4.8358,4.8419,4.8573,4.8912,4.8419,4.8112,4.8389,4.7958,4.7496,4.7496,4.7476,4.7404,4.7157,4.7311,4.7096,4.6284,4.6573,4.7034,5.4494,5.4494,5.4494,5.4494,5.4494,5.4494,5.4494,5.4494,5.4494,5.4444,5.4375,5.4356,5.4322,5.4203,5.4322,5.4341,5.4356,5.4444,5.4547,5.4616,5.4441,5.4772,5.5527,5.5329,5.5212,5.5212,5.5026,5.4584,5.3973,5.3856,5.3687,5.3551,5.4126,5.3687,5.2098,4.9525,4.8199,4.8068,4.8546,5.0073,5.2628,5.188,5.0281,4.7929,4.801,4.6962,4.4551,4.5083,4.5077,4.4348,4.5374,4.5844,4.5487,4.3907,4.3727,0.0,4.2892,0.0,0.0,0.0,0.0,0.0,0.0,0.0,0.0,4.5893,4.5746,4.5407,4.7576,4.8085,4.5832,4.6222,4.6487,4.633,4.6307,4.6479,4.6815,4.685,4.7065,4.7681,4.7711,4.7968,4.8419,4.8583,4.8553,4.8491,4.8368,4.7865,4.7127,4.7281,4.7619,4.7711,4.8214,4.8666,4.9312,4.961,4.9795,5.0451,5.0482,5.0728,5.0697,5.0205,4.9805,4.9857,4.9374,4.8912,4.886,4.882,4.8522,4.805,4.8235,4.8091,4.7127,4.725,4.7711,5.4494,5.4494,5.4494,5.4494,5.4494,5.4494,5.4494,5.4494,5.4494,5.4184,5.3598,5.3598,5.3237,5.272,5.3322,5.3598,5.3632,5.4253,5.4823,5.5375,5.5231,5.5562,5.6266,5.5962,5.5825,5.5825,5.5602,5.5447,5.5311,5.5277,5.4684,5.3534,5.3653,5.2942,5.1472,0.0,0.0,0.0,4.9638,5.0275,5.1256,4.943,4.8504,4.8652,4.9216,0.0,4.8767,4.951,4.924,4.777,4.7564,0.0,0.0,0.0,0.0,0.0,0.0,0.0,0.0,0.0,0.0,0.0,4.7188,4.6555,4.5814,4.5712,4.62,4.7257,4.8299,4.8959,4.9065,4.9697,4.984,4.9221,4.9117,4.8891,4.8327,4.8235,4.8276,4.8389,4.8419,4.845,4.8553,4.8583,4.8583,4.8583,4.8583,4.8491,4.8214,4.8276,4.8399,4.8419,4.8522,4.8881,4.9579,4.9733,5.0011,5.0513,5.0697,5.0944,5.1344,5.0944,5.0728,5.1128,5.0759,5.0266,5.0236,4.9866,4.9435,4.9333,4.8943,4.8389,4.7619,4.7937,4.8419,5.4494,0.0,5.4494,5.4494,0.0,5.4494,5.4494,5.4494,5.4494,5.4272,5.3927,5.3942,5.3736,5.3341,5.3754,5.3942,5.3977,5.4246,5.4764,5.547,5.5224,5.5689,5.6765,5.6522,5.6399,5.6381,5.6293,5.6071,5.5733,5.5699,5.5327,5.4617,5.4921,5.4735,5.4008,5.4329,5.3752,5.2249,5.1827,5.2307,5.3635,5.2214,5.1135,5.0626,0.0,0.0,0.0,0.0,0.0,0.0,0.0,0.0,0.0,0.0,0.0,5.1051,5.0491,5.0254,5.0626,5.066,5.0964,5.1708,5.1742,5.0795,4.8597,4.9424,5.0413,5.1128,5.1497,5.1862,5.2213,5.1918,5.1549,5.1107,5.071,5.0182,4.941,4.9259,4.9046,4.8666,4.8583,4.8583,4.8583,4.8583,4.8583,4.8583,4.8583,4.8583,4.8583,4.8583,4.8583,4.8583,4.8583,4.9004,4.9959,5.0174,5.0543,5.1405,5.1682,5.1836,5.2144,5.1652,5.1313,5.159,5.1159,5.0697,5.0667,5.0389,5.0174,5.0174,4.9897,4.9414,4.8789,4.8635,4.8583,5.4892,5.4908,5.4908,5.4908,5.4908,5.4892,5.4908,5.4858,0.0,0.0,0.0,5.4616,5.4685,5.472,5.4839,5.4908,5.4892,5.47,5.5047,5.5751,5.5383,5.5961,5.7253,5.7091,5.7002,5.7002,5.7002,5.6697,5.6122,5.6071,5.6105,5.6139,5.6697,5.7002,5.7036,5.7577,5.702,5.5225,5.3964,5.4173,5.576,5.4888,5.361,5.1978,5.2044,5.1571,5.0442,5.0376,5.0376,5.0376,5.0376,5.0542,5.0926,5.0992,5.1413,5.2301,5.2385,5.2892,5.3991,5.4093,5.4549,5.5631,5.5699,5.4651,5.2148,5.3721,5.4803,5.4803,5.4803,5.4769,5.4752,5.3374,5.2455,5.2437,5.1609,5.0696,4.997,4.989,4.9497,4.878,4.8583,4.8583,4.8583,4.8583,4.8583,4.8583,4.8583,4.8583,4.8583,4.8583,4.8583,4.8583,4.8583,4.9045,5.0143,5.0605,5.119,5.2144,5.2522,5.2729,5.2637,5.2267,5.1929,5.1929,5.1405,5.1159,5.1067,5.0974,5.0882,5.0882,5.0759,5.0513,5.0011,4.9404,4.8953,5.646,5.6495,5.646,5.646,5.6495,5.6495,5.6495,5.6357,5.5081,5.4529,5.4513,5.5168,5.5444,5.5478,5.6168,5.646,5.6444,5.6263,5.6591,0.0,5.6951,5.7219,5.8001,5.7855,5.7746,5.7764,5.773,5.7697,5.7577,5.7543,5.7577,5.7577,5.7697,5.773,5.7764,5.7866,5.7764,5.7374,5.4892,5.3353,5.2872,5.1586,5.078,5.0534,5.1111,5.1294,5.1071,5.1105,5.1038,5.1071,5.1071,5.1931,5.3838,5.3956,5.4852,5.6731,5.6968,5.6765,5.6359,5.6325,5.6139,5.5733,5.5699,5.5496,5.5124,5.5361,5.553,5.553,5.553,5.553,5.546,5.4051,5.3108,5.2987,5.1699,5.0514,4.9946,4.9843,4.9542,4.8748,4.8583,4.8614,4.8583,4.8583,4.8583,4.8583,4.8583,4.8583,4.8583,4.8583,4.8583,4.8583,4.8583,4.8953,4.9805,5.0359,5.0974,5.1713,5.2329,5.2575,5.2614,5.2429,5.2329,5.246,5.2236,5.2206,5.2236,5.1929,5.1498,5.1374,5.1036,5.0636,5.0442,5.0257,4.9897,5.7391,5.7357,5.6978,5.6805,5.6805,5.6805,5.6805,5.6736,5.6081,5.577,5.5805,5.6115,5.6253,5.6288,5.6633,5.6756,5.6622,5.6438,5.6696,5.7276,5.7065,5.7348,5.7993,5.7936,5.79,5.79,5.79,5.79,5.79,5.79,5.79,5.79,5.79,5.79,5.79,5.79,5.79,5.7866,5.6596,5.5749,5.5314,5.424,5.3887,5.4367,5.426,5.4367,5.482,5.4837,5.4837,5.4837,5.4837,5.531,5.6292,5.6411,5.6851,5.7832,5.79,5.7746,5.7426,5.7374,5.7273,5.6934,5.69,5.69,5.69,5.6511,5.6274,5.6274,5.6292,5.6292,5.6256,5.4859,5.4072,5.4516,5.305,5.1971,5.1604,5.1131,5.0455,4.9417,4.9189,4.9035,4.8666,4.8583,4.8583,4.8583,4.8583,4.8583,4.8583,4.8583,4.8583,4.8583,4.8583,4.9097,5.0011,5.0165,5.0759,5.199,5.1867,5.1836,5.2021,5.1906,5.1682,5.1621,5.1652,5.1621,5.1652,5.1405,5.119,5.1128,5.0944,5.0605,5.0288,4.9866,4.9466,5.8651,5.8599,5.8047,5.7805,5.7805,5.7805,5.7805,5.7805,5.784,5.7772,5.7704,5.7271,5.7047,5.7047,5.7219,5.7188,5.7003,5.6816,5.6951,5.7287,5.7125,5.734,5.7866,5.79,5.79,5.79,5.79,5.8001,5.8118,5.8152,5.8152,5.8137,5.8001,5.79,5.79,5.79,5.79,5.79,5.79,5.79,5.7881,5.7237,5.7237,5.779,5.7222,5.7218,5.7863,5.79,5.79,5.79,5.79,5.79,5.79,5.79,5.79,5.79,5.79,5.79,5.79,5.79,5.79,5.79,5.79,5.79,5.7866,5.7392,5.7036,5.7036,5.7036,5.7036,5.6878,5.5806,5.5203,5.5761,5.4394,5.3383,5.3328,5.2493,5.1403,5.0225,4.9974,4.9589,4.8881,4.8758,4.8789,4.8614,4.8583,4.8583,4.8583,4.8583,4.8583,4.8583,4.8583,4.8943,5.002,4.9959,5.0359,5.1867,5.1344,5.1097,5.1313,5.1128,5.0882,5.0913,5.1097,5.1128,5.0882,5.0913,5.0913,5.0851,5.0728,5.0543,5.0112,4.9497,4.9004,6.0978,6.0978,6.0806,6.0875,6.0771,6.0806,6.0771,6.0771,6.0875,6.0769,6.0317,5.8651,5.7823,5.7909,5.8496,5.872,5.8547,5.8373,5.8213,5.8103,5.7871,5.7832,5.7967,5.7934,5.79,5.7934,5.7967,5.8321,5.8896,5.8878,5.8878,5.881,5.822,5.79,5.79,5.79,5.79,5.79,5.79,5.79,5.79,5.7827,5.7827,5.7881,5.7827,5.7808,5.79,5.79,5.79,5.79,5.79,5.79,5.79,5.79,5.79,5.79,5.79,5.79,5.79,5.79,5.79,5.79,5.79,5.79,5.79,5.7832,5.778,5.7746,5.7764,5.7764,5.7762,5.6928,5.6364,5.6312,5.4956,5.3997,5.3914,5.2734,5.1508,5.0968,5.062,5.0112,4.8974,4.9066,4.922,4.8666,4.8676,4.8706,4.8706,4.8799,4.8799,4.8706,4.8645,4.8727,4.9035,4.9374,4.9805,5.0143,5.042,5.0574,5.0759,5.1097,5.1405,5.0451,5.1344,5.1498,5.1005,5.1097,5.119,5.0513,5.0451,5.0574,5.0482,4.9928,4.9374,6.2013,6.1979,6.1496,6.1323,6.1323,6.1323,6.1323,6.1323,6.1323,6.1235,6.1113,6.0288,5.9787,5.9592,5.9901,5.9896,5.9716,5.9643,5.9497,5.9331,5.9238,5.9201,5.9201,5.9201,5.9201,5.9201,5.9201,5.9336,5.952,5.9216,5.8776,5.8355,5.8035,5.79,5.79,5.79,5.79,5.79,5.79,5.79,5.79,5.79,5.79,5.79,5.79,5.79,5.79,5.79,5.79,5.79,5.79,5.79,5.79,5.79,5.79,5.79,5.79,5.79,5.79,5.79,5.79,5.79,5.79,5.79,5.79,5.79,5.79,5.79,5.79,5.79,5.7863,5.7554,5.7181,5.6594,5.5495,5.4629,5.4123,5.304,5.1973,5.1004,5.0739,5.0205,4.9004,4.883,4.8891,4.8706,4.8943,4.922,4.9251,4.9589,4.9805,4.9835,4.9835,4.9651,4.9374,4.9035,4.9435,4.9928,4.9774,4.9528,5.0112,4.9835,4.9722,4.9589,5.0359,5.0522,4.9528,4.962,4.9743,4.9589,4.9497,4.9466,4.9466,4.9251,4.8912,6.2825,6.2721,6.2151,6.1944,6.1944,6.1944,6.191,6.1926,6.189,6.1802,6.1747,6.1693,6.1473,6.1161,6.0931,6.0637,6.0415,6.0396,6.0303,6.0099,6.008,6.008,6.008,6.008,6.008,6.008,6.0047,6.0216,6.0351,5.9892,5.937,5.8863,5.861,5.8509,5.8509,5.8509,5.849,5.849,5.8321,5.8186,5.8186,5.8035,5.79,5.79,5.79,5.79,5.79,5.79,5.79,5.79,5.79,5.79,5.79,5.79,5.79,5.79,5.79,5.79,5.79,5.79,5.79,5.79,5.79,5.79,5.79,5.79,5.79,5.79,5.79,5.79,5.79,5.79,5.7625,5.6977,5.6172,5.5393,5.4808,5.3772,5.2625,5.1549,5.1429,5.082,4.9753,4.9404,4.9312,4.9374,4.9682,5.0011,5.0041,5.0359,5.0636,5.0697,5.0667,5.0503,5.002,4.9682,4.9774,5.0051,4.9866,4.962,5.0011,4.9682,4.9599,5.0605,4.9999,4.9845,5.0205,4.9866,4.9404,4.9281,4.9343,4.9435,4.9568,4.923,4.9251,6.3584,6.3531,6.3496,6.3393,6.3462,6.3427,6.3462,6.3324,6.3224,6.309,6.2817,6.2696,6.2479,6.2208,6.1444,6.0816,6.0501,6.0479,6.042,6.025,6.0216,6.0114,6.008,6.008,6.0148,6.0317,6.0317,6.0588,6.1163,6.1163,6.1197,6.1028,6.0216,5.9945,5.9877,5.9844,5.9979,5.9776,5.9268,5.8964,5.8878,5.8287,5.8001,5.8035,5.79,5.79,5.79,5.79,5.79,5.79,5.79,5.79,5.79,5.79,5.79,5.79,5.79,5.79,5.79,5.79,5.79,5.79,5.79,5.79,5.79,5.79,5.7915,5.7934,5.8001,5.7967,5.8069,5.8001,5.7824,5.7618,5.6987,5.6453,5.631,5.473,5.3735,5.288,5.239,5.188,5.1405,5.1005,5.0513,5.0451,5.0574,5.0667,5.0667,5.0728,5.0851,5.0882,5.0851,5.0728,5.0688,5.0359,5.042,5.0574,5.0482,5.0513,5.1067,5.1436,5.1559,5.1867,5.2122,5.206,5.1744,5.1374,5.0974,5.0851,5.0913,5.0913,5.0368,5.0513,5.0389,6.36,6.36,6.36,6.36,6.36,6.36,6.36,6.36,6.3526,6.3377,6.3189,6.3095,6.2885,6.2596,6.2244,6.1934,6.1685,6.1685,6.1646,6.1588,6.1569,6.1569,6.1569,6.1588,6.1569,6.1588,6.1588,6.1467,6.1298,6.1298,6.1028,6.0588,6.0283,6.008,6.008,6.008,6.008,6.008,5.981,5.9708,5.9708,5.9438,5.9302,5.9268,5.8389,5.79,5.79,5.79,5.79,5.79,5.79,5.79,5.79,5.79,5.79,5.79,5.79,5.79,5.79,5.79,5.79,5.79,5.79,5.7934,5.79,5.79,5.8084,5.849,5.8592,5.8761,5.8998,5.849,5.7626,5.6961,5.6623,5.6237,5.5492,5.4782,5.4027,5.298,5.2052,5.1304,5.1251,5.0851,5.0697,5.0728,5.1067,5.1313,5.1405,5.1682,5.1898,5.199,5.199,5.199,5.199,5.1159,5.0697,5.0697,5.0697,5.0974,5.1405,5.1713,5.1836,5.2306,5.3076,5.3067,5.2267,5.2175,5.1929,5.1805,5.1929,5.2113,5.1374,5.1374,5.1036,6.4324,6.4343,6.4343,6.4343,6.4324,6.4249,6.423,6.4177,6.408,6.381,6.3505,6.3395,6.3085,6.2649,6.263,6.2518,6.24,6.24,6.2415,6.2415,6.2415,6.2415,6.2415,6.2415,6.2415,6.24,6.2415,6.211,6.1704,6.167,6.1366,6.0892,6.0825,6.0825,6.0825,6.0825,6.0825,6.0825,6.0622,6.0486,6.0486,6.025,6.008,5.9945,5.9152,5.861,5.8592,5.8389,5.8254,5.822,5.8017,5.79,5.79,5.79,5.79,5.79,5.79,5.79,5.7934,5.8118,5.8254,5.8287,5.849,5.8592,5.8592,5.861,5.8863,5.9235,5.937,5.9607,5.9776,5.9167,5.8293,5.7681,5.7526,5.6998,5.5891,5.5637,5.479,5.3371,5.2413,5.1744,5.1405,5.1374,5.1405,5.1344,5.1775,5.2021,5.2113,5.239,5.2729,5.2729,5.2637,5.2606,5.2513,5.1898,5.159,5.1559,5.1436,5.1621,5.1836,5.2082,5.2421,5.286,5.3076,5.3014,5.2975,5.2883,5.279,5.2667,5.3129,5.3591,5.2821,5.2113,5.1836,6.5757,6.5654,6.5826,6.5585,6.5462,6.5222,6.5328,6.5117,6.4942,6.4381,6.3791,6.3623,6.3312,6.2671,6.2691,6.2536,6.2637,6.2584,6.2502,6.2415,6.2415,6.2415,6.2415,6.2415,6.2415,6.2415,6.2415,6.2381,6.2313,6.2299,6.2245,6.2313,6.2178,6.211,6.2333,6.2178,6.2299,6.211,6.1569,6.1298,6.1231,6.0655,6.0317,6.0283,6.0148,6.0114,6.008,5.9385,5.8979,5.8945,5.8389,5.7967,5.8103,5.8103,5.7983,5.8103,5.8001,5.7967,5.8069,5.866,5.9013,5.9081,5.9607,5.9844,5.981,5.9844,5.9945,6.0114,6.0114,6.0182,6.025,6.0182,5.9986,5.9986,5.951,5.8806,5.7869,5.7374,5.6412,5.427,5.3506,5.3353,5.2891,5.2583,5.2553,5.2583,5.2645,5.2645,5.2583,5.2737,5.2737,5.2729,5.2729,5.2729,5.2729,5.2698,5.2667,5.2606,5.2452,5.2483,5.2645,5.2891,5.3199,5.3629,5.3937,5.3937,5.4268,5.4237,5.4422,5.4422,5.4853,5.4699,5.3899,5.3106,5.2829,6.4289,6.4289,6.4343,6.4289,6.4289,6.4215,6.4121,6.4057,6.4485,6.4395,6.3976,6.4418,6.4367,6.3977,6.3903,6.3869,6.3869,6.3396,6.2888,6.2448,6.2415,6.2415,6.2415,6.2415,6.2415,6.2415,6.2415,6.2415,6.2415,6.2415,6.2415,6.2415,6.2415,6.2415,6.2415,6.2415,6.2415,6.2367,6.2178,6.2042,6.2042,6.1806,6.167,6.167,6.169,6.169,6.1622,6.0452,5.981,5.9742,5.9539,5.9404,5.9404,5.9404,5.9438,5.9404,5.9404,5.9404,5.9438,5.9607,5.9776,5.981,6.0013,6.008,6.008,6.0148,6.0385,6.0825,6.0926,6.1095,6.1535,6.169,6.1205,6.0104,5.9333,5.8915,5.8216,5.7077,5.578,5.473,5.4399,5.4091,5.3599,5.3383,5.3383,5.3383,5.3383,5.3291,5.2891,5.3106,5.3137,5.2829,5.2768,5.2768,5.286,5.2914,5.2891,5.2852,5.279,5.2768,5.3045,5.3445,5.3814,5.4276,5.4614,5.4952,5.5284,5.5499,5.5561,5.5561,5.5468,5.5099,5.4522,5.406,5.3629,6.5255,6.5255,6.5179,6.5141,6.5157,6.4988,6.4868,6.482,6.527,6.4971,6.4367,6.4699,6.4537,6.3909,6.3768,6.3768,6.3734,6.3294,6.2854,6.2468,6.2415,6.2415,6.2415,6.2415,6.2415,6.2415,6.2415,6.2415,6.2415,6.2415,6.2415,6.2415,6.2415,6.2415,6.2415,6.2415,6.2415,6.2415,6.2381,6.2415,6.2415,6.2415,6.2415,6.2381,6.2381,6.2415,6.2313,6.1434,6.0825,6.0554,6.0283,6.0114,6.008,6.008,6.008,6.008,6.008,6.008,6.0114,6.0351,6.0554,6.0588,6.0791,6.096,6.096,6.096,6.1231,6.1603,6.1704,6.1907,6.2299,6.2381,6.1888,6.0973,6.0393,5.9724,5.9161,5.772,5.6509,5.5827,5.5325,5.4807,5.4276,5.406,5.4091,5.406,5.406,5.3845,5.3383,5.3414,5.3199,5.3045,5.3076,5.3076,5.3076,5.3106,5.3106,5.3037,5.2914,5.2891,5.2983,5.3445,5.3845,5.473,5.5222,5.5561,5.5899,5.6077,5.617,5.6139,5.593,5.5715,5.5253,5.4553,5.406,6.7911,6.796,6.7747,6.7413,6.7319,6.6977,6.6664,6.6902,6.675,6.5888,6.4911,6.4986,6.4268,6.3077,6.3362,6.3362,6.2753,6.299,6.3043,6.2874,6.2773,6.2685,6.2584,6.2584,6.255,6.2415,6.2415,6.2415,6.2415,6.2415,6.2415,6.2415,6.2415,6.2415,6.2415,6.2415,6.2415,6.2415,6.2415,6.2415,6.2415,6.2415,6.2415,6.2415,6.2415,6.2415,6.2347,6.2212,6.1941,6.1366,6.0757,6.0452,6.0283,6.0216,6.0385,6.0419,6.0283,6.0351,6.0452,6.0994,6.1366,6.14,6.1839,6.2381,6.2178,6.2076,6.211,6.2245,6.2279,6.2367,6.2381,6.2415,6.2308,6.2327,6.1816,6.1406,6.0837,5.9274,5.8071,5.7218,5.6395,5.5664,5.5132,5.4947,5.4877,5.4768,5.4737,5.4399,5.3845,5.3599,5.3383,5.3229,5.3137,5.3106,5.3014,5.3014,5.3014,5.2953,5.2944,5.3014,5.3168,5.3629,5.4183,5.5037,5.5677,5.6077,5.6385,5.6477,5.6447,5.6231,5.62,5.6262,5.5653,5.4645,5.4122,6.6482,6.6462,6.6404,6.6404,6.6346,6.6093,6.6009,6.6091,6.6384,6.616,6.5773,6.6282,6.601,6.5628,6.5493,6.5662,6.5256,6.4918,6.4837,6.4769,6.4241,6.37,6.3294,6.3226,6.2956,6.2536,6.255,6.2415,6.2415,6.2482,6.2448,6.2415,6.2434,6.2415,6.2415,6.2415,6.2415,6.2415,6.2415,6.2415,6.2415,6.2415,6.2415,6.2415,6.2415,6.2415,6.2415,6.2415,6.2367,6.2144,6.196,6.1772,6.1724,6.167,6.1637,6.167,6.1704,6.1738,6.1772,6.1941,6.2076,6.213,6.2245,6.2381,6.2415,6.2415,6.2415,6.2415,6.2415,6.2415,6.2415,6.2415,6.2415,6.2322,6.1931,6.1173,6.0343,5.9599,5.9025,5.8354,5.8357,5.7715,5.6869,5.6421,5.6246,5.5759,5.5533,5.5247,5.4715,5.4522,5.4591,5.3275,5.2891,5.2891,5.2891,5.2891,5.286,5.2829,5.2922,5.3191,5.3537,5.406,5.4706,5.5468,5.5776,5.617,5.6508,5.6724,5.6539,5.6354,5.617,5.6046,5.4945,5.3937,5.3753,6.6827,6.6807,6.671,6.6725,6.6652,6.6356,6.6237,6.628,6.6385,6.6256,6.6072,6.6322,6.6294,6.5899,6.5811,6.5844,6.5797,6.5425,6.5189,6.5189,6.5053,6.4613,6.4106,6.3971,6.3734,6.3396,6.3294,6.3328,6.3294,6.3024,6.2854,6.2821,6.2536,6.2415,6.2415,6.2415,6.2415,6.2415,6.2415,6.2415,6.2415,6.2415,6.2415,6.2415,6.2415,6.2415,6.2415,6.2415,6.2415,6.2381,6.2381,6.2415,6.2415,6.2415,6.2415,6.2415,6.2415,6.2381,6.2415,6.2415,6.2415,6.24,6.2415,6.2415,6.2415,6.2415,6.2415,6.2415,6.2415,6.2415,6.2415,6.2415,6.2415,6.2341,6.1911,6.135,6.0799,6.0471,6.0073,5.977,5.9534,5.9336,5.8234,5.8157,5.7888,5.7548,5.7525,5.6881,5.6152,5.6053,5.5728,5.4699,5.4253,5.4637,5.4576,5.4483,5.4114,5.3899,5.3745,5.3837,5.4183,5.4706,5.5161,5.5715,5.5961,5.62,5.6416,5.6631,5.6693,5.6477,5.62,5.5862,5.5007,5.4122,5.3845,6.8083,6.8064,6.7899,6.7799,6.769,6.7407,6.7114,6.7133,6.6933,6.649,6.6063,6.5873,6.5784,6.4816,6.5392,6.4986,6.4986,6.5222,6.5087,6.5256,6.5459,6.5459,6.5019,6.4749,6.458,6.441,6.458,6.4478,6.4241,6.3835,6.3612,6.3531,6.299,6.2739,6.2821,6.2685,6.2516,6.255,6.2468,6.2434,6.2415,6.2415,6.2415,6.2415,6.2415,6.2415,6.2415,6.2415,6.2415,6.2415,6.2415,6.2415,6.2415,6.2415,6.2415,6.2415,6.2415,6.2415,6.2415,6.2415,6.2415,6.2415,6.2415,6.2415,6.2415,6.2415,6.2415,6.2415,6.2415,6.2415,6.2415,6.2415,6.2415,6.2381,6.2341,6.2415,6.233,6.1702,6.1111,6.104,6.0269,6.0087,5.976,5.9837,5.9912,5.9479,5.9405,5.8946,5.8205,5.782,5.7441,5.6684,5.6641,5.6939,5.6662,5.6293,5.58,5.5345,5.5099,5.5099,5.5284,5.5653,5.5776,5.5992,5.5961,5.5961,5.6053,5.6293,5.6447,5.6139,5.553,5.5892,5.6077,5.5099,5.4522,6.8083,6.8064,6.7865,6.7799,6.7759,6.755,6.7414,6.7373,6.7201,6.6975,6.6839,6.6638,6.644,6.625,6.6183,6.6318,6.6183,6.6203,6.6318,6.6373,6.6453,6.6487,6.617,6.573,6.5155,6.485,6.4647,6.4647,6.458,6.4546,6.4377,6.4309,6.4106,6.4106,6.3971,6.3463,6.324,6.3159,6.2719,6.2468,6.2415,6.2415,6.2415,6.2415,6.2415,6.2415,6.2415,6.2415,6.2415,6.2415,6.2415,6.2415,6.2415,6.2415,6.2415,6.2415,6.2415,6.2415,6.2415,6.2415,6.2415,6.2415,6.2415,6.2415,6.2415,6.2415,6.2415,6.2415,6.2415,6.2415,6.2415,6.2415,6.2502,6.2516,6.2536,6.2739,6.2984,6.2574,6.187,6.1529,6.1978,6.2133,6.0837,6.1785,6.1819,6.1475,6.1221,6.0969,6.0448,5.9791,5.9376,5.8916,5.8359,5.8373,5.7748,5.7373,5.697,5.6693,5.6539,5.6546,5.673,5.6546,5.6724,5.6354,5.5807,5.5899,5.6269,5.5622,5.5715,5.5253,5.4976,5.5222,5.5345,5.5045,5.5014,6.8083,6.8083,6.7999,6.7899,6.7779,6.7577,6.7448,6.7325,6.7118,6.7035,6.6993,6.6854,6.6791,6.6791,6.6791,6.6791,6.6791,6.6791,6.6791,6.6757,6.6791,6.6791,6.6757,6.6474,6.5967,6.5628,6.5662,6.5628,6.5561,6.529,6.5141,6.5053,6.4816,6.4512,6.458,6.4208,6.3815,6.3477,6.3159,6.2787,6.2468,6.2415,6.2415,6.2415,6.2415,6.2415,6.2415,6.2415,6.2415,6.2415,6.2415,6.2415,6.2415,6.2415,6.2415,6.2415,6.2415,6.2415,6.2415,6.2415,6.2415,6.2415,6.2415,6.2415,6.2415,6.2415,6.2415,6.2415,6.2415,6.2415,6.2415,6.2821,6.2888,6.299,6.3226,6.3599,6.3802,6.3362,6.2972,6.279,6.3444,6.3373,6.3296,6.3482,6.3566,6.3169,6.3169,6.2962,6.2792,6.2183,6.1837,6.1282,6.0248,5.9583,5.8844,5.8328,5.7949,5.7863,5.7925,5.8116,5.8393,5.8023,5.7678,5.7155,5.6693,5.6669,5.6823,5.5992,5.5345,5.5345,5.5222,5.4799,5.4614,5.4829,5.4891,6.8083,6.8083,6.8044,6.7959,6.7739,6.7591,6.7366,6.7118,6.6972,6.6875,6.6791,6.6791,6.6791,6.6791,6.6791,6.6791,6.6791,6.6791,6.6791,6.6791,6.6791,6.6791,6.6757,6.6724,6.6677,6.6791,6.6622,6.6656,6.6508,6.6237,6.5865,6.5764,6.5324,6.5087,6.4884,6.4749,6.4343,6.3632,6.3409,6.3057,6.2536,6.2415,6.2415,6.2415,6.2415,6.2415,6.2415,6.2415,6.2415,6.2415,6.2415,6.2415,6.2415,6.2415,6.2415,6.2415,6.2415,6.2415,6.2415,6.2415,6.2415,6.2415,6.2415,6.2415,6.2415,6.2415,6.2415,6.2468,6.2536,6.2753,6.2753,6.3294,6.3612,6.3748,6.4241,6.4613,6.4647,6.4174,6.4106,6.4003,6.4301,6.4386,6.4425,6.4577,6.478,6.4897,6.4877,6.4834,6.4598,6.4255,6.3721,6.3264,6.2218,6.0895,6.0055,5.9854,5.9422,5.9061,5.9197,5.9481,5.9776,5.9408,5.891,5.8233,5.7863,5.7709,5.7186,5.6354,5.5892,5.5831,5.553,5.5161,5.4952,5.4806,5.4768,6.8083,6.8064,6.7919,6.7739,6.7557,6.753,6.727,6.6972,6.7077,6.7014,6.6833,6.6812,6.6833,6.6812,6.6812,6.6791,6.6812,6.6812,6.6812,6.6791,6.6791,6.6791,6.6791,6.6791,6.6791,6.6791,6.6791,6.6791,6.6791,6.6677,6.6508,6.6542,6.6406,6.6102,6.5628,6.5446,6.4803,6.3802,6.3565,6.3145,6.2584,6.2415,6.2415,6.2415,6.2415,6.2415,6.2415,6.2415,6.2415,6.2415,6.2415,6.2415,6.2415,6.2415,6.2415,6.2415,6.2415,6.2415,6.2415,6.2415,6.2415,6.2415,6.2415,6.2415,6.2415,6.2415,6.2448,6.2651,6.3057,6.3531,6.4174,6.4309,6.4377,6.4478,6.4647,6.4952,6.5324,6.5317,6.4827,6.4393,6.487,6.5244,6.5081,6.5067,6.521,6.5337,6.551,6.5711,6.5867,6.5477,6.4973,6.4546,6.403,6.2618,6.1279,6.1278,6.1055,6.0418,6.0378,6.0521,6.0713,6.0614,6.0173,5.928,5.8448,5.7925,5.734,5.6816,5.6416,5.6293,5.5923,5.5561,5.5253,5.4983,5.4922,6.8083,6.8083,6.7984,6.7859,6.7678,6.7658,6.7455,6.7208,6.7304,6.727,6.7188,6.7146,6.7146,6.7126,6.7056,6.6938,6.6854,6.6972,6.6917,6.6833,6.6791,6.6791,6.6791,6.6791,6.6791,6.6791,6.6791,6.6791,6.6791,6.6791,6.6791,6.6791,6.6791,6.6588,6.6258,6.5955,6.5203,6.4248,6.38,6.3292,6.2502,6.2468,6.2434,6.2434,6.2415,6.2415,6.2415,6.2415,6.2415,6.2415,6.2415,6.2415,6.2415,6.2415,6.2415,6.2415,6.2415,6.2415,6.2415,6.2415,6.2415,6.2415,6.2415,6.2415,6.2415,6.2415,6.255,6.3004,6.3599,6.4208,6.4546,6.4918,6.5121,6.5222,6.5459,6.5831,6.6136,6.6237,6.564,6.4881,6.5118,6.5309,6.5049,6.5149,6.5437,6.5746,6.6007,6.632,6.6686,6.6418,6.5833,6.5614,6.5092,6.4044,6.2887,6.2844,6.2524,6.1862,6.1596,6.1743,6.1402,6.1209,6.0722,5.9993,5.9218,5.8572,5.8448,5.8264,5.7525,5.6847,5.6847,5.6601,5.5684,5.5168,5.5199,6.8083,6.8083,6.8083,6.7965,6.7819,6.7799,6.7678,6.7516,6.7475,6.7475,6.7496,6.7475,6.7455,6.7469,6.7325,6.7126,6.6959,6.718,6.716,6.7001,6.6917,6.6875,6.6875,6.6812,6.6791,6.6791,6.6791,6.6791,6.6791,6.6791,6.6791,6.6791,6.6791,6.6698,6.649,6.6343,6.561,6.4958,6.4557,6.3843,6.3142,6.29,6.2759,6.2637,6.2637,6.2584,6.2415,6.2415,6.2415,6.2415,6.2415,6.2415,6.2415,6.2415,6.2415,6.2415,6.2415,6.2415,6.2415,6.2415,6.2415,6.2415,6.2415,6.2415,6.2415,6.2482,6.2685,6.3409,6.3883,6.4377,6.4613,6.5243,6.5561,6.5784,6.6237,6.6757,6.669,6.669,6.6656,6.6097,6.5767,6.5569,6.5525,6.5547,6.5898,6.5724,6.5942,6.5964,6.6333,6.6728,6.6461,6.6418,6.5997,6.5181,6.4544,6.4443,6.392,6.3103,6.2924,6.3028,6.2348,6.1646,6.1099,6.0619,6.0209,5.9711,5.9711,5.947,5.8756,5.8233,5.811,5.7617,5.6724,5.6115,5.593,6.8083,6.8083,6.8083,6.7965,6.7819,6.7819,6.7699,6.7516,6.7516,6.7496,6.7536,6.755,6.755,6.7496,6.753,6.7469,6.7394,6.7414,6.7428,6.7291,6.7222,6.7139,6.7118,6.6896,6.6875,6.6854,6.6833,6.6791,6.6791,6.6791,6.6791,6.6791,6.6779,6.6604,6.639,6.6582,6.6399,6.5531,6.5707,6.5491,6.4684,6.4455,6.4069,6.3611,6.3348,6.3111,6.2657,6.257,6.2482,6.2415,6.2415,6.2415,6.2415,6.2415,6.2415,6.2415,6.2415,6.2415,6.2415,6.2415,6.2415,6.2415,6.2415,6.2415,6.2415,6.2516,6.2821,6.3409,6.368,6.4038,6.4613,6.5243,6.5581,6.5865,6.617,6.6576,6.6745,6.6791,6.6791,6.6643,6.6084,6.6213,6.6287,6.632,6.6333,6.6062,6.5855,6.5877,6.6084,6.6546,6.6791,6.6686,6.6588,6.591,6.5614,6.5592,6.5204,6.4355,6.4147,6.4133,6.3371,6.2558,6.1728,6.1249,6.0932,6.0594,6.0332,6.0055,5.9716,5.954,5.9383,5.869,5.7795,5.7303,5.7009,6.8083,6.8083,6.8083,6.8044,6.7965,6.7979,6.7939,6.7859,6.7839,6.7839,6.7839,6.7839,6.7779,6.7699,6.7779,6.7699,6.7591,6.7652,6.7597,6.7516,6.7428,6.7387,6.7366,6.7263,6.718,6.7035,6.7014,6.6896,6.6854,6.6812,6.6791,6.6791,6.6812,6.6732,6.6432,6.6596,6.6317,6.5866,6.5742,6.5542,6.5224,6.5102,6.496,6.452,6.4347,6.39,6.3317,6.3063,6.2753,6.255,6.2415,6.2415,6.2415,6.2415,6.2415,6.2415,6.2415,6.2415,6.2415,6.2415,6.2415,6.2415,6.2415,6.2415,6.2482,6.2753,6.3057,6.3443,6.3903,6.4241,6.4444,6.485,6.4986,6.529,6.573,6.6068,6.6373,6.6724,6.677,6.6567,6.6461,6.6567,6.6482,6.592,6.5811,6.5767,6.5767,6.5975,6.6213,6.6631,6.6791,6.6791,6.6728,6.6525,6.6418,6.6354,6.629,6.5592,6.4979,6.4821,6.4355,6.3609,6.2753,6.2096,6.1784,6.1438,6.0995,6.0609,6.024,6.0377,6.0594,5.9992,5.9389,5.9183,5.8558,6.8083,6.8083,6.8083,6.8083,6.8083,6.8083,6.8083,6.8083,6.8064,6.8083,6.8083,6.8064,6.8019,6.7939,6.7999,6.7939,6.7678,6.7819,6.7779,6.7678,6.7597,6.7557,6.7536,6.7496,6.7407,6.7263,6.7263,6.7167,6.7063,6.698,6.6959,6.6812,6.6896,6.6925,6.6948,6.6923,6.675,6.6682,6.6371,6.6185,6.6057,6.6023,6.5847,6.5576,6.5306,6.4846,6.399,6.3662,6.3204,6.2629,6.242,6.24,6.2415,6.2415,6.2415,6.2415,6.2415,6.2415,6.2415,6.2415,6.2415,6.2415,6.2415,6.2415,6.2468,6.299,6.3226,6.3159,6.3497,6.3802,6.4072,6.414,6.4343,6.458,6.4986,6.5324,6.5696,6.6102,6.6555,6.6728,6.6665,6.6707,6.6375,6.5448,6.5204,6.5337,6.5581,6.6019,6.6375,6.6749,6.6791,6.6791,6.6791,6.6749,6.6749,6.6749,6.6791,6.6665,6.6019,6.5481,6.4979,6.4492,6.382,6.3228,6.2656,6.2072,6.1551,6.1149,6.0789,6.0733,6.0834,6.1346,6.1204,6.0929,6.0026,6.8083,6.8083,6.8083,6.8083,6.8083,6.8083,6.8083,6.8083,6.8083,6.8083,6.8083,6.8083,6.8083,6.8064,6.8064,6.8064,6.8024,6.8098,6.8039,6.7979,6.7899,6.7799,6.7739,6.7638,6.7516,6.751,6.7455,6.7455,6.7414,6.7312,6.7126,6.6875,6.7097,6.7284,6.736,6.7406,6.7545,6.7584,6.7497,6.7472,6.7427,6.7333,6.7102,6.6496,6.6211,6.5645,6.421,6.4117,6.3688,6.3008,6.2721,6.257,6.2637,6.2448,6.2415,6.2415,6.2415,6.2415,6.2415,6.2415,6.2415,6.2415,6.2415,6.2415,6.2434,6.2415,6.2516,6.2618,6.2922,6.2821,6.2956,6.3091,6.3531,6.3802,6.4208,6.4715,6.5087,6.5459,6.5967,6.6555,6.6724,6.6643,6.6791,6.6019,6.5658,6.5811,6.6062,6.644,6.6503,6.6791,6.6791,6.6791,6.6791,6.6791,6.6791,6.6791,6.6791,6.6791,6.6461,6.5975,6.5526,6.5069,6.4867,6.4077,6.3419,6.2753,6.2096,6.1677,6.1303,6.0918,6.1062,6.1715,6.2126,6.1941,6.0878,6.8083,6.8083,6.8083,6.8083,6.8083,6.8083,6.8083,6.8083,6.8083,6.8083,6.8083,6.8083,6.8083,6.8083,6.8083,6.8083,6.8083,6.8083,6.8083,6.8064,6.8004,6.7965,6.7925,6.7899,6.7819,6.7699,6.7678,6.7597,6.7475,6.7536,6.7435,6.7312,6.7366,6.7373,6.7536,6.7719,6.7919,6.8024,6.8083,6.8024,6.8004,6.7965,6.7787,6.7521,6.7307,6.6773,6.5877,6.5562,6.4892,6.414,6.3532,6.321,6.2942,6.2651,6.2448,6.2415,6.2415,6.2415,6.2415,6.2415,6.2415,6.2415,6.2415,6.2415,6.2415,6.2415,6.2415,6.2415,6.2415,6.2415,6.2516,6.2651,6.2854,6.3024,6.3396,6.4005,6.4478,6.4816,6.5324,6.5933,6.617,6.6237,6.6542,6.6728,6.6482,6.6342,6.661,6.6791,6.6791,6.6791,6.6791,6.6791,6.6791,6.6791,6.6791,6.6791,6.6791,6.6791,6.6791,6.644,6.6062,6.6235,6.591,6.5047,6.4332,6.3844,6.318,6.2344,6.1753,6.1277,6.1576,6.2238,6.2546,6.2804,6.1972,6.8083,6.8083,6.8083,6.8083,6.8083,6.8083,6.8083,6.8083,6.8083,6.8083,6.8083,6.8083,6.8083,6.8083,6.8083,6.8083,6.8083,6.8083,6.8083,6.8083,6.8083,6.8083,6.8083,6.8064,6.7965,6.7919,6.7879,6.7819,6.7719,6.7678,6.7678,6.7678,6.7678,6.7678,6.7638,6.7799,6.7979,6.8044,6.8083,6.8083,6.8083,6.8083,6.8064,6.8009,6.7856,6.7438,6.6775,6.6327,6.5801,6.5028,6.4378,6.39,6.3475,6.3057,6.2671,6.2502,6.2415,6.2415,6.2415,6.2415,6.2415,6.2415,6.2415,6.2415,6.2415,6.2415,6.2415,6.2415,6.2415,6.2415,6.2415,6.2482,6.2516,6.2719,6.2821,6.3328,6.3734,6.414,6.4681,6.5222,6.5527,6.5933,6.6237,6.6576,6.6694,6.6567,6.6686,6.6791,6.6791,6.6791,6.6791,6.6791,6.6791,6.6791,6.6791,6.6791,6.6791,6.6791,6.6791,6.6791,6.6665,6.6791,6.6728,6.5997,6.536,6.5002,6.4286,6.3395,6.2436,6.15,6.2196,6.3012,6.3132,6.3338,6.3251,6.8083,6.8083,6.8083,6.8083,6.8083,6.8083,6.8083,6.8083,6.8083,6.8083,6.8083,6.8083,6.8083,6.8083,6.8083,6.8083,6.8083,6.8083,6.8083,6.8083,6.8083,6.8083,6.8083,6.8083,6.8064,6.8083,6.8044,6.8004,6.8024,6.7965,6.7984,6.8004,6.7945,6.7939,6.7839,6.7999,6.8083,6.8083,6.8083,6.8083,6.8083,6.8083,6.8083,6.8083,6.8064,6.7679,6.7276,6.7005,6.6479,6.5727,6.5193,6.4605,6.3889,6.3565,6.3091,6.2584,6.2448,6.2415,6.2415,6.2415,6.2415,6.2415,6.2415,6.2415,6.2415,6.2415,6.2415,6.2415,6.2415,6.2415,6.2415,6.2415,6.2415,6.2448,6.2584,6.2719,6.3159,6.3396,6.3903,6.4444,6.5121,6.5696,6.5967,6.6271,6.6622,6.6736,6.6791,6.6791,6.6791,6.6791,6.6791,6.6791,6.6791,6.6791,6.6791,6.6791,6.6791,6.6791,6.6791,6.6791,6.6791,6.6791,6.6707,6.6546,6.6192,6.5658,6.5092,6.4447,6.3609,6.2947,6.3276,6.3844,6.3891,6.3914,6.3937,6.8083,6.8083,6.8083,6.8083,6.8083,6.8083,6.8083,6.8083,6.8083,6.8083,6.8083,6.8083,6.8083,6.8083,6.8083,6.8083,6.8083,6.8083,6.8083,6.8083,6.8083,6.8083,6.8083,6.8083,6.8083,6.8083,6.8083,6.8083,6.8064,6.8083,6.8083,6.8083,6.8083,6.8044,6.8039,6.8098,6.8083,6.8083,6.8083,6.8083,6.8083,6.8083,6.8083,6.8083,6.8083,6.7911,6.7669,6.7537,6.7152,6.6579,6.6145,6.5521,6.4729,6.4275,6.3409,6.299,6.2787,6.2415,6.2415,6.2415,6.2415,6.2415,6.2415,6.2415,6.2415,6.2415,6.2415,6.2415,6.2415,6.2415,6.2415,6.2415,6.2415,6.2415,6.2482,6.2502,6.2705,6.2753,6.3024,6.3599,6.4241,6.5019,6.5493,6.5899,6.6305,6.6656,6.669,6.6791,6.6791,6.6791,6.6791,6.6791,6.6791,6.6791,6.6791,6.6791,6.6791,6.6791,6.6791,6.6791,6.6791,6.6791,6.677,6.6686,6.6482,6.6235,6.5811,6.536,6.4934,6.4607,6.472,6.4766,6.4834,6.4867,6.4867,6.8083,6.8083,6.8083,6.8083,6.8083,6.8083,6.8083,6.8083,6.8083,6.8083,6.8083,6.8083,6.8083,6.8083,6.8083,6.8083,6.8083,6.8083,6.8083,6.8083,6.8083,6.8083,6.8083,6.8083,6.8083,6.8083,6.8083,6.8083,6.8083,6.8083,6.8083,6.8083,6.8083,6.8083,6.8083,6.8083,6.8083,6.8083,6.8083,6.8083,6.8083,6.8083,6.8083,6.8083,6.8083,6.8049,6.8083,6.8024,6.7925,6.7507,6.7065,6.646,6.563,6.4722,6.3835,6.3409,6.2854,6.2482,6.2415,6.2415,6.2415,6.2415,6.2415,6.2415,6.2415,6.2415,6.2415,6.2415,6.2415,6.2415,6.2415,6.2415,6.2415,6.2415,6.2434,6.2434,6.2434,6.2482,6.255,6.3057,6.3531,6.4309,6.5019,6.5493,6.5933,6.6305,6.6643,6.669,6.6791,6.6791,6.6791,6.6791,6.6791,6.6791,6.6791,6.6791,6.6791,6.6791,6.6791,6.6791,6.6791,6.6791,6.6791,6.6791,6.6665,6.6546,6.6546,6.6268,6.5789,6.5658,6.5789,6.5811,6.5811,6.5658,6.5481,6.8083,6.8083,6.8083,6.8083,6.8083,6.8182,6.8162,6.8103,6.8083,6.8083,6.8083,6.8083,6.8083,6.8083,6.8083,6.8083,6.8083,6.8083,6.8083,6.8083,6.8083,6.8083,6.8083,6.8083,6.8083,6.8083,6.8083,6.8083,6.8083,6.8083,6.8083,6.8083,6.8083,6.8083,6.8083,6.8083,6.8083,6.8083,6.8083,6.8083,6.8083,6.8083,6.8083,6.8083,6.8083,6.8083,6.8083,6.8024,6.7959,6.7725,6.7509,6.6875,6.6072,6.5122,6.4349,6.3531,6.2821,6.2516,6.2415,6.2415,6.2415,6.2415,6.2415,6.2415,6.2415,6.2415,6.2415,6.2415,6.2415,6.2415,6.2415,6.2415,6.2415,6.2415,6.2415,6.2434,6.2434,6.2415,6.2415,6.2719,6.3091,6.3734,6.4377,6.4918,6.5324,6.5933,6.6305,6.6609,6.669,6.6791,6.6791,6.6791,6.6791,6.6791,6.6791,6.6791,6.6791,6.6791,6.6791,6.6791,6.6791,6.6791,6.6791,6.6791,6.6791,6.677,6.6707,6.6728,6.6665,6.6622,6.644,6.6418,6.6278,6.5975,6.5767,6.8083,6.8083,6.8083,6.8083,6.8182,6.8635,6.8593,6.8143,6.8083,6.8083,6.8083,6.8083,6.8083,6.8083,6.8083,6.8083,6.8083,6.8083,6.8083,6.8103,6.8182,6.8123,6.8123,6.8162,6.8123,6.8103,6.8103,6.8083,6.8083,6.8083,6.8083,6.8083,6.8083,6.8083,6.8083,6.8083,6.8083,6.8083,6.8083,6.8083,6.8083,6.8083,6.8083,6.8083,6.8083,6.8083,6.8083,6.7979,6.7879,6.7799,6.7489,6.7038,6.6908,6.5888,6.4952,6.3599,6.2888,6.2415,6.2415,6.2415,6.2415,6.2415,6.2415,6.2415,6.2415,6.2415,6.2415,6.2415,6.2415,6.2415,6.2415,6.2415,6.2415,6.2415,6.2415,6.2415,6.2415,6.2415,6.2415,6.2482,6.2854,6.3091,6.3768,6.4052,6.4546,6.5324,6.5933,6.6271,6.6588,6.669,6.6791,6.6791,6.6791,6.6791,6.6791,6.6791,6.6791,6.6791,6.6791,6.6791,6.6791,6.6791,6.6791,6.6791,6.6791,6.6791,6.6791,6.6791,6.6791,6.6791,6.6686,6.6749,6.6728,6.6375,6.617,6.8083,6.8123,6.842,6.8708,6.905,6.9438,6.92,6.8632,6.8536,6.8401,6.8103,6.8083,6.8083,6.8083,6.8083,6.8083,6.8083,6.8083,6.8083,6.8143,6.8362,6.8555,6.8555,6.8497,6.8593,6.8459,6.8241,6.8083,6.8083,6.8083,6.8083,6.8083,6.8083,6.8083,6.8083,6.8083,6.8083,6.8083,6.8083,6.8083,6.8083,6.8083,6.8083,6.8083,6.8083,6.8083,6.8064,6.7919,6.7859,6.7839,6.7516,6.7325,6.7025,6.6072,6.4566,6.326,6.2685,6.2415,6.2415,6.2415,6.2415,6.2415,6.2415,6.2415,6.2415,6.2415,6.2415,6.2415,6.2415,6.2415,6.2415,6.2415,6.2415,6.2415,6.2415,6.2415,6.2415,6.2415,6.2415,6.2415,6.2516,6.2685,6.2956,6.3274,6.3714,6.4478,6.5256,6.5899,6.6305,6.6576,6.6724,6.6791,6.6791,6.6791,6.6791,6.6791,6.6791,6.6791,6.6791,6.6791,6.6791,6.6791,6.6791,6.6791,6.6791,6.6791,6.6791,6.6791,6.6791,6.6791,6.6791,6.6791,6.6791,6.6707,6.6622,6.8201,6.8245,6.8975,6.9707,7.0334,7.0368,7.0007,6.9401,6.9438,6.8881,6.826,6.8083,6.8083,6.8083,6.8083,6.8083,6.8182,6.826,6.8362,6.8221,6.8749,6.9013,6.9031,6.9071,6.8692,6.8692,6.8555,6.8083,6.8083,6.8083,6.8083,6.8083,6.8083,6.8083,6.8083,6.8083,6.8083,6.8083,6.8083,6.8083,6.8083,6.8083,6.8083,6.8083,6.8083,6.8083,6.8059,6.7979,6.7879,6.7899,6.7699,6.7394,6.665,6.5685,6.4065,6.3111,6.2584,6.2415,6.2415,6.2415,6.2415,6.2415,6.2415,6.2415,6.2415,6.2415,6.2415,6.2415,6.2415,6.2415,6.2415,6.2415,6.2415,6.2415,6.2415,6.2415,6.2415,6.2415,6.2415,6.2415,6.2415,6.255,6.2618,6.2956,6.3274,6.3835,6.4343,6.5189,6.5899,6.6271,6.6576,6.6724,6.6791,6.6791,6.6791,6.6791,6.6791,6.6791,6.6791,6.6791,6.6791,6.6791,6.6791,6.6791,6.6791,6.6791,6.6791,6.6791,6.6791,6.6791,6.6791,6.6791,6.6791,6.6791,6.6791,6.8938,6.9013,6.9725,7.0453,7.1083,7.1131,7.1035,7.0888,7.0872,6.9814,6.8343,6.8123,6.8083,6.8083,6.8182,6.8201,6.826,6.873,6.89,6.8956,6.9218,6.9438,6.9126,6.9013,6.8654,6.8338,6.8162,6.8182,6.8201,6.8162,6.8103,6.8123,6.8103,6.8083,6.8083,6.8083,6.8083,6.8083,6.8083,6.8083,6.8083,6.8083,6.8083,6.8083,6.8083,6.8064,6.7999,6.7779,6.7859,6.7939,6.7312,6.6737,6.6078,6.5094,6.4208,6.3362,6.2651,6.2448,6.2415,6.2415,6.2415,6.2415,6.2415,6.2415,6.2415,6.2415,6.2415,6.2415,6.2415,6.2415,6.2415,6.2415,6.2415,6.2415,6.2415,6.2415,6.2415,6.2415,6.2415,6.2415,6.2415,6.2434,6.2468,6.2618,6.2956,6.3274,6.3579,6.4241,6.5222,6.5831,6.6271,6.6508,6.6757,6.6791,6.6791,6.6791,6.6791,6.6791,6.6791,6.6791,6.6791,6.6791,6.6791,6.6791,6.6791,6.6791,6.6791,6.6791,6.6791,6.6791,6.6791,6.6791,6.6791,6.6791,6.6791,6.9383,6.9778,7.047,7.1195,7.1815,7.1891,7.1723,7.1438,7.1406,7.037,6.8749,6.8574,6.842,6.8299,6.8401,6.8593,6.8711,6.9365,6.9636,6.9707,6.9743,6.9989,6.9725,6.9365,6.9689,6.9419,6.8768,6.8578,6.8555,6.8241,6.8162,6.8401,6.8362,6.8123,6.8103,6.8083,6.8083,6.8083,6.8083,6.8083,6.8083,6.8083,6.8083,6.8083,6.8083,6.8078,6.7899,6.7678,6.7739,6.7799,6.7414,6.6398,6.5719,6.4878,6.4038,6.3193,6.2618,6.2415,6.2415,6.2415,6.2415,6.2415,6.2415,6.2415,6.2415,6.2415,6.2415,6.2415,6.2415,6.2415,6.2415,6.2415,6.2415,6.2415,6.2415,6.2415,6.2415,6.2415,6.2415,6.2415,6.2415,6.2415,6.2415,6.2448,6.2719,6.2854,6.3105,6.3511,6.4444,6.5277,6.573,6.6203,6.644,6.6724,6.6791,6.6791,6.6791,6.6791,6.6791,6.6791,6.6791,6.6791,6.6791,6.6791,6.6791,6.6791,6.6791,6.6791,6.6791,6.6791,6.6791,6.6791,6.6791,6.6791,6.6791,6.9972,7.0637,7.1259,7.1891,7.2438,7.2481,7.2152,7.1661,7.1547,7.0822,6.9672,6.9546,6.9013,6.8673,6.8994,6.9182,6.9582,7.0128,7.0368,7.0436,7.0436,7.0621,7.0671,7.057,7.0453,7.0249,6.9761,6.9474,6.931,6.8975,6.8863,6.905,6.8708,6.8221,6.8123,6.8083,6.8083,6.8083,6.8083,6.8083,6.8083,6.8083,6.8083,6.8083,6.8064,6.7984,6.7839,6.7678,6.7638,6.7597,6.7448,6.6364,6.5433,6.4695,6.374,6.2956,6.2516,6.2415,6.2415,6.2415,6.2415,6.2415,6.2415,6.2415,6.2415,6.2415,6.2415,6.2415,6.2415,6.2415,6.2415,6.2415,6.2415,6.2415,6.2415,6.2415,6.2415,6.2415,6.2415,6.2415,6.2415,6.2415,6.2415,6.2415,6.2448,6.2584,6.2787,6.3173,6.368,6.4377,6.4986,6.5561,6.6,6.6305,6.669,6.6791,6.6791,6.6791,6.6791,6.6791,6.6791,6.6791,6.6791,6.6791,6.6791,6.6791,6.6791,6.6791,6.6791,6.6791,6.6791,6.6791,6.6791,6.6791,6.6791,7.1422,7.2108,7.2241,7.2394,7.2496,7.2532,7.2423,7.2321,7.2241,7.1784,7.1051,7.0839,7.0283,6.905,6.9743,7.0076,7.0214,7.0819,7.1115,7.1179,7.1067,7.1211,7.1259,7.1051,7.0537,7.0368,7.0317,7.0163,6.9867,6.9761,6.9564,6.9198,6.9161,6.8654,6.8103,6.8083,6.8083,6.8083,6.8083,6.8083,6.8083,6.8083,6.8083,6.8083,6.8083,6.8064,6.7979,6.7678,6.7658,6.7618,6.7353,6.6283,6.5318,6.4573,6.3754,6.2821,6.2415,6.2415,6.2415,6.2415,6.2415,6.2415,6.2415,6.2415,6.2415,6.2415,6.2415,6.2415,6.2415,6.2415,6.2415,6.2415,6.2415,6.2415,6.2415,6.2415,6.2415,6.2415,6.2415,6.2415,6.2415,6.2415,6.2415,6.2415,6.2415,6.2482,6.2482,6.2888,6.3274,6.3768,6.4275,6.4816,6.5425,6.617,6.6677,6.6757,6.6791,6.6791,6.6791,6.6791,6.6791,6.6791,6.6791,6.6791,6.6791,6.6791,6.6791,6.6791,6.6791,6.6791,6.6791,6.6791,6.6791,6.6791,6.6791]}]]